<?xml version="1.0" encoding="UTF-8" standalone="no" ?>
<gpx xmlns="http://www.topografix.com/GPX/1/1" xmlns:xsi="http://www.w3.org/2001/XMLSchema-instance" xsi:schemaLocation="http://www.topografix.com/GPX/1/1 http://www.topografix.com/GPX/1/1/gpx.xsd" version="1.1" creator="VisuGPX - https://www.visugpx.com">
  <metadata>
    <name>2015-12-04 Tour de Chevru</name>
    <desc><![CDATA[Au départ de Yenne, les belvédères donnent une vue imprenable sur le Rhône]]></desc>
  </metadata>
  <trk>
    <name><![CDATA[2015-12-04 Yenne]]></name>
    <trkseg>
      <trkpt lat="45.70505" lon="5.75174">
        <ele>231</ele>
        <time>2015-12-04T11:01:23Z</time>
      </trkpt>
      <trkpt lat="45.70505" lon="5.75174">
        <ele>231</ele>
        <time>2015-12-04T11:01:28Z</time>
      </trkpt>
      <trkpt lat="45.7051" lon="5.75171">
        <ele>231</ele>
        <time>2015-12-04T11:01:33Z</time>
      </trkpt>
      <trkpt lat="45.70515" lon="5.75163">
        <ele>232.029077718</ele>
        <time>2015-12-04T11:01:39Z</time>
      </trkpt>
      <trkpt lat="45.70516" lon="5.75148">
        <ele>232.205948599</ele>
        <time>2015-12-04T11:01:48Z</time>
      </trkpt>
      <trkpt lat="45.70516" lon="5.75145">
        <ele>232.205948599</ele>
        <time>2015-12-04T11:01:54Z</time>
      </trkpt>
      <trkpt lat="45.70501" lon="5.75126">
        <ele>231.356017024</ele>
        <time>2015-12-04T11:02:10Z</time>
      </trkpt>
      <trkpt lat="45.70496" lon="5.75121">
        <ele>231.356017024</ele>
        <time>2015-12-04T11:02:14Z</time>
      </trkpt>
      <trkpt lat="45.70488" lon="5.75113">
        <ele>232.221608265</ele>
        <time>2015-12-04T11:02:24Z</time>
      </trkpt>
      <trkpt lat="45.70482" lon="5.75107">
        <ele>232.221608265</ele>
        <time>2015-12-04T11:02:30Z</time>
      </trkpt>
      <trkpt lat="45.70467" lon="5.75096">
        <ele>234.427103098</ele>
        <time>2015-12-04T11:02:43Z</time>
      </trkpt>
      <trkpt lat="45.70465" lon="5.75093">
        <ele>234.427103098</ele>
        <time>2015-12-04T11:02:44Z</time>
      </trkpt>
      <trkpt lat="45.7043" lon="5.75071">
        <ele>236.621165167</ele>
        <time>2015-12-04T11:03:16Z</time>
      </trkpt>
      <trkpt lat="45.70413" lon="5.75061">
        <ele>237.911593654</ele>
        <time>2015-12-04T11:03:30Z</time>
      </trkpt>
      <trkpt lat="45.7041" lon="5.75057">
        <ele>237.911593654</ele>
        <time>2015-12-04T11:03:34Z</time>
      </trkpt>
      <trkpt lat="45.70346" lon="5.75005">
        <ele>240.695421784</ele>
        <time>2015-12-04T11:04:35Z</time>
      </trkpt>
      <trkpt lat="45.70343" lon="5.74999">
        <ele>240.695421784</ele>
        <time>2015-12-04T11:04:39Z</time>
      </trkpt>
      <trkpt lat="45.70332" lon="5.74991">
        <ele>242.549900139</ele>
        <time>2015-12-04T11:04:48Z</time>
      </trkpt>
      <trkpt lat="45.70324" lon="5.74989">
        <ele>242.549900139</ele>
        <time>2015-12-04T11:04:55Z</time>
      </trkpt>
      <trkpt lat="45.70314" lon="5.7498">
        <ele>244.414953225</ele>
        <time>2015-12-04T11:05:05Z</time>
      </trkpt>
      <trkpt lat="45.70309" lon="5.74973">
        <ele>244.414953225</ele>
        <time>2015-12-04T11:05:09Z</time>
      </trkpt>
      <trkpt lat="45.70302" lon="5.74964">
        <ele>246.119285607</ele>
        <time>2015-12-04T11:05:19Z</time>
      </trkpt>
      <trkpt lat="45.70295" lon="5.7496">
        <ele>246.119285607</ele>
        <time>2015-12-04T11:05:25Z</time>
      </trkpt>
      <trkpt lat="45.70284" lon="5.74947">
        <ele>248.176686489</ele>
        <time>2015-12-04T11:05:35Z</time>
      </trkpt>
      <trkpt lat="45.70277" lon="5.74944">
        <ele>248.176686489</ele>
        <time>2015-12-04T11:05:40Z</time>
      </trkpt>
      <trkpt lat="45.70265" lon="5.74936">
        <ele>250.225059033</ele>
        <time>2015-12-04T11:05:52Z</time>
      </trkpt>
      <trkpt lat="45.70263" lon="5.74935">
        <ele>250.225059033</ele>
        <time>2015-12-04T11:05:54Z</time>
      </trkpt>
      <trkpt lat="45.70261" lon="5.74934">
        <ele>250.225059033</ele>
        <time>2015-12-04T11:05:55Z</time>
      </trkpt>
      <trkpt lat="45.70253" lon="5.74925">
        <ele>251.432247727</ele>
        <time>2015-12-04T11:06:07Z</time>
      </trkpt>
      <trkpt lat="45.70253" lon="5.74926">
        <ele>251.432247727</ele>
        <time>2015-12-04T11:06:07Z</time>
      </trkpt>
      <trkpt lat="45.70249" lon="5.74918">
        <ele>251.432247727</ele>
        <time>2015-12-04T11:06:11Z</time>
      </trkpt>
      <trkpt lat="45.70231" lon="5.749">
        <ele>253.210901047</ele>
        <time>2015-12-04T11:06:33Z</time>
      </trkpt>
      <trkpt lat="45.7023" lon="5.74898">
        <ele>253.210901047</ele>
        <time>2015-12-04T11:06:34Z</time>
      </trkpt>
      <trkpt lat="45.70214" lon="5.74882">
        <ele>254.685492609</ele>
        <time>2015-12-04T11:06:53Z</time>
      </trkpt>
      <trkpt lat="45.70213" lon="5.74881">
        <ele>254.685492609</ele>
        <time>2015-12-04T11:06:53Z</time>
      </trkpt>
      <trkpt lat="45.70225" lon="5.74873">
        <ele>256.545574029</ele>
        <time>2015-12-04T11:07:19Z</time>
      </trkpt>
      <trkpt lat="45.70229" lon="5.74875">
        <ele>256.545574029</ele>
        <time>2015-12-04T11:07:23Z</time>
      </trkpt>
      <trkpt lat="45.70232" lon="5.74877">
        <ele>256.545574029</ele>
        <time>2015-12-04T11:07:32Z</time>
      </trkpt>
      <trkpt lat="45.70234" lon="5.74878">
        <ele>258.428674355</ele>
        <time>2015-12-04T11:07:33Z</time>
      </trkpt>
      <trkpt lat="45.70249" lon="5.74884">
        <ele>260.810768015</ele>
        <time>2015-12-04T11:07:46Z</time>
      </trkpt>
      <trkpt lat="45.70253" lon="5.74884">
        <ele>260.810768015</ele>
        <time>2015-12-04T11:07:48Z</time>
      </trkpt>
      <trkpt lat="45.7026" lon="5.74887">
        <ele>262.378060938</ele>
        <time>2015-12-04T11:07:55Z</time>
      </trkpt>
      <trkpt lat="45.70272" lon="5.74892">
        <ele>263.689534398</ele>
        <time>2015-12-04T11:08:02Z</time>
      </trkpt>
      <trkpt lat="45.70274" lon="5.74891">
        <ele>263.689534398</ele>
        <time>2015-12-04T11:08:04Z</time>
      </trkpt>
      <trkpt lat="45.70286" lon="5.74892">
        <ele>265.537654134</ele>
        <time>2015-12-04T11:08:15Z</time>
      </trkpt>
      <trkpt lat="45.70287" lon="5.74891">
        <ele>265.537654134</ele>
        <time>2015-12-04T11:08:30Z</time>
      </trkpt>
      <trkpt lat="45.70284" lon="5.74897">
        <ele>265.537654134</ele>
        <time>2015-12-04T11:08:35Z</time>
      </trkpt>
      <trkpt lat="45.70288" lon="5.74896">
        <ele>266.812659935</ele>
        <time>2015-12-04T11:08:45Z</time>
      </trkpt>
      <trkpt lat="45.70287" lon="5.74896">
        <ele>266.812659935</ele>
        <time>2015-12-04T11:08:49Z</time>
      </trkpt>
      <trkpt lat="45.70288" lon="5.74895">
        <ele>266.812659935</ele>
        <time>2015-12-04T11:09:00Z</time>
      </trkpt>
      <trkpt lat="45.70292" lon="5.74893">
        <ele>266.812659935</ele>
        <time>2015-12-04T11:09:05Z</time>
      </trkpt>
      <trkpt lat="45.70302" lon="5.74896">
        <ele>268.022646344</ele>
        <time>2015-12-04T11:09:14Z</time>
      </trkpt>
      <trkpt lat="45.70306" lon="5.74897">
        <ele>268.022646344</ele>
        <time>2015-12-04T11:09:20Z</time>
      </trkpt>
      <trkpt lat="45.70323" lon="5.74902">
        <ele>269.320984665</ele>
        <time>2015-12-04T11:09:35Z</time>
      </trkpt>
      <trkpt lat="45.70329" lon="5.74905">
        <ele>269.320984665</ele>
        <time>2015-12-04T11:09:40Z</time>
      </trkpt>
      <trkpt lat="45.70335" lon="5.74905">
        <ele>270.698364854</ele>
        <time>2015-12-04T11:09:49Z</time>
      </trkpt>
      <trkpt lat="45.70343" lon="5.74907">
        <ele>270.698364854</ele>
        <time>2015-12-04T11:09:54Z</time>
      </trkpt>
      <trkpt lat="45.70374" lon="5.74909">
        <ele>272.858558385</ele>
        <time>2015-12-04T11:10:24Z</time>
      </trkpt>
      <trkpt lat="45.70377" lon="5.74909">
        <ele>272.858558385</ele>
        <time>2015-12-04T11:10:24Z</time>
      </trkpt>
      <trkpt lat="45.70377" lon="5.74909">
        <ele>272.858558385</ele>
        <time>2015-12-04T11:10:25Z</time>
      </trkpt>
      <trkpt lat="45.70392" lon="5.74906">
        <ele>275.019325886</ele>
        <time>2015-12-04T11:10:39Z</time>
      </trkpt>
      <trkpt lat="45.70404" lon="5.749">
        <ele>277.179884889</ele>
        <time>2015-12-04T11:10:50Z</time>
      </trkpt>
      <trkpt lat="45.70404" lon="5.74897">
        <ele>277.179884889</ele>
        <time>2015-12-04T11:10:53Z</time>
      </trkpt>
      <trkpt lat="45.70409" lon="5.7489">
        <ele>277.179884889</ele>
        <time>2015-12-04T11:11:05Z</time>
      </trkpt>
      <trkpt lat="45.70412" lon="5.74884">
        <ele>278.502858703</ele>
        <time>2015-12-04T11:11:10Z</time>
      </trkpt>
      <trkpt lat="45.70416" lon="5.7488">
        <ele>278.502858703</ele>
        <time>2015-12-04T11:11:19Z</time>
      </trkpt>
      <trkpt lat="45.70417" lon="5.74879">
        <ele>278.502858703</ele>
        <time>2015-12-04T11:11:25Z</time>
      </trkpt>
      <trkpt lat="45.70417" lon="5.74879">
        <ele>278.502858703</ele>
        <time>2015-12-04T11:11:34Z</time>
      </trkpt>
      <trkpt lat="45.70418" lon="5.74878">
        <ele>278.502858703</ele>
        <time>2015-12-04T11:11:39Z</time>
      </trkpt>
      <trkpt lat="45.70412" lon="5.74866">
        <ele>280.167811176</ele>
        <time>2015-12-04T11:11:54Z</time>
      </trkpt>
      <trkpt lat="45.70408" lon="5.74863">
        <ele>280.167811176</ele>
        <time>2015-12-04T11:11:59Z</time>
      </trkpt>
      <trkpt lat="45.70408" lon="5.74865">
        <ele>280.167811176</ele>
        <time>2015-12-04T11:12:10Z</time>
      </trkpt>
      <trkpt lat="45.70408" lon="5.74865">
        <ele>280.167811176</ele>
        <time>2015-12-04T11:12:14Z</time>
      </trkpt>
      <trkpt lat="45.70408" lon="5.74865">
        <ele>280.167811176</ele>
        <time>2015-12-04T11:12:24Z</time>
      </trkpt>
      <trkpt lat="45.70408" lon="5.74865">
        <ele>280.167811176</ele>
        <time>2015-12-04T11:12:28Z</time>
      </trkpt>
      <trkpt lat="45.70408" lon="5.74865">
        <ele>280.167811176</ele>
        <time>2015-12-04T11:12:39Z</time>
      </trkpt>
      <trkpt lat="45.70408" lon="5.74865">
        <ele>280.167811176</ele>
        <time>2015-12-04T11:12:44Z</time>
      </trkpt>
      <trkpt lat="45.70408" lon="5.74865">
        <ele>280.167811176</ele>
        <time>2015-12-04T11:12:53Z</time>
      </trkpt>
      <trkpt lat="45.70401" lon="5.74863">
        <ele>281.314743571</ele>
        <time>2015-12-04T11:12:59Z</time>
      </trkpt>
      <trkpt lat="45.70394" lon="5.74862">
        <ele>281.314743571</ele>
        <time>2015-12-04T11:13:09Z</time>
      </trkpt>
      <trkpt lat="45.70395" lon="5.74861">
        <ele>281.314743571</ele>
        <time>2015-12-04T11:13:14Z</time>
      </trkpt>
      <trkpt lat="45.70394" lon="5.74854">
        <ele>282.674704203</ele>
        <time>2015-12-04T11:13:28Z</time>
      </trkpt>
      <trkpt lat="45.70393" lon="5.74838">
        <ele>283.954382873</ele>
        <time>2015-12-04T11:13:45Z</time>
      </trkpt>
      <trkpt lat="45.70393" lon="5.74839">
        <ele>283.954382873</ele>
        <time>2015-12-04T11:13:49Z</time>
      </trkpt>
      <trkpt lat="45.70393" lon="5.74838">
        <ele>283.954382873</ele>
        <time>2015-12-04T11:13:59Z</time>
      </trkpt>
      <trkpt lat="45.70393" lon="5.74838">
        <ele>283.954382873</ele>
        <time>2015-12-04T11:14:03Z</time>
      </trkpt>
      <trkpt lat="45.70393" lon="5.74839">
        <ele>283.954382873</ele>
        <time>2015-12-04T11:14:13Z</time>
      </trkpt>
      <trkpt lat="45.70393" lon="5.74839">
        <ele>283.954382873</ele>
        <time>2015-12-04T11:14:18Z</time>
      </trkpt>
      <trkpt lat="45.70393" lon="5.74839">
        <ele>283.954382873</ele>
        <time>2015-12-04T11:14:28Z</time>
      </trkpt>
      <trkpt lat="45.70393" lon="5.74839">
        <ele>283.954382873</ele>
        <time>2015-12-04T11:14:33Z</time>
      </trkpt>
      <trkpt lat="45.70398" lon="5.74842">
        <ele>283.954382873</ele>
        <time>2015-12-04T11:14:45Z</time>
      </trkpt>
      <trkpt lat="45.70397" lon="5.74841">
        <ele>283.954382873</ele>
        <time>2015-12-04T11:14:49Z</time>
      </trkpt>
      <trkpt lat="45.70399" lon="5.74841">
        <ele>283.954382873</ele>
        <time>2015-12-04T11:14:53Z</time>
      </trkpt>
      <trkpt lat="45.70401" lon="5.74841">
        <ele>285.298374529</ele>
        <time>2015-12-04T11:14:58Z</time>
      </trkpt>
      <trkpt lat="45.70402" lon="5.7484">
        <ele>285.298374529</ele>
        <time>2015-12-04T11:15:03Z</time>
      </trkpt>
      <trkpt lat="45.70402" lon="5.74839">
        <ele>285.298374529</ele>
        <time>2015-12-04T11:15:10Z</time>
      </trkpt>
      <trkpt lat="45.70406" lon="5.74838">
        <ele>285.298374529</ele>
        <time>2015-12-04T11:15:20Z</time>
      </trkpt>
      <trkpt lat="45.70403" lon="5.7484">
        <ele>285.298374529</ele>
        <time>2015-12-04T11:15:25Z</time>
      </trkpt>
      <trkpt lat="45.70403" lon="5.74852">
        <ele>286.983085335</ele>
        <time>2015-12-04T11:15:40Z</time>
      </trkpt>
      <trkpt lat="45.70405" lon="5.74859">
        <ele>286.983085335</ele>
        <time>2015-12-04T11:15:50Z</time>
      </trkpt>
      <trkpt lat="45.70405" lon="5.7486">
        <ele>286.983085335</ele>
        <time>2015-12-04T11:15:54Z</time>
      </trkpt>
      <trkpt lat="45.7041" lon="5.74851">
        <ele>288.706111039</ele>
        <time>2015-12-04T11:16:10Z</time>
      </trkpt>
      <trkpt lat="45.70411" lon="5.74846">
        <ele>288.706111039</ele>
        <time>2015-12-04T11:16:15Z</time>
      </trkpt>
      <trkpt lat="45.70409" lon="5.74828">
        <ele>289.614212741</ele>
        <time>2015-12-04T11:16:24Z</time>
      </trkpt>
      <trkpt lat="45.70407" lon="5.74825">
        <ele>289.614212741</ele>
        <time>2015-12-04T11:16:30Z</time>
      </trkpt>
      <trkpt lat="45.70401" lon="5.74813">
        <ele>289.898466815</ele>
        <time>2015-12-04T11:16:39Z</time>
      </trkpt>
      <trkpt lat="45.704" lon="5.74804">
        <ele>289.898466815</ele>
        <time>2015-12-04T11:16:45Z</time>
      </trkpt>
      <trkpt lat="45.70398" lon="5.74788">
        <ele>289.598557076</ele>
        <time>2015-12-04T11:16:54Z</time>
      </trkpt>
      <trkpt lat="45.70398" lon="5.74756">
        <ele>289.333625913</ele>
        <time>2015-12-04T11:17:28Z</time>
      </trkpt>
      <trkpt lat="45.70401" lon="5.74758">
        <ele>289.333625913</ele>
        <time>2015-12-04T11:17:36Z</time>
      </trkpt>
      <trkpt lat="45.70411" lon="5.74773">
        <ele>289.546595817</ele>
        <time>2015-12-04T11:17:51Z</time>
      </trkpt>
      <trkpt lat="45.70422" lon="5.74788">
        <ele>289.336032562</ele>
        <time>2015-12-04T11:18:16Z</time>
      </trkpt>
      <trkpt lat="45.70422" lon="5.74788">
        <ele>289.336032562</ele>
        <time>2015-12-04T11:18:17Z</time>
      </trkpt>
      <trkpt lat="45.70422" lon="5.74788">
        <ele>289.336032562</ele>
        <time>2015-12-04T11:18:18Z</time>
      </trkpt>
      <trkpt lat="45.70423" lon="5.74788">
        <ele>289.336032562</ele>
        <time>2015-12-04T11:18:34Z</time>
      </trkpt>
      <trkpt lat="45.70423" lon="5.74788">
        <ele>289.336032562</ele>
        <time>2015-12-04T11:18:34Z</time>
      </trkpt>
      <trkpt lat="45.70423" lon="5.74788">
        <ele>289.336032562</ele>
        <time>2015-12-04T11:18:35Z</time>
      </trkpt>
      <trkpt lat="45.70423" lon="5.74787">
        <ele>289.336032562</ele>
        <time>2015-12-04T11:18:47Z</time>
      </trkpt>
      <trkpt lat="45.70423" lon="5.74788">
        <ele>289.336032562</ele>
        <time>2015-12-04T11:18:47Z</time>
      </trkpt>
      <trkpt lat="45.70423" lon="5.74788">
        <ele>289.336032562</ele>
        <time>2015-12-04T11:18:49Z</time>
      </trkpt>
      <trkpt lat="45.70422" lon="5.74788">
        <ele>289.336032562</ele>
        <time>2015-12-04T11:18:55Z</time>
      </trkpt>
      <trkpt lat="45.70422" lon="5.74788">
        <ele>289.336032562</ele>
        <time>2015-12-04T11:19:05Z</time>
      </trkpt>
      <trkpt lat="45.70422" lon="5.74788">
        <ele>289.336032562</ele>
        <time>2015-12-04T11:19:09Z</time>
      </trkpt>
      <trkpt lat="45.70422" lon="5.74788">
        <ele>289.336032562</ele>
        <time>2015-12-04T11:19:19Z</time>
      </trkpt>
      <trkpt lat="45.70422" lon="5.74788">
        <ele>289.336032562</ele>
        <time>2015-12-04T11:19:24Z</time>
      </trkpt>
      <trkpt lat="45.70422" lon="5.74788">
        <ele>289.336032562</ele>
        <time>2015-12-04T11:19:33Z</time>
      </trkpt>
      <trkpt lat="45.70422" lon="5.74788">
        <ele>289.336032562</ele>
        <time>2015-12-04T11:19:39Z</time>
      </trkpt>
      <trkpt lat="45.70422" lon="5.7479">
        <ele>289.336032562</ele>
        <time>2015-12-04T11:19:53Z</time>
      </trkpt>
      <trkpt lat="45.7042" lon="5.74779">
        <ele>289.030093231</ele>
        <time>2015-12-04T11:20:09Z</time>
      </trkpt>
      <trkpt lat="45.70412" lon="5.74765">
        <ele>289.087878005</ele>
        <time>2015-12-04T11:20:24Z</time>
      </trkpt>
      <trkpt lat="45.70408" lon="5.74758">
        <ele>289.087878005</ele>
        <time>2015-12-04T11:20:30Z</time>
      </trkpt>
      <trkpt lat="45.70404" lon="5.74754">
        <ele>289.046050795</ele>
        <time>2015-12-04T11:20:40Z</time>
      </trkpt>
      <trkpt lat="45.70399" lon="5.74757">
        <ele>289.046050795</ele>
        <time>2015-12-04T11:20:45Z</time>
      </trkpt>
      <trkpt lat="45.70391" lon="5.74755">
        <ele>289.516096973</ele>
        <time>2015-12-04T11:20:54Z</time>
      </trkpt>
      <trkpt lat="45.70393" lon="5.74747">
        <ele>289.516096973</ele>
        <time>2015-12-04T11:21:00Z</time>
      </trkpt>
      <trkpt lat="45.70397" lon="5.74732">
        <ele>289.417298632</ele>
        <time>2015-12-04T11:21:12Z</time>
      </trkpt>
      <trkpt lat="45.70397" lon="5.74731">
        <ele>289.417298632</ele>
        <time>2015-12-04T11:21:13Z</time>
      </trkpt>
      <trkpt lat="45.70397" lon="5.74711">
        <ele>289.547472122</ele>
        <time>2015-12-04T11:21:28Z</time>
      </trkpt>
      <trkpt lat="45.70397" lon="5.7471">
        <ele>289.547472122</ele>
        <time>2015-12-04T11:21:29Z</time>
      </trkpt>
      <trkpt lat="45.70395" lon="5.74706">
        <ele>289.547472122</ele>
        <time>2015-12-04T11:21:31Z</time>
      </trkpt>
      <trkpt lat="45.70385" lon="5.74684">
        <ele>289.744601523</ele>
        <time>2015-12-04T11:21:50Z</time>
      </trkpt>
      <trkpt lat="45.70379" lon="5.74674">
        <ele>289.857249056</ele>
        <time>2015-12-04T11:21:57Z</time>
      </trkpt>
      <trkpt lat="45.70378" lon="5.74671">
        <ele>289.857249056</ele>
        <time>2015-12-04T11:21:59Z</time>
      </trkpt>
      <trkpt lat="45.70364" lon="5.74646">
        <ele>290.349000382</ele>
        <time>2015-12-04T11:22:19Z</time>
      </trkpt>
      <trkpt lat="45.70362" lon="5.74643">
        <ele>290.349000382</ele>
        <time>2015-12-04T11:22:20Z</time>
      </trkpt>
      <trkpt lat="45.7036" lon="5.74625">
        <ele>291.193567695</ele>
        <time>2015-12-04T11:22:28Z</time>
      </trkpt>
      <trkpt lat="45.7035" lon="5.746">
        <ele>291.91196339</ele>
        <time>2015-12-04T11:22:52Z</time>
      </trkpt>
      <trkpt lat="45.7035" lon="5.74599">
        <ele>291.91196339</ele>
        <time>2015-12-04T11:22:54Z</time>
      </trkpt>
      <trkpt lat="45.70352" lon="5.7458">
        <ele>292.816914713</ele>
        <time>2015-12-04T11:23:05Z</time>
      </trkpt>
      <trkpt lat="45.7035" lon="5.74572">
        <ele>292.816914713</ele>
        <time>2015-12-04T11:23:10Z</time>
      </trkpt>
      <trkpt lat="45.70352" lon="5.74562">
        <ele>293.894165573</ele>
        <time>2015-12-04T11:23:19Z</time>
      </trkpt>
      <trkpt lat="45.70353" lon="5.74557">
        <ele>293.894165573</ele>
        <time>2015-12-04T11:23:24Z</time>
      </trkpt>
      <trkpt lat="45.70351" lon="5.74543">
        <ele>295.280080871</ele>
        <time>2015-12-04T11:23:35Z</time>
      </trkpt>
      <trkpt lat="45.70349" lon="5.74538">
        <ele>295.280080871</ele>
        <time>2015-12-04T11:23:39Z</time>
      </trkpt>
      <trkpt lat="45.70342" lon="5.7452">
        <ele>297.24852685</ele>
        <time>2015-12-04T11:23:54Z</time>
      </trkpt>
      <trkpt lat="45.7034" lon="5.74513">
        <ele>297.24852685</ele>
        <time>2015-12-04T11:23:59Z</time>
      </trkpt>
      <trkpt lat="45.70335" lon="5.74485">
        <ele>299.449877117</ele>
        <time>2015-12-04T11:24:26Z</time>
      </trkpt>
      <trkpt lat="45.70333" lon="5.74483">
        <ele>299.449877117</ele>
        <time>2015-12-04T11:24:27Z</time>
      </trkpt>
      <trkpt lat="45.70333" lon="5.74482">
        <ele>299.449877117</ele>
        <time>2015-12-04T11:24:28Z</time>
      </trkpt>
      <trkpt lat="45.70332" lon="5.74477">
        <ele>299.449877117</ele>
        <time>2015-12-04T11:24:31Z</time>
      </trkpt>
      <trkpt lat="45.70332" lon="5.74477">
        <ele>299.449877117</ele>
        <time>2015-12-04T11:24:32Z</time>
      </trkpt>
      <trkpt lat="45.7034" lon="5.7445">
        <ele>302.160209715</ele>
        <time>2015-12-04T11:24:59Z</time>
      </trkpt>
      <trkpt lat="45.70352" lon="5.74403">
        <ele>305.333006262</ele>
        <time>2015-12-04T11:25:34Z</time>
      </trkpt>
      <trkpt lat="45.70352" lon="5.74398">
        <ele>305.333006262</ele>
        <time>2015-12-04T11:25:35Z</time>
      </trkpt>
      <trkpt lat="45.70352" lon="5.74397">
        <ele>305.333006262</ele>
        <time>2015-12-04T11:25:36Z</time>
      </trkpt>
      <trkpt lat="45.70361" lon="5.74389">
        <ele>307.587298715</ele>
        <time>2015-12-04T11:25:47Z</time>
      </trkpt>
      <trkpt lat="45.70367" lon="5.74382">
        <ele>307.587298715</ele>
        <time>2015-12-04T11:25:54Z</time>
      </trkpt>
      <trkpt lat="45.70368" lon="5.7438">
        <ele>309.884203003</ele>
        <time>2015-12-04T11:25:54Z</time>
      </trkpt>
      <trkpt lat="45.70367" lon="5.74365">
        <ele>312.069195259</ele>
        <time>2015-12-04T11:26:04Z</time>
      </trkpt>
      <trkpt lat="45.70365" lon="5.74357">
        <ele>312.069195259</ele>
        <time>2015-12-04T11:26:09Z</time>
      </trkpt>
      <trkpt lat="45.70361" lon="5.74348">
        <ele>314.443485017</ele>
        <time>2015-12-04T11:26:20Z</time>
      </trkpt>
      <trkpt lat="45.70361" lon="5.74343">
        <ele>314.443485017</ele>
        <time>2015-12-04T11:26:24Z</time>
      </trkpt>
      <trkpt lat="45.70356" lon="5.74329">
        <ele>316.841352624</ele>
        <time>2015-12-04T11:26:35Z</time>
      </trkpt>
      <trkpt lat="45.70359" lon="5.74321">
        <ele>316.841352624</ele>
        <time>2015-12-04T11:26:40Z</time>
      </trkpt>
      <trkpt lat="45.7036" lon="5.74309">
        <ele>319.257647284</ele>
        <time>2015-12-04T11:26:50Z</time>
      </trkpt>
      <trkpt lat="45.7036" lon="5.74303">
        <ele>319.257647284</ele>
        <time>2015-12-04T11:26:54Z</time>
      </trkpt>
      <trkpt lat="45.70358" lon="5.74292">
        <ele>321.834124074</ele>
        <time>2015-12-04T11:27:04Z</time>
      </trkpt>
      <trkpt lat="45.70358" lon="5.74288">
        <ele>321.834124074</ele>
        <time>2015-12-04T11:27:09Z</time>
      </trkpt>
      <trkpt lat="45.7036" lon="5.74253">
        <ele>324.262060222</ele>
        <time>2015-12-04T11:27:37Z</time>
      </trkpt>
      <trkpt lat="45.7036" lon="5.74251">
        <ele>324.262060222</ele>
        <time>2015-12-04T11:27:40Z</time>
      </trkpt>
      <trkpt lat="45.70354" lon="5.74222">
        <ele>326.25826247</ele>
        <time>2015-12-04T11:27:57Z</time>
      </trkpt>
      <trkpt lat="45.70353" lon="5.74221">
        <ele>326.25826247</ele>
        <time>2015-12-04T11:27:58Z</time>
      </trkpt>
      <trkpt lat="45.70353" lon="5.7422">
        <ele>326.25826247</ele>
        <time>2015-12-04T11:27:59Z</time>
      </trkpt>
      <trkpt lat="45.70354" lon="5.74212">
        <ele>326.25826247</ele>
        <time>2015-12-04T11:28:14Z</time>
      </trkpt>
      <trkpt lat="45.70342" lon="5.7416">
        <ele>329.456884957</ele>
        <time>2015-12-04T11:28:54Z</time>
      </trkpt>
      <trkpt lat="45.70342" lon="5.74159">
        <ele>329.456884957</ele>
        <time>2015-12-04T11:28:56Z</time>
      </trkpt>
      <trkpt lat="45.70341" lon="5.74158">
        <ele>329.456884957</ele>
        <time>2015-12-04T11:28:56Z</time>
      </trkpt>
      <trkpt lat="45.70339" lon="5.74154">
        <ele>329.456884957</ele>
        <time>2015-12-04T11:29:00Z</time>
      </trkpt>
      <trkpt lat="45.7034" lon="5.74152">
        <ele>329.456884957</ele>
        <time>2015-12-04T11:29:04Z</time>
      </trkpt>
      <trkpt lat="45.70335" lon="5.7414">
        <ele>332.449921016</ele>
        <time>2015-12-04T11:29:15Z</time>
      </trkpt>
      <trkpt lat="45.70326" lon="5.74127">
        <ele>334.377618141</ele>
        <time>2015-12-04T11:29:30Z</time>
      </trkpt>
      <trkpt lat="45.70323" lon="5.7412">
        <ele>334.377618141</ele>
        <time>2015-12-04T11:29:34Z</time>
      </trkpt>
      <trkpt lat="45.70313" lon="5.74112">
        <ele>335.610711779</ele>
        <time>2015-12-04T11:29:45Z</time>
      </trkpt>
      <trkpt lat="45.70308" lon="5.74106">
        <ele>335.610711779</ele>
        <time>2015-12-04T11:29:49Z</time>
      </trkpt>
      <trkpt lat="45.70304" lon="5.74104">
        <ele>337.07189983</ele>
        <time>2015-12-04T11:30:00Z</time>
      </trkpt>
      <trkpt lat="45.70303" lon="5.74103">
        <ele>337.07189983</ele>
        <time>2015-12-04T11:30:04Z</time>
      </trkpt>
      <trkpt lat="45.70292" lon="5.74097">
        <ele>339.177475577</ele>
        <time>2015-12-04T11:30:19Z</time>
      </trkpt>
      <trkpt lat="45.70256" lon="5.74082">
        <ele>341.008719731</ele>
        <time>2015-12-04T11:30:52Z</time>
      </trkpt>
      <trkpt lat="45.70256" lon="5.7408">
        <ele>341.008719731</ele>
        <time>2015-12-04T11:30:53Z</time>
      </trkpt>
      <trkpt lat="45.70256" lon="5.7408">
        <ele>341.008719731</ele>
        <time>2015-12-04T11:30:54Z</time>
      </trkpt>
      <trkpt lat="45.70256" lon="5.74079">
        <ele>341.008719731</ele>
        <time>2015-12-04T11:30:55Z</time>
      </trkpt>
      <trkpt lat="45.70248" lon="5.74075">
        <ele>342.874142004</ele>
        <time>2015-12-04T11:31:06Z</time>
      </trkpt>
      <trkpt lat="45.70245" lon="5.74073">
        <ele>342.874142004</ele>
        <time>2015-12-04T11:31:09Z</time>
      </trkpt>
      <trkpt lat="45.70188" lon="5.74049">
        <ele>344.192160562</ele>
        <time>2015-12-04T11:31:59Z</time>
      </trkpt>
      <trkpt lat="45.70187" lon="5.74049">
        <ele>344.192160562</ele>
        <time>2015-12-04T11:32:00Z</time>
      </trkpt>
      <trkpt lat="45.70184" lon="5.74048">
        <ele>344.192160562</ele>
        <time>2015-12-04T11:32:01Z</time>
      </trkpt>
      <trkpt lat="45.70183" lon="5.74049">
        <ele>344.192160562</ele>
        <time>2015-12-04T11:32:04Z</time>
      </trkpt>
      <trkpt lat="45.70176" lon="5.7405">
        <ele>345.292719801</ele>
        <time>2015-12-04T11:32:09Z</time>
      </trkpt>
      <trkpt lat="45.7017" lon="5.74043">
        <ele>345.292719801</ele>
        <time>2015-12-04T11:32:15Z</time>
      </trkpt>
      <trkpt lat="45.70166" lon="5.74039">
        <ele>347.058696222</ele>
        <time>2015-12-04T11:32:19Z</time>
      </trkpt>
      <trkpt lat="45.70158" lon="5.74027">
        <ele>348.429887203</ele>
        <time>2015-12-04T11:32:34Z</time>
      </trkpt>
      <trkpt lat="45.70156" lon="5.74022">
        <ele>348.429887203</ele>
        <time>2015-12-04T11:32:39Z</time>
      </trkpt>
      <trkpt lat="45.7015" lon="5.7401">
        <ele>348.858934425</ele>
        <time>2015-12-04T11:32:50Z</time>
      </trkpt>
      <trkpt lat="45.70148" lon="5.74003">
        <ele>348.858934425</ele>
        <time>2015-12-04T11:32:55Z</time>
      </trkpt>
      <trkpt lat="45.7014" lon="5.73992">
        <ele>350.004641665</ele>
        <time>2015-12-04T11:33:05Z</time>
      </trkpt>
      <trkpt lat="45.70137" lon="5.73986">
        <ele>350.004641665</ele>
        <time>2015-12-04T11:33:09Z</time>
      </trkpt>
      <trkpt lat="45.70137" lon="5.73989">
        <ele>350.004641665</ele>
        <time>2015-12-04T11:33:19Z</time>
      </trkpt>
      <trkpt lat="45.70137" lon="5.73989">
        <ele>350.004641665</ele>
        <time>2015-12-04T11:33:24Z</time>
      </trkpt>
      <trkpt lat="45.70137" lon="5.73986">
        <ele>351.3824754</ele>
        <time>2015-12-04T11:33:34Z</time>
      </trkpt>
      <trkpt lat="45.70132" lon="5.73977">
        <ele>351.3824754</ele>
        <time>2015-12-04T11:33:39Z</time>
      </trkpt>
      <trkpt lat="45.7013" lon="5.73964">
        <ele>353.408233816</ele>
        <time>2015-12-04T11:33:50Z</time>
      </trkpt>
      <trkpt lat="45.7013" lon="5.73955">
        <ele>353.408233816</ele>
        <time>2015-12-04T11:33:54Z</time>
      </trkpt>
      <trkpt lat="45.70125" lon="5.73938">
        <ele>354.879445265</ele>
        <time>2015-12-04T11:34:05Z</time>
      </trkpt>
      <trkpt lat="45.70122" lon="5.73934">
        <ele>354.879445265</ele>
        <time>2015-12-04T11:34:09Z</time>
      </trkpt>
      <trkpt lat="45.70118" lon="5.73922">
        <ele>356.557950114</ele>
        <time>2015-12-04T11:34:19Z</time>
      </trkpt>
      <trkpt lat="45.70119" lon="5.73914">
        <ele>356.557950114</ele>
        <time>2015-12-04T11:34:25Z</time>
      </trkpt>
      <trkpt lat="45.70111" lon="5.73905">
        <ele>358.572336674</ele>
        <time>2015-12-04T11:34:34Z</time>
      </trkpt>
      <trkpt lat="45.7011" lon="5.73904">
        <ele>358.572336674</ele>
        <time>2015-12-04T11:34:35Z</time>
      </trkpt>
      <trkpt lat="45.70108" lon="5.73903">
        <ele>358.572336674</ele>
        <time>2015-12-04T11:34:42Z</time>
      </trkpt>
      <trkpt lat="45.7011" lon="5.73858">
        <ele>361.32923237</ele>
        <time>2015-12-04T11:35:17Z</time>
      </trkpt>
      <trkpt lat="45.70111" lon="5.73859">
        <ele>361.32923237</ele>
        <time>2015-12-04T11:35:18Z</time>
      </trkpt>
      <trkpt lat="45.70145" lon="5.73844">
        <ele>362.607906828</ele>
        <time>2015-12-04T11:36:03Z</time>
      </trkpt>
      <trkpt lat="45.70146" lon="5.73845">
        <ele>362.607906828</ele>
        <time>2015-12-04T11:36:03Z</time>
      </trkpt>
      <trkpt lat="45.70146" lon="5.73845">
        <ele>362.607906828</ele>
        <time>2015-12-04T11:36:04Z</time>
      </trkpt>
      <trkpt lat="45.70147" lon="5.73847">
        <ele>362.607906828</ele>
        <time>2015-12-04T11:36:05Z</time>
      </trkpt>
      <trkpt lat="45.70169" lon="5.73842">
        <ele>363.815483143</ele>
        <time>2015-12-04T11:36:17Z</time>
      </trkpt>
      <trkpt lat="45.70169" lon="5.73844">
        <ele>363.815483143</ele>
        <time>2015-12-04T11:36:19Z</time>
      </trkpt>
      <trkpt lat="45.70184" lon="5.73837">
        <ele>364.525618722</ele>
        <time>2015-12-04T11:36:33Z</time>
      </trkpt>
      <trkpt lat="45.7019" lon="5.73835">
        <ele>364.525618722</ele>
        <time>2015-12-04T11:36:38Z</time>
      </trkpt>
      <trkpt lat="45.70233" lon="5.73797">
        <ele>364.344654755</ele>
        <time>2015-12-04T11:37:18Z</time>
      </trkpt>
      <trkpt lat="45.70233" lon="5.73795">
        <ele>364.344654755</ele>
        <time>2015-12-04T11:37:19Z</time>
      </trkpt>
      <trkpt lat="45.70243" lon="5.73716">
        <ele>364.92950041</ele>
        <time>2015-12-04T11:38:09Z</time>
      </trkpt>
      <trkpt lat="45.70242" lon="5.73714">
        <ele>364.92950041</ele>
        <time>2015-12-04T11:38:09Z</time>
      </trkpt>
      <trkpt lat="45.70242" lon="5.73713">
        <ele>364.92950041</ele>
        <time>2015-12-04T11:38:10Z</time>
      </trkpt>
      <trkpt lat="45.70243" lon="5.73709">
        <ele>364.92950041</ele>
        <time>2015-12-04T11:38:11Z</time>
      </trkpt>
      <trkpt lat="45.70242" lon="5.73709">
        <ele>364.92950041</ele>
        <time>2015-12-04T11:38:14Z</time>
      </trkpt>
      <trkpt lat="45.70239" lon="5.73696">
        <ele>365.505655176</ele>
        <time>2015-12-04T11:38:25Z</time>
      </trkpt>
      <trkpt lat="45.70235" lon="5.73688">
        <ele>365.505655176</ele>
        <time>2015-12-04T11:38:30Z</time>
      </trkpt>
      <trkpt lat="45.70238" lon="5.73673">
        <ele>366.076643734</ele>
        <time>2015-12-04T11:38:39Z</time>
      </trkpt>
      <trkpt lat="45.70241" lon="5.73668">
        <ele>366.076643734</ele>
        <time>2015-12-04T11:38:45Z</time>
      </trkpt>
      <trkpt lat="45.70243" lon="5.73654">
        <ele>366.934209935</ele>
        <time>2015-12-04T11:38:54Z</time>
      </trkpt>
      <trkpt lat="45.70242" lon="5.73648">
        <ele>366.934209935</ele>
        <time>2015-12-04T11:39:00Z</time>
      </trkpt>
      <trkpt lat="45.70239" lon="5.73635">
        <ele>367.770858493</ele>
        <time>2015-12-04T11:39:10Z</time>
      </trkpt>
      <trkpt lat="45.70239" lon="5.73635">
        <ele>367.770858493</ele>
        <time>2015-12-04T11:39:14Z</time>
      </trkpt>
      <trkpt lat="45.70236" lon="5.73623">
        <ele>367.770858493</ele>
        <time>2015-12-04T11:39:25Z</time>
      </trkpt>
      <trkpt lat="45.70234" lon="5.73612">
        <ele>368.445956489</ele>
        <time>2015-12-04T11:39:38Z</time>
      </trkpt>
      <trkpt lat="45.70233" lon="5.73609">
        <ele>368.445956489</ele>
        <time>2015-12-04T11:39:46Z</time>
      </trkpt>
      <trkpt lat="45.70213" lon="5.73558">
        <ele>367.819925962</ele>
        <time>2015-12-04T11:40:19Z</time>
      </trkpt>
      <trkpt lat="45.70214" lon="5.73517">
        <ele>367.436991578</ele>
        <time>2015-12-04T11:40:52Z</time>
      </trkpt>
      <trkpt lat="45.7021" lon="5.73515">
        <ele>367.436991578</ele>
        <time>2015-12-04T11:40:52Z</time>
      </trkpt>
      <trkpt lat="45.70202" lon="5.73485">
        <ele>368.294316162</ele>
        <time>2015-12-04T11:41:19Z</time>
      </trkpt>
      <trkpt lat="45.70204" lon="5.73483">
        <ele>368.294316162</ele>
        <time>2015-12-04T11:41:29Z</time>
      </trkpt>
      <trkpt lat="45.70204" lon="5.73483">
        <ele>368.294316162</ele>
        <time>2015-12-04T11:41:35Z</time>
      </trkpt>
      <trkpt lat="45.70206" lon="5.73469">
        <ele>369.725515928</ele>
        <time>2015-12-04T11:41:49Z</time>
      </trkpt>
      <trkpt lat="45.70202" lon="5.73463">
        <ele>369.725515928</ele>
        <time>2015-12-04T11:41:54Z</time>
      </trkpt>
      <trkpt lat="45.70195" lon="5.7345">
        <ele>371.544259222</ele>
        <time>2015-12-04T11:42:04Z</time>
      </trkpt>
      <trkpt lat="45.70193" lon="5.73446">
        <ele>371.544259222</ele>
        <time>2015-12-04T11:42:10Z</time>
      </trkpt>
      <trkpt lat="45.70187" lon="5.73437">
        <ele>373.144108068</ele>
        <time>2015-12-04T11:42:20Z</time>
      </trkpt>
      <trkpt lat="45.70183" lon="5.73432">
        <ele>373.144108068</ele>
        <time>2015-12-04T11:42:24Z</time>
      </trkpt>
      <trkpt lat="45.70181" lon="5.73427">
        <ele>374.396505172</ele>
        <time>2015-12-04T11:42:29Z</time>
      </trkpt>
      <trkpt lat="45.7018" lon="5.73426">
        <ele>374.396505172</ele>
        <time>2015-12-04T11:42:33Z</time>
      </trkpt>
      <trkpt lat="45.70175" lon="5.73427">
        <ele>374.396505172</ele>
        <time>2015-12-04T11:42:40Z</time>
      </trkpt>
      <trkpt lat="45.70168" lon="5.7342">
        <ele>376.48118678</ele>
        <time>2015-12-04T11:42:49Z</time>
      </trkpt>
      <trkpt lat="45.70164" lon="5.73419">
        <ele>376.48118678</ele>
        <time>2015-12-04T11:42:53Z</time>
      </trkpt>
      <trkpt lat="45.7016" lon="5.73415">
        <ele>378.469749144</ele>
        <time>2015-12-04T11:43:04Z</time>
      </trkpt>
      <trkpt lat="45.70157" lon="5.73412">
        <ele>378.469749144</ele>
        <time>2015-12-04T11:43:10Z</time>
      </trkpt>
      <trkpt lat="45.70153" lon="5.73404">
        <ele>381.088577133</ele>
        <time>2015-12-04T11:43:20Z</time>
      </trkpt>
      <trkpt lat="45.70152" lon="5.73401">
        <ele>381.088577133</ele>
        <time>2015-12-04T11:43:24Z</time>
      </trkpt>
      <trkpt lat="45.70147" lon="5.73393">
        <ele>383.711050502</ele>
        <time>2015-12-04T11:43:34Z</time>
      </trkpt>
      <trkpt lat="45.70145" lon="5.73387">
        <ele>383.711050502</ele>
        <time>2015-12-04T11:43:40Z</time>
      </trkpt>
      <trkpt lat="45.70127" lon="5.73361">
        <ele>387.486861893</ele>
        <time>2015-12-04T11:44:11Z</time>
      </trkpt>
      <trkpt lat="45.70128" lon="5.7336">
        <ele>387.486861893</ele>
        <time>2015-12-04T11:44:11Z</time>
      </trkpt>
      <trkpt lat="45.70124" lon="5.73353">
        <ele>387.486861893</ele>
        <time>2015-12-04T11:44:20Z</time>
      </trkpt>
      <trkpt lat="45.70122" lon="5.7335">
        <ele>391.459349094</ele>
        <time>2015-12-04T11:44:20Z</time>
      </trkpt>
      <trkpt lat="45.7012" lon="5.73322">
        <ele>395.462623885</ele>
        <time>2015-12-04T11:44:40Z</time>
      </trkpt>
      <trkpt lat="45.70118" lon="5.73318">
        <ele>395.462623885</ele>
        <time>2015-12-04T11:44:44Z</time>
      </trkpt>
      <trkpt lat="45.70117" lon="5.73301">
        <ele>399.342968002</ele>
        <time>2015-12-04T11:44:54Z</time>
      </trkpt>
      <trkpt lat="45.70118" lon="5.73291">
        <ele>399.342968002</ele>
        <time>2015-12-04T11:45:00Z</time>
      </trkpt>
      <trkpt lat="45.70118" lon="5.73274">
        <ele>403.679151198</ele>
        <time>2015-12-04T11:45:10Z</time>
      </trkpt>
      <trkpt lat="45.70115" lon="5.7327">
        <ele>403.679151198</ele>
        <time>2015-12-04T11:45:14Z</time>
      </trkpt>
      <trkpt lat="45.70117" lon="5.73266">
        <ele>403.679151198</ele>
        <time>2015-12-04T11:45:19Z</time>
      </trkpt>
      <trkpt lat="45.70119" lon="5.73265">
        <ele>407.852945519</ele>
        <time>2015-12-04T11:45:23Z</time>
      </trkpt>
      <trkpt lat="45.7012" lon="5.73264">
        <ele>407.852945519</ele>
        <time>2015-12-04T11:45:29Z</time>
      </trkpt>
      <trkpt lat="45.70121" lon="5.73261">
        <ele>407.852945519</ele>
        <time>2015-12-04T11:45:35Z</time>
      </trkpt>
      <trkpt lat="45.70121" lon="5.73261">
        <ele>407.852945519</ele>
        <time>2015-12-04T11:45:44Z</time>
      </trkpt>
      <trkpt lat="45.70117" lon="5.73267">
        <ele>407.852945519</ele>
        <time>2015-12-04T11:45:49Z</time>
      </trkpt>
      <trkpt lat="45.70107" lon="5.73271">
        <ele>412.157034713</ele>
        <time>2015-12-04T11:45:59Z</time>
      </trkpt>
      <trkpt lat="45.70105" lon="5.73273">
        <ele>412.157034713</ele>
        <time>2015-12-04T11:46:05Z</time>
      </trkpt>
      <trkpt lat="45.70101" lon="5.73286">
        <ele>416.862302517</ele>
        <time>2015-12-04T11:46:15Z</time>
      </trkpt>
      <trkpt lat="45.70097" lon="5.73294">
        <ele>416.862302517</ele>
        <time>2015-12-04T11:46:20Z</time>
      </trkpt>
      <trkpt lat="45.7009" lon="5.73314">
        <ele>421.498035168</ele>
        <time>2015-12-04T11:46:34Z</time>
      </trkpt>
      <trkpt lat="45.70083" lon="5.73317">
        <ele>421.498035168</ele>
        <time>2015-12-04T11:46:40Z</time>
      </trkpt>
      <trkpt lat="45.70058" lon="5.73305">
        <ele>425.628483895</ele>
        <time>2015-12-04T11:47:03Z</time>
      </trkpt>
      <trkpt lat="45.70057" lon="5.73304">
        <ele>425.628483895</ele>
        <time>2015-12-04T11:47:03Z</time>
      </trkpt>
      <trkpt lat="45.7005" lon="5.73304">
        <ele>425.628483895</ele>
        <time>2015-12-04T11:47:08Z</time>
      </trkpt>
      <trkpt lat="45.70045" lon="5.73305">
        <ele>429.860397098</ele>
        <time>2015-12-04T11:47:13Z</time>
      </trkpt>
      <trkpt lat="45.70041" lon="5.73308">
        <ele>429.860397098</ele>
        <time>2015-12-04T11:47:18Z</time>
      </trkpt>
      <trkpt lat="45.70029" lon="5.73312">
        <ele>433.314543158</ele>
        <time>2015-12-04T11:47:28Z</time>
      </trkpt>
      <trkpt lat="45.70021" lon="5.73318">
        <ele>436.043408145</ele>
        <time>2015-12-04T11:47:33Z</time>
      </trkpt>
      <trkpt lat="45.70008" lon="5.73325">
        <ele>438.241930138</ele>
        <time>2015-12-04T11:47:43Z</time>
      </trkpt>
      <trkpt lat="45.70003" lon="5.73323">
        <ele>438.241930138</ele>
        <time>2015-12-04T11:47:48Z</time>
      </trkpt>
      <trkpt lat="45.70004" lon="5.73312">
        <ele>440.81294689</ele>
        <time>2015-12-04T11:47:58Z</time>
      </trkpt>
      <trkpt lat="45.70003" lon="5.73311">
        <ele>440.81294689</ele>
        <time>2015-12-04T11:48:03Z</time>
      </trkpt>
      <trkpt lat="45.69991" lon="5.7331">
        <ele>442.862665884</ele>
        <time>2015-12-04T11:48:18Z</time>
      </trkpt>
      <trkpt lat="45.69991" lon="5.7331">
        <ele>442.862665884</ele>
        <time>2015-12-04T11:48:23Z</time>
      </trkpt>
      <trkpt lat="45.69989" lon="5.73307">
        <ele>442.862665884</ele>
        <time>2015-12-04T11:48:31Z</time>
      </trkpt>
      <trkpt lat="45.69989" lon="5.73307">
        <ele>442.862665884</ele>
        <time>2015-12-04T11:48:36Z</time>
      </trkpt>
      <trkpt lat="45.69989" lon="5.73307">
        <ele>442.862665884</ele>
        <time>2015-12-04T11:48:38Z</time>
      </trkpt>
      <trkpt lat="45.69992" lon="5.73306">
        <ele>442.862665884</ele>
        <time>2015-12-04T11:48:48Z</time>
      </trkpt>
      <trkpt lat="45.69996" lon="5.73304">
        <ele>444.717506558</ele>
        <time>2015-12-04T11:49:09Z</time>
      </trkpt>
      <trkpt lat="45.69996" lon="5.73304">
        <ele>444.717506558</ele>
        <time>2015-12-04T11:49:32Z</time>
      </trkpt>
      <trkpt lat="45.69996" lon="5.73304">
        <ele>444.717506558</ele>
        <time>2015-12-04T11:49:33Z</time>
      </trkpt>
      <trkpt lat="45.69999" lon="5.73303">
        <ele>444.717506558</ele>
        <time>2015-12-04T11:49:44Z</time>
      </trkpt>
      <trkpt lat="45.7" lon="5.73303">
        <ele>444.717506558</ele>
        <time>2015-12-04T11:49:50Z</time>
      </trkpt>
      <trkpt lat="45.7" lon="5.73302">
        <ele>444.717506558</ele>
        <time>2015-12-04T11:50:00Z</time>
      </trkpt>
      <trkpt lat="45.7" lon="5.73302">
        <ele>444.717506558</ele>
        <time>2015-12-04T11:50:04Z</time>
      </trkpt>
      <trkpt lat="45.7" lon="5.73302">
        <ele>444.717506558</ele>
        <time>2015-12-04T11:50:14Z</time>
      </trkpt>
      <trkpt lat="45.7" lon="5.73302">
        <ele>444.717506558</ele>
        <time>2015-12-04T11:50:19Z</time>
      </trkpt>
      <trkpt lat="45.7" lon="5.73302">
        <ele>444.717506558</ele>
        <time>2015-12-04T11:50:29Z</time>
      </trkpt>
      <trkpt lat="45.7" lon="5.73302">
        <ele>444.717506558</ele>
        <time>2015-12-04T11:50:34Z</time>
      </trkpt>
      <trkpt lat="45.7" lon="5.73302">
        <ele>444.717506558</ele>
        <time>2015-12-04T11:50:49Z</time>
      </trkpt>
      <trkpt lat="45.70001" lon="5.73303">
        <ele>444.717506558</ele>
        <time>2015-12-04T11:50:53Z</time>
      </trkpt>
      <trkpt lat="45.70001" lon="5.73304">
        <ele>444.717506558</ele>
        <time>2015-12-04T11:50:58Z</time>
      </trkpt>
      <trkpt lat="45.7" lon="5.73303">
        <ele>444.717506558</ele>
        <time>2015-12-04T11:51:03Z</time>
      </trkpt>
      <trkpt lat="45.70001" lon="5.73303">
        <ele>444.717506558</ele>
        <time>2015-12-04T11:51:08Z</time>
      </trkpt>
      <trkpt lat="45.70001" lon="5.73303">
        <ele>444.717506558</ele>
        <time>2015-12-04T11:51:13Z</time>
      </trkpt>
      <trkpt lat="45.70001" lon="5.73303">
        <ele>444.717506558</ele>
        <time>2015-12-04T11:51:23Z</time>
      </trkpt>
      <trkpt lat="45.70001" lon="5.73303">
        <ele>444.717506558</ele>
        <time>2015-12-04T11:51:28Z</time>
      </trkpt>
      <trkpt lat="45.70001" lon="5.73303">
        <ele>444.717506558</ele>
        <time>2015-12-04T11:51:33Z</time>
      </trkpt>
      <trkpt lat="45.70001" lon="5.73302">
        <ele>444.717506558</ele>
        <time>2015-12-04T11:51:38Z</time>
      </trkpt>
      <trkpt lat="45.70001" lon="5.73302">
        <ele>444.717506558</ele>
        <time>2015-12-04T11:51:43Z</time>
      </trkpt>
      <trkpt lat="45.70001" lon="5.73302">
        <ele>444.717506558</ele>
        <time>2015-12-04T11:51:48Z</time>
      </trkpt>
      <trkpt lat="45.70001" lon="5.73302">
        <ele>444.717506558</ele>
        <time>2015-12-04T11:51:53Z</time>
      </trkpt>
      <trkpt lat="45.70001" lon="5.73304">
        <ele>446.24824348</ele>
        <time>2015-12-04T11:51:58Z</time>
      </trkpt>
      <trkpt lat="45.70001" lon="5.73303">
        <ele>446.24824348</ele>
        <time>2015-12-04T11:52:03Z</time>
      </trkpt>
      <trkpt lat="45.70001" lon="5.73304">
        <ele>446.24824348</ele>
        <time>2015-12-04T11:52:14Z</time>
      </trkpt>
      <trkpt lat="45.7" lon="5.73304">
        <ele>446.24824348</ele>
        <time>2015-12-04T11:52:19Z</time>
      </trkpt>
      <trkpt lat="45.70001" lon="5.73304">
        <ele>446.24824348</ele>
        <time>2015-12-04T11:52:28Z</time>
      </trkpt>
      <trkpt lat="45.7" lon="5.73303">
        <ele>446.24824348</ele>
        <time>2015-12-04T11:52:34Z</time>
      </trkpt>
      <trkpt lat="45.70001" lon="5.73301">
        <ele>446.24824348</ele>
        <time>2015-12-04T11:52:44Z</time>
      </trkpt>
      <trkpt lat="45.70001" lon="5.73299">
        <ele>446.24824348</ele>
        <time>2015-12-04T11:52:48Z</time>
      </trkpt>
      <trkpt lat="45.70003" lon="5.73299">
        <ele>446.24824348</ele>
        <time>2015-12-04T11:52:58Z</time>
      </trkpt>
      <trkpt lat="45.70007" lon="5.73296">
        <ele>447.336179923</ele>
        <time>2015-12-04T11:53:03Z</time>
      </trkpt>
      <trkpt lat="45.7002" lon="5.73284">
        <ele>448.016803802</ele>
        <time>2015-12-04T11:53:18Z</time>
      </trkpt>
      <trkpt lat="45.70024" lon="5.73274">
        <ele>448.016803802</ele>
        <time>2015-12-04T11:53:30Z</time>
      </trkpt>
      <trkpt lat="45.7003" lon="5.73268">
        <ele>449.188907157</ele>
        <time>2015-12-04T11:53:34Z</time>
      </trkpt>
      <trkpt lat="45.70038" lon="5.73262">
        <ele>449.954603738</ele>
        <time>2015-12-04T11:53:44Z</time>
      </trkpt>
      <trkpt lat="45.70044" lon="5.73252">
        <ele>451.212519545</ele>
        <time>2015-12-04T11:53:52Z</time>
      </trkpt>
      <trkpt lat="45.70051" lon="5.73242">
        <ele>452.06458222</ele>
        <time>2015-12-04T11:54:04Z</time>
      </trkpt>
      <trkpt lat="45.70064" lon="5.73223">
        <ele>453.409215398</ele>
        <time>2015-12-04T11:54:22Z</time>
      </trkpt>
      <trkpt lat="45.70075" lon="5.73205">
        <ele>454.924582384</ele>
        <time>2015-12-04T11:54:41Z</time>
      </trkpt>
      <trkpt lat="45.70076" lon="5.73204">
        <ele>454.924582384</ele>
        <time>2015-12-04T11:54:41Z</time>
      </trkpt>
      <trkpt lat="45.70088" lon="5.73196">
        <ele>456.744359818</ele>
        <time>2015-12-04T11:54:50Z</time>
      </trkpt>
      <trkpt lat="45.70091" lon="5.73193">
        <ele>456.744359818</ele>
        <time>2015-12-04T11:54:55Z</time>
      </trkpt>
      <trkpt lat="45.70093" lon="5.73189">
        <ele>456.744359818</ele>
        <time>2015-12-04T11:54:59Z</time>
      </trkpt>
      <trkpt lat="45.70099" lon="5.73181">
        <ele>458.415099774</ele>
        <time>2015-12-04T11:55:10Z</time>
      </trkpt>
      <trkpt lat="45.701" lon="5.73178">
        <ele>458.415099774</ele>
        <time>2015-12-04T11:55:14Z</time>
      </trkpt>
      <trkpt lat="45.70105" lon="5.73168">
        <ele>459.517076935</ele>
        <time>2015-12-04T11:55:24Z</time>
      </trkpt>
      <trkpt lat="45.70108" lon="5.7316">
        <ele>459.517076935</ele>
        <time>2015-12-04T11:55:30Z</time>
      </trkpt>
      <trkpt lat="45.70115" lon="5.73146">
        <ele>461.104125939</ele>
        <time>2015-12-04T11:55:39Z</time>
      </trkpt>
      <trkpt lat="45.70117" lon="5.73138">
        <ele>461.104125939</ele>
        <time>2015-12-04T11:55:45Z</time>
      </trkpt>
      <trkpt lat="45.70119" lon="5.73118">
        <ele>461.845463769</ele>
        <time>2015-12-04T11:55:54Z</time>
      </trkpt>
      <trkpt lat="45.70124" lon="5.73095">
        <ele>462.239785392</ele>
        <time>2015-12-04T11:56:08Z</time>
      </trkpt>
      <trkpt lat="45.70135" lon="5.73062">
        <ele>462.605977907</ele>
        <time>2015-12-04T11:56:30Z</time>
      </trkpt>
      <trkpt lat="45.70135" lon="5.73061">
        <ele>462.605977907</ele>
        <time>2015-12-04T11:56:31Z</time>
      </trkpt>
      <trkpt lat="45.70136" lon="5.73059">
        <ele>462.605977907</ele>
        <time>2015-12-04T11:56:33Z</time>
      </trkpt>
      <trkpt lat="45.70137" lon="5.73054">
        <ele>462.605977907</ele>
        <time>2015-12-04T11:56:35Z</time>
      </trkpt>
      <trkpt lat="45.70137" lon="5.73052">
        <ele>462.605977907</ele>
        <time>2015-12-04T11:56:36Z</time>
      </trkpt>
      <trkpt lat="45.70145" lon="5.73033">
        <ele>462.807192613</ele>
        <time>2015-12-04T11:56:49Z</time>
      </trkpt>
      <trkpt lat="45.70155" lon="5.73007">
        <ele>462.284693022</ele>
        <time>2015-12-04T11:57:08Z</time>
      </trkpt>
      <trkpt lat="45.70155" lon="5.73005">
        <ele>462.284693022</ele>
        <time>2015-12-04T11:57:08Z</time>
      </trkpt>
      <trkpt lat="45.70163" lon="5.72989">
        <ele>462.108009227</ele>
        <time>2015-12-04T11:57:25Z</time>
      </trkpt>
      <trkpt lat="45.70165" lon="5.72979">
        <ele>462.108009227</ele>
        <time>2015-12-04T11:57:26Z</time>
      </trkpt>
      <trkpt lat="45.70188" lon="5.72954">
        <ele>461.681782489</ele>
        <time>2015-12-04T11:57:49Z</time>
      </trkpt>
      <trkpt lat="45.70198" lon="5.7293">
        <ele>461.752023299</ele>
        <time>2015-12-04T11:58:05Z</time>
      </trkpt>
      <trkpt lat="45.70201" lon="5.72919">
        <ele>461.752023299</ele>
        <time>2015-12-04T11:58:14Z</time>
      </trkpt>
      <trkpt lat="45.70202" lon="5.72919">
        <ele>461.855516024</ele>
        <time>2015-12-04T11:58:14Z</time>
      </trkpt>
      <trkpt lat="45.70217" lon="5.72891">
        <ele>462.427547553</ele>
        <time>2015-12-04T11:58:36Z</time>
      </trkpt>
      <trkpt lat="45.70219" lon="5.72891">
        <ele>462.427547553</ele>
        <time>2015-12-04T11:58:36Z</time>
      </trkpt>
      <trkpt lat="45.70221" lon="5.72891">
        <ele>462.427547553</ele>
        <time>2015-12-04T11:58:37Z</time>
      </trkpt>
      <trkpt lat="45.70221" lon="5.7289">
        <ele>462.427547553</ele>
        <time>2015-12-04T11:58:38Z</time>
      </trkpt>
      <trkpt lat="45.70225" lon="5.72886">
        <ele>462.428840417</ele>
        <time>2015-12-04T11:58:45Z</time>
      </trkpt>
      <trkpt lat="45.70231" lon="5.72885">
        <ele>462.428840417</ele>
        <time>2015-12-04T11:58:54Z</time>
      </trkpt>
      <trkpt lat="45.70231" lon="5.72884">
        <ele>462.428840417</ele>
        <time>2015-12-04T11:58:55Z</time>
      </trkpt>
      <trkpt lat="45.70239" lon="5.72878">
        <ele>462.483191283</ele>
        <time>2015-12-04T11:59:02Z</time>
      </trkpt>
      <trkpt lat="45.7026" lon="5.72869">
        <ele>462.303598096</ele>
        <time>2015-12-04T11:59:17Z</time>
      </trkpt>
      <trkpt lat="45.70264" lon="5.7287">
        <ele>462.303598096</ele>
        <time>2015-12-04T11:59:18Z</time>
      </trkpt>
      <trkpt lat="45.70276" lon="5.72861">
        <ele>462.201111532</ele>
        <time>2015-12-04T11:59:28Z</time>
      </trkpt>
      <trkpt lat="45.70276" lon="5.72863">
        <ele>462.201111532</ele>
        <time>2015-12-04T11:59:33Z</time>
      </trkpt>
      <trkpt lat="45.70277" lon="5.72863">
        <ele>462.201111532</ele>
        <time>2015-12-04T11:59:43Z</time>
      </trkpt>
      <trkpt lat="45.70278" lon="5.72864">
        <ele>462.201111532</ele>
        <time>2015-12-04T11:59:48Z</time>
      </trkpt>
      <trkpt lat="45.7028" lon="5.72865">
        <ele>462.201111532</ele>
        <time>2015-12-04T12:00:00Z</time>
      </trkpt>
      <trkpt lat="45.7028" lon="5.72866">
        <ele>462.201111532</ele>
        <time>2015-12-04T12:00:03Z</time>
      </trkpt>
      <trkpt lat="45.7028" lon="5.72865">
        <ele>462.201111532</ele>
        <time>2015-12-04T12:00:13Z</time>
      </trkpt>
      <trkpt lat="45.70281" lon="5.72861">
        <ele>461.742997087</ele>
        <time>2015-12-04T12:00:19Z</time>
      </trkpt>
      <trkpt lat="45.70292" lon="5.7285">
        <ele>461.393834699</ele>
        <time>2015-12-04T12:00:30Z</time>
      </trkpt>
      <trkpt lat="45.70293" lon="5.72848">
        <ele>461.393834699</ele>
        <time>2015-12-04T12:00:34Z</time>
      </trkpt>
      <trkpt lat="45.70299" lon="5.72832">
        <ele>460.863041747</ele>
        <time>2015-12-04T12:00:45Z</time>
      </trkpt>
      <trkpt lat="45.70302" lon="5.72822">
        <ele>460.863041747</ele>
        <time>2015-12-04T12:00:49Z</time>
      </trkpt>
      <trkpt lat="45.70315" lon="5.72816">
        <ele>461.0346325</ele>
        <time>2015-12-04T12:01:00Z</time>
      </trkpt>
      <trkpt lat="45.70318" lon="5.7281">
        <ele>461.0346325</ele>
        <time>2015-12-04T12:01:04Z</time>
      </trkpt>
      <trkpt lat="45.70347" lon="5.7277">
        <ele>460.996185277</ele>
        <time>2015-12-04T12:01:41Z</time>
      </trkpt>
      <trkpt lat="45.70355" lon="5.72752">
        <ele>461.632081856</ele>
        <time>2015-12-04T12:01:53Z</time>
      </trkpt>
      <trkpt lat="45.70355" lon="5.72748">
        <ele>461.632081856</ele>
        <time>2015-12-04T12:01:54Z</time>
      </trkpt>
      <trkpt lat="45.70355" lon="5.72747">
        <ele>461.632081856</ele>
        <time>2015-12-04T12:01:55Z</time>
      </trkpt>
      <trkpt lat="45.70358" lon="5.72733">
        <ele>462.318550889</ele>
        <time>2015-12-04T12:02:09Z</time>
      </trkpt>
      <trkpt lat="45.70357" lon="5.72723">
        <ele>462.318550889</ele>
        <time>2015-12-04T12:02:14Z</time>
      </trkpt>
      <trkpt lat="45.70356" lon="5.7271">
        <ele>462.621453561</ele>
        <time>2015-12-04T12:02:24Z</time>
      </trkpt>
      <trkpt lat="45.70359" lon="5.72697">
        <ele>463.580584342</ele>
        <time>2015-12-04T12:02:29Z</time>
      </trkpt>
      <trkpt lat="45.70362" lon="5.72683">
        <ele>463.995678643</ele>
        <time>2015-12-04T12:02:40Z</time>
      </trkpt>
      <trkpt lat="45.70364" lon="5.72672">
        <ele>463.995678643</ele>
        <time>2015-12-04T12:02:45Z</time>
      </trkpt>
      <trkpt lat="45.70364" lon="5.72654">
        <ele>464.341257455</ele>
        <time>2015-12-04T12:02:55Z</time>
      </trkpt>
      <trkpt lat="45.70364" lon="5.72647">
        <ele>464.341257455</ele>
        <time>2015-12-04T12:03:00Z</time>
      </trkpt>
      <trkpt lat="45.70364" lon="5.7264">
        <ele>464.624700793</ele>
        <time>2015-12-04T12:03:09Z</time>
      </trkpt>
      <trkpt lat="45.7036" lon="5.72628">
        <ele>464.8528843</ele>
        <time>2015-12-04T12:03:14Z</time>
      </trkpt>
      <trkpt lat="45.70358" lon="5.72623">
        <ele>464.8528843</ele>
        <time>2015-12-04T12:03:19Z</time>
      </trkpt>
      <trkpt lat="45.70354" lon="5.72599">
        <ele>465.320424072</ele>
        <time>2015-12-04T12:03:29Z</time>
      </trkpt>
      <trkpt lat="45.70353" lon="5.72597">
        <ele>465.320424072</ele>
        <time>2015-12-04T12:03:29Z</time>
      </trkpt>
      <trkpt lat="45.70347" lon="5.72579">
        <ele>466.58771765</ele>
        <time>2015-12-04T12:03:44Z</time>
      </trkpt>
      <trkpt lat="45.70342" lon="5.72578">
        <ele>466.58771765</ele>
        <time>2015-12-04T12:03:47Z</time>
      </trkpt>
      <trkpt lat="45.70341" lon="5.72578">
        <ele>466.58771765</ele>
        <time>2015-12-04T12:03:48Z</time>
      </trkpt>
      <trkpt lat="45.70337" lon="5.72577">
        <ele>467.154070494</ele>
        <time>2015-12-04T12:03:51Z</time>
      </trkpt>
      <trkpt lat="45.70331" lon="5.72573">
        <ele>467.154070494</ele>
        <time>2015-12-04T12:04:00Z</time>
      </trkpt>
      <trkpt lat="45.70328" lon="5.72572">
        <ele>467.792552368</ele>
        <time>2015-12-04T12:04:01Z</time>
      </trkpt>
      <trkpt lat="45.70326" lon="5.72567">
        <ele>467.792552368</ele>
        <time>2015-12-04T12:04:07Z</time>
      </trkpt>
      <trkpt lat="45.7032" lon="5.72553">
        <ele>468.78679939</ele>
        <time>2015-12-04T12:04:18Z</time>
      </trkpt>
      <trkpt lat="45.70322" lon="5.72544">
        <ele>468.78679939</ele>
        <time>2015-12-04T12:04:33Z</time>
      </trkpt>
      <trkpt lat="45.70323" lon="5.72544">
        <ele>468.78679939</ele>
        <time>2015-12-04T12:04:39Z</time>
      </trkpt>
      <trkpt lat="45.70335" lon="5.72527">
        <ele>469.822069425</ele>
        <time>2015-12-04T12:04:59Z</time>
      </trkpt>
      <trkpt lat="45.70335" lon="5.7252">
        <ele>469.822069425</ele>
        <time>2015-12-04T12:05:12Z</time>
      </trkpt>
      <trkpt lat="45.70336" lon="5.72518">
        <ele>469.822069425</ele>
        <time>2015-12-04T12:05:14Z</time>
      </trkpt>
      <trkpt lat="45.70348" lon="5.72506">
        <ele>470.606534295</ele>
        <time>2015-12-04T12:05:29Z</time>
      </trkpt>
      <trkpt lat="45.70349" lon="5.72505">
        <ele>470.606534295</ele>
        <time>2015-12-04T12:05:30Z</time>
      </trkpt>
      <trkpt lat="45.70352" lon="5.72506">
        <ele>470.606534295</ele>
        <time>2015-12-04T12:05:46Z</time>
      </trkpt>
      <trkpt lat="45.70352" lon="5.72506">
        <ele>470.606534295</ele>
        <time>2015-12-04T12:06:04Z</time>
      </trkpt>
      <trkpt lat="45.70352" lon="5.72506">
        <ele>470.606534295</ele>
        <time>2015-12-04T12:06:19Z</time>
      </trkpt>
      <trkpt lat="45.70352" lon="5.72506">
        <ele>470.606534295</ele>
        <time>2015-12-04T12:06:23Z</time>
      </trkpt>
      <trkpt lat="45.70352" lon="5.72506">
        <ele>470.606534295</ele>
        <time>2015-12-04T12:06:33Z</time>
      </trkpt>
      <trkpt lat="45.70352" lon="5.72506">
        <ele>470.606534295</ele>
        <time>2015-12-04T12:06:38Z</time>
      </trkpt>
      <trkpt lat="45.70352" lon="5.72506">
        <ele>470.606534295</ele>
        <time>2015-12-04T12:06:48Z</time>
      </trkpt>
      <trkpt lat="45.70352" lon="5.72506">
        <ele>470.606534295</ele>
        <time>2015-12-04T12:06:53Z</time>
      </trkpt>
      <trkpt lat="45.70352" lon="5.72506">
        <ele>470.606534295</ele>
        <time>2015-12-04T12:07:03Z</time>
      </trkpt>
      <trkpt lat="45.70352" lon="5.72506">
        <ele>470.606534295</ele>
        <time>2015-12-04T12:07:08Z</time>
      </trkpt>
      <trkpt lat="45.70352" lon="5.72506">
        <ele>470.606534295</ele>
        <time>2015-12-04T12:07:18Z</time>
      </trkpt>
      <trkpt lat="45.70352" lon="5.72506">
        <ele>470.606534295</ele>
        <time>2015-12-04T12:07:24Z</time>
      </trkpt>
      <trkpt lat="45.70352" lon="5.72506">
        <ele>470.606534295</ele>
        <time>2015-12-04T12:07:34Z</time>
      </trkpt>
      <trkpt lat="45.70352" lon="5.72506">
        <ele>470.606534295</ele>
        <time>2015-12-04T12:07:39Z</time>
      </trkpt>
      <trkpt lat="45.70348" lon="5.72507">
        <ele>470.606534295</ele>
        <time>2015-12-04T12:07:48Z</time>
      </trkpt>
      <trkpt lat="45.70345" lon="5.7251">
        <ele>470.72631008</ele>
        <time>2015-12-04T12:07:55Z</time>
      </trkpt>
      <trkpt lat="45.70337" lon="5.72517">
        <ele>470.72631008</ele>
        <time>2015-12-04T12:08:05Z</time>
      </trkpt>
      <trkpt lat="45.70335" lon="5.72523">
        <ele>470.952590614</ele>
        <time>2015-12-04T12:08:10Z</time>
      </trkpt>
      <trkpt lat="45.70326" lon="5.72531">
        <ele>471.423097998</ele>
        <time>2015-12-04T12:08:24Z</time>
      </trkpt>
      <trkpt lat="45.70312" lon="5.72526">
        <ele>472.552902152</ele>
        <time>2015-12-04T12:08:39Z</time>
      </trkpt>
      <trkpt lat="45.70308" lon="5.72525">
        <ele>472.552902152</ele>
        <time>2015-12-04T12:08:45Z</time>
      </trkpt>
      <trkpt lat="45.70276" lon="5.72522">
        <ele>472.562994747</ele>
        <time>2015-12-04T12:09:11Z</time>
      </trkpt>
      <trkpt lat="45.70255" lon="5.7249">
        <ele>473.410908317</ele>
        <time>2015-12-04T12:09:40Z</time>
      </trkpt>
      <trkpt lat="45.70254" lon="5.72488">
        <ele>473.410908317</ele>
        <time>2015-12-04T12:09:46Z</time>
      </trkpt>
      <trkpt lat="45.7025" lon="5.72471">
        <ele>474.313963796</ele>
        <time>2015-12-04T12:09:54Z</time>
      </trkpt>
      <trkpt lat="45.70236" lon="5.72448">
        <ele>475.411435032</ele>
        <time>2015-12-04T12:10:12Z</time>
      </trkpt>
      <trkpt lat="45.70233" lon="5.72442">
        <ele>475.411435032</ele>
        <time>2015-12-04T12:10:16Z</time>
      </trkpt>
      <trkpt lat="45.70226" lon="5.72427">
        <ele>476.975882599</ele>
        <time>2015-12-04T12:10:28Z</time>
      </trkpt>
      <trkpt lat="45.70223" lon="5.7242">
        <ele>476.975882599</ele>
        <time>2015-12-04T12:10:33Z</time>
      </trkpt>
      <trkpt lat="45.7021" lon="5.72391">
        <ele>478.249716258</ele>
        <time>2015-12-04T12:10:55Z</time>
      </trkpt>
      <trkpt lat="45.7021" lon="5.72389">
        <ele>478.249716258</ele>
        <time>2015-12-04T12:11:00Z</time>
      </trkpt>
      <trkpt lat="45.70208" lon="5.72383">
        <ele>478.249716258</ele>
        <time>2015-12-04T12:11:04Z</time>
      </trkpt>
      <trkpt lat="45.70198" lon="5.72361">
        <ele>480.117006207</ele>
        <time>2015-12-04T12:11:24Z</time>
      </trkpt>
      <trkpt lat="45.70189" lon="5.7234">
        <ele>481.233524608</ele>
        <time>2015-12-04T12:11:35Z</time>
      </trkpt>
      <trkpt lat="45.70186" lon="5.72333">
        <ele>481.233524608</ele>
        <time>2015-12-04T12:11:39Z</time>
      </trkpt>
      <trkpt lat="45.70183" lon="5.72285">
        <ele>481.941106161</ele>
        <time>2015-12-04T12:12:05Z</time>
      </trkpt>
      <trkpt lat="45.70183" lon="5.72284">
        <ele>481.941106161</ele>
        <time>2015-12-04T12:12:05Z</time>
      </trkpt>
      <trkpt lat="45.70183" lon="5.72283">
        <ele>481.941106161</ele>
        <time>2015-12-04T12:12:06Z</time>
      </trkpt>
      <trkpt lat="45.70183" lon="5.72283">
        <ele>481.941106161</ele>
        <time>2015-12-04T12:12:07Z</time>
      </trkpt>
      <trkpt lat="45.70184" lon="5.72283">
        <ele>481.941106161</ele>
        <time>2015-12-04T12:12:08Z</time>
      </trkpt>
      <trkpt lat="45.70184" lon="5.72282">
        <ele>481.941106161</ele>
        <time>2015-12-04T12:12:09Z</time>
      </trkpt>
      <trkpt lat="45.70182" lon="5.72258">
        <ele>482.701725916</ele>
        <time>2015-12-04T12:12:27Z</time>
      </trkpt>
      <trkpt lat="45.7018" lon="5.72257">
        <ele>482.701725916</ele>
        <time>2015-12-04T12:12:28Z</time>
      </trkpt>
      <trkpt lat="45.70167" lon="5.72246">
        <ele>483.943271735</ele>
        <time>2015-12-04T12:12:39Z</time>
      </trkpt>
      <trkpt lat="45.70162" lon="5.72249">
        <ele>483.943271735</ele>
        <time>2015-12-04T12:12:45Z</time>
      </trkpt>
      <trkpt lat="45.70157" lon="5.72263">
        <ele>485.196184063</ele>
        <time>2015-12-04T12:12:55Z</time>
      </trkpt>
      <trkpt lat="45.70153" lon="5.72265">
        <ele>485.196184063</ele>
        <time>2015-12-04T12:13:00Z</time>
      </trkpt>
      <trkpt lat="45.70142" lon="5.72267">
        <ele>486.890039001</ele>
        <time>2015-12-04T12:13:10Z</time>
      </trkpt>
      <trkpt lat="45.70138" lon="5.72266">
        <ele>486.890039001</ele>
        <time>2015-12-04T12:13:14Z</time>
      </trkpt>
      <trkpt lat="45.70134" lon="5.7226">
        <ele>487.548183429</ele>
        <time>2015-12-04T12:13:24Z</time>
      </trkpt>
      <trkpt lat="45.70133" lon="5.72255">
        <ele>487.548183429</ele>
        <time>2015-12-04T12:13:30Z</time>
      </trkpt>
      <trkpt lat="45.7013" lon="5.7224">
        <ele>488.255250052</ele>
        <time>2015-12-04T12:13:39Z</time>
      </trkpt>
      <trkpt lat="45.70126" lon="5.72232">
        <ele>488.255250052</ele>
        <time>2015-12-04T12:13:45Z</time>
      </trkpt>
      <trkpt lat="45.70122" lon="5.72221">
        <ele>488.430850306</ele>
        <time>2015-12-04T12:13:58Z</time>
      </trkpt>
      <trkpt lat="45.70114" lon="5.72187">
        <ele>488.691627648</ele>
        <time>2015-12-04T12:14:17Z</time>
      </trkpt>
      <trkpt lat="45.70113" lon="5.72185">
        <ele>488.691627648</ele>
        <time>2015-12-04T12:14:17Z</time>
      </trkpt>
      <trkpt lat="45.70116" lon="5.72177">
        <ele>488.691627648</ele>
        <time>2015-12-04T12:14:30Z</time>
      </trkpt>
      <trkpt lat="45.70116" lon="5.72176">
        <ele>488.691627648</ele>
        <time>2015-12-04T12:14:33Z</time>
      </trkpt>
      <trkpt lat="45.70116" lon="5.72172">
        <ele>488.88814508</ele>
        <time>2015-12-04T12:14:45Z</time>
      </trkpt>
      <trkpt lat="45.70115" lon="5.72171">
        <ele>488.88814508</ele>
        <time>2015-12-04T12:14:49Z</time>
      </trkpt>
      <trkpt lat="45.70115" lon="5.72171">
        <ele>488.88814508</ele>
        <time>2015-12-04T12:15:00Z</time>
      </trkpt>
      <trkpt lat="45.70115" lon="5.72171">
        <ele>488.88814508</ele>
        <time>2015-12-04T12:15:04Z</time>
      </trkpt>
      <trkpt lat="45.70115" lon="5.72171">
        <ele>488.88814508</ele>
        <time>2015-12-04T12:15:15Z</time>
      </trkpt>
      <trkpt lat="45.70115" lon="5.72171">
        <ele>488.88814508</ele>
        <time>2015-12-04T12:15:19Z</time>
      </trkpt>
      <trkpt lat="45.70115" lon="5.72171">
        <ele>488.88814508</ele>
        <time>2015-12-04T12:15:28Z</time>
      </trkpt>
      <trkpt lat="45.70115" lon="5.72171">
        <ele>488.88814508</ele>
        <time>2015-12-04T12:15:33Z</time>
      </trkpt>
      <trkpt lat="45.70115" lon="5.72171">
        <ele>488.88814508</ele>
        <time>2015-12-04T12:15:44Z</time>
      </trkpt>
      <trkpt lat="45.70115" lon="5.72171">
        <ele>488.88814508</ele>
        <time>2015-12-04T12:15:48Z</time>
      </trkpt>
      <trkpt lat="45.70116" lon="5.72173">
        <ele>488.88814508</ele>
        <time>2015-12-04T12:15:59Z</time>
      </trkpt>
      <trkpt lat="45.70116" lon="5.7217">
        <ele>488.88814508</ele>
        <time>2015-12-04T12:16:04Z</time>
      </trkpt>
      <trkpt lat="45.70115" lon="5.7217">
        <ele>488.88814508</ele>
        <time>2015-12-04T12:16:13Z</time>
      </trkpt>
      <trkpt lat="45.70115" lon="5.72171">
        <ele>488.88814508</ele>
        <time>2015-12-04T12:16:18Z</time>
      </trkpt>
      <trkpt lat="45.70115" lon="5.7218">
        <ele>489.458578632</ele>
        <time>2015-12-04T12:16:29Z</time>
      </trkpt>
      <trkpt lat="45.70114" lon="5.72186">
        <ele>489.458578632</ele>
        <time>2015-12-04T12:16:33Z</time>
      </trkpt>
      <trkpt lat="45.70108" lon="5.72188">
        <ele>489.65498378</ele>
        <time>2015-12-04T12:16:44Z</time>
      </trkpt>
      <trkpt lat="45.70101" lon="5.72188">
        <ele>489.65498378</ele>
        <time>2015-12-04T12:16:50Z</time>
      </trkpt>
      <trkpt lat="45.70081" lon="5.72189">
        <ele>489.650079597</ele>
        <time>2015-12-04T12:17:05Z</time>
      </trkpt>
      <trkpt lat="45.70077" lon="5.72188">
        <ele>489.650079597</ele>
        <time>2015-12-04T12:17:09Z</time>
      </trkpt>
      <trkpt lat="45.70072" lon="5.72188">
        <ele>489.650079597</ele>
        <time>2015-12-04T12:17:14Z</time>
      </trkpt>
      <trkpt lat="45.70068" lon="5.72192">
        <ele>489.748573096</ele>
        <time>2015-12-04T12:17:20Z</time>
      </trkpt>
      <trkpt lat="45.70057" lon="5.72186">
        <ele>490.088382973</ele>
        <time>2015-12-04T12:17:30Z</time>
      </trkpt>
      <trkpt lat="45.70042" lon="5.72188">
        <ele>491.373059385</ele>
        <time>2015-12-04T12:17:47Z</time>
      </trkpt>
      <trkpt lat="45.70039" lon="5.72188">
        <ele>491.373059385</ele>
        <time>2015-12-04T12:17:55Z</time>
      </trkpt>
      <trkpt lat="45.70018" lon="5.72184">
        <ele>491.801922187</ele>
        <time>2015-12-04T12:18:19Z</time>
      </trkpt>
      <trkpt lat="45.70012" lon="5.72185">
        <ele>491.801922187</ele>
        <time>2015-12-04T12:18:25Z</time>
      </trkpt>
      <trkpt lat="45.70004" lon="5.72187">
        <ele>492.591188076</ele>
        <time>2015-12-04T12:18:34Z</time>
      </trkpt>
      <trkpt lat="45.69999" lon="5.72188">
        <ele>492.591188076</ele>
        <time>2015-12-04T12:18:39Z</time>
      </trkpt>
      <trkpt lat="45.69995" lon="5.72189">
        <ele>493.857938494</ele>
        <time>2015-12-04T12:18:49Z</time>
      </trkpt>
      <trkpt lat="45.69995" lon="5.7219">
        <ele>493.857938494</ele>
        <time>2015-12-04T12:18:55Z</time>
      </trkpt>
      <trkpt lat="45.69981" lon="5.72188">
        <ele>495.421093108</ele>
        <time>2015-12-04T12:19:09Z</time>
      </trkpt>
      <trkpt lat="45.69965" lon="5.72194">
        <ele>497.400270658</ele>
        <time>2015-12-04T12:19:25Z</time>
      </trkpt>
      <trkpt lat="45.69957" lon="5.72192">
        <ele>497.400270658</ele>
        <time>2015-12-04T12:19:41Z</time>
      </trkpt>
      <trkpt lat="45.69955" lon="5.72191">
        <ele>500.049261528</ele>
        <time>2015-12-04T12:19:41Z</time>
      </trkpt>
      <trkpt lat="45.69953" lon="5.7219">
        <ele>500.049261528</ele>
        <time>2015-12-04T12:19:43Z</time>
      </trkpt>
      <trkpt lat="45.69917" lon="5.72178">
        <ele>503.313137959</ele>
        <time>2015-12-04T12:20:24Z</time>
      </trkpt>
      <trkpt lat="45.69915" lon="5.72181">
        <ele>503.313137959</ele>
        <time>2015-12-04T12:20:28Z</time>
      </trkpt>
      <trkpt lat="45.69917" lon="5.72182">
        <ele>503.313137959</ele>
        <time>2015-12-04T12:20:33Z</time>
      </trkpt>
      <trkpt lat="45.69918" lon="5.72194">
        <ele>505.986432641</ele>
        <time>2015-12-04T12:20:49Z</time>
      </trkpt>
      <trkpt lat="45.69907" lon="5.72215">
        <ele>507.530385365</ele>
        <time>2015-12-04T12:21:04Z</time>
      </trkpt>
      <trkpt lat="45.69903" lon="5.72224">
        <ele>507.530385365</ele>
        <time>2015-12-04T12:21:09Z</time>
      </trkpt>
      <trkpt lat="45.69897" lon="5.72238">
        <ele>508.890156084</ele>
        <time>2015-12-04T12:21:19Z</time>
      </trkpt>
      <trkpt lat="45.69892" lon="5.7224">
        <ele>508.890156084</ele>
        <time>2015-12-04T12:21:24Z</time>
      </trkpt>
      <trkpt lat="45.69888" lon="5.72241">
        <ele>510.221504315</ele>
        <time>2015-12-04T12:21:36Z</time>
      </trkpt>
      <trkpt lat="45.69855" lon="5.72261">
        <ele>512.101233986</ele>
        <time>2015-12-04T12:22:09Z</time>
      </trkpt>
      <trkpt lat="45.69852" lon="5.72265">
        <ele>512.101233986</ele>
        <time>2015-12-04T12:22:10Z</time>
      </trkpt>
      <trkpt lat="45.69846" lon="5.72264">
        <ele>513.188867122</ele>
        <time>2015-12-04T12:22:17Z</time>
      </trkpt>
      <trkpt lat="45.69837" lon="5.72267">
        <ele>513.188867122</ele>
        <time>2015-12-04T12:22:29Z</time>
      </trkpt>
      <trkpt lat="45.69834" lon="5.72274">
        <ele>514.694582581</ele>
        <time>2015-12-04T12:22:33Z</time>
      </trkpt>
      <trkpt lat="45.69827" lon="5.72272">
        <ele>514.694582581</ele>
        <time>2015-12-04T12:22:49Z</time>
      </trkpt>
      <trkpt lat="45.69819" lon="5.72275">
        <ele>515.57689291</ele>
        <time>2015-12-04T12:23:05Z</time>
      </trkpt>
      <trkpt lat="45.69818" lon="5.72274">
        <ele>515.57689291</ele>
        <time>2015-12-04T12:23:08Z</time>
      </trkpt>
      <trkpt lat="45.69817" lon="5.72269">
        <ele>515.57689291</ele>
        <time>2015-12-04T12:23:16Z</time>
      </trkpt>
      <trkpt lat="45.69811" lon="5.7226">
        <ele>516.16963804</ele>
        <time>2015-12-04T12:23:31Z</time>
      </trkpt>
      <trkpt lat="45.69808" lon="5.72257">
        <ele>516.16963804</ele>
        <time>2015-12-04T12:23:36Z</time>
      </trkpt>
      <trkpt lat="45.69803" lon="5.7224">
        <ele>516.062456128</ele>
        <time>2015-12-04T12:23:43Z</time>
      </trkpt>
      <trkpt lat="45.698" lon="5.72232">
        <ele>516.062456128</ele>
        <time>2015-12-04T12:23:50Z</time>
      </trkpt>
      <trkpt lat="45.69794" lon="5.72225">
        <ele>515.453595589</ele>
        <time>2015-12-04T12:24:01Z</time>
      </trkpt>
      <trkpt lat="45.69793" lon="5.72223">
        <ele>515.453595589</ele>
        <time>2015-12-04T12:24:01Z</time>
      </trkpt>
      <trkpt lat="45.69791" lon="5.72221">
        <ele>515.453595589</ele>
        <time>2015-12-04T12:24:03Z</time>
      </trkpt>
      <trkpt lat="45.69785" lon="5.72218">
        <ele>514.816417003</ele>
        <time>2015-12-04T12:24:08Z</time>
      </trkpt>
      <trkpt lat="45.69777" lon="5.72204">
        <ele>514.15728617</ele>
        <time>2015-12-04T12:24:22Z</time>
      </trkpt>
      <trkpt lat="45.69776" lon="5.72203">
        <ele>514.15728617</ele>
        <time>2015-12-04T12:24:24Z</time>
      </trkpt>
      <trkpt lat="45.69755" lon="5.72194">
        <ele>514.346848703</ele>
        <time>2015-12-04T12:24:38Z</time>
      </trkpt>
      <trkpt lat="45.69738" lon="5.72198">
        <ele>515.180642132</ele>
        <time>2015-12-04T12:24:50Z</time>
      </trkpt>
      <trkpt lat="45.69733" lon="5.72195">
        <ele>515.180642132</ele>
        <time>2015-12-04T12:24:54Z</time>
      </trkpt>
      <trkpt lat="45.69731" lon="5.72195">
        <ele>515.180642132</ele>
        <time>2015-12-04T12:24:59Z</time>
      </trkpt>
      <trkpt lat="45.6972" lon="5.72192">
        <ele>515.890972114</ele>
        <time>2015-12-04T12:25:08Z</time>
      </trkpt>
      <trkpt lat="45.69716" lon="5.72191">
        <ele>515.890972114</ele>
        <time>2015-12-04T12:25:13Z</time>
      </trkpt>
      <trkpt lat="45.69707" lon="5.72192">
        <ele>516.775659584</ele>
        <time>2015-12-04T12:25:23Z</time>
      </trkpt>
      <trkpt lat="45.69705" lon="5.72191">
        <ele>516.775659584</ele>
        <time>2015-12-04T12:25:28Z</time>
      </trkpt>
      <trkpt lat="45.69694" lon="5.72189">
        <ele>517.821931671</ele>
        <time>2015-12-04T12:25:40Z</time>
      </trkpt>
      <trkpt lat="45.69691" lon="5.72189">
        <ele>517.821931671</ele>
        <time>2015-12-04T12:25:43Z</time>
      </trkpt>
      <trkpt lat="45.69679" lon="5.72188">
        <ele>519.305719332</ele>
        <time>2015-12-04T12:25:53Z</time>
      </trkpt>
      <trkpt lat="45.69677" lon="5.72194">
        <ele>519.305719332</ele>
        <time>2015-12-04T12:25:59Z</time>
      </trkpt>
      <trkpt lat="45.69671" lon="5.72206">
        <ele>520.040342059</ele>
        <time>2015-12-04T12:26:08Z</time>
      </trkpt>
      <trkpt lat="45.69666" lon="5.72213">
        <ele>520.040342059</ele>
        <time>2015-12-04T12:26:13Z</time>
      </trkpt>
      <trkpt lat="45.69658" lon="5.7222">
        <ele>520.945948986</ele>
        <time>2015-12-04T12:26:23Z</time>
      </trkpt>
      <trkpt lat="45.69652" lon="5.72224">
        <ele>520.945948986</ele>
        <time>2015-12-04T12:26:29Z</time>
      </trkpt>
      <trkpt lat="45.69635" lon="5.7226">
        <ele>521.721726386</ele>
        <time>2015-12-04T12:26:59Z</time>
      </trkpt>
      <trkpt lat="45.69629" lon="5.72267">
        <ele>521.721726386</ele>
        <time>2015-12-04T12:27:00Z</time>
      </trkpt>
      <trkpt lat="45.69614" lon="5.72272">
        <ele>522.233432969</ele>
        <time>2015-12-04T12:27:11Z</time>
      </trkpt>
      <trkpt lat="45.69613" lon="5.72273">
        <ele>522.233432969</ele>
        <time>2015-12-04T12:27:11Z</time>
      </trkpt>
      <trkpt lat="45.69613" lon="5.72274">
        <ele>522.233432969</ele>
        <time>2015-12-04T12:27:13Z</time>
      </trkpt>
      <trkpt lat="45.69601" lon="5.72273">
        <ele>523.222095248</ele>
        <time>2015-12-04T12:27:25Z</time>
      </trkpt>
      <trkpt lat="45.69595" lon="5.7227">
        <ele>523.222095248</ele>
        <time>2015-12-04T12:27:29Z</time>
      </trkpt>
      <trkpt lat="45.69595" lon="5.72272">
        <ele>523.222095248</ele>
        <time>2015-12-04T12:27:34Z</time>
      </trkpt>
      <trkpt lat="45.69592" lon="5.72271">
        <ele>524.652409384</ele>
        <time>2015-12-04T12:27:43Z</time>
      </trkpt>
      <trkpt lat="45.69587" lon="5.72266">
        <ele>524.652409384</ele>
        <time>2015-12-04T12:27:48Z</time>
      </trkpt>
      <trkpt lat="45.69585" lon="5.72261">
        <ele>526.634537979</ele>
        <time>2015-12-04T12:28:00Z</time>
      </trkpt>
      <trkpt lat="45.69584" lon="5.72257">
        <ele>526.634537979</ele>
        <time>2015-12-04T12:28:04Z</time>
      </trkpt>
      <trkpt lat="45.69579" lon="5.7225">
        <ele>528.980786347</ele>
        <time>2015-12-04T12:28:14Z</time>
      </trkpt>
      <trkpt lat="45.69578" lon="5.72249">
        <ele>528.980786347</ele>
        <time>2015-12-04T12:28:19Z</time>
      </trkpt>
      <trkpt lat="45.6957" lon="5.72239">
        <ele>531.228016775</ele>
        <time>2015-12-04T12:28:30Z</time>
      </trkpt>
      <trkpt lat="45.69567" lon="5.72234">
        <ele>531.228016775</ele>
        <time>2015-12-04T12:28:35Z</time>
      </trkpt>
      <trkpt lat="45.69562" lon="5.72224">
        <ele>533.235634926</ele>
        <time>2015-12-04T12:28:45Z</time>
      </trkpt>
      <trkpt lat="45.69548" lon="5.72206">
        <ele>534.58585341</ele>
        <time>2015-12-04T12:29:25Z</time>
      </trkpt>
      <trkpt lat="45.69548" lon="5.72206">
        <ele>534.58585341</ele>
        <time>2015-12-04T12:29:25Z</time>
      </trkpt>
      <trkpt lat="45.69548" lon="5.72205">
        <ele>534.58585341</ele>
        <time>2015-12-04T12:29:30Z</time>
      </trkpt>
      <trkpt lat="45.69544" lon="5.72197">
        <ele>534.58585341</ele>
        <time>2015-12-04T12:29:40Z</time>
      </trkpt>
      <trkpt lat="45.69543" lon="5.72195">
        <ele>536.766901168</ele>
        <time>2015-12-04T12:29:43Z</time>
      </trkpt>
      <trkpt lat="45.69539" lon="5.7219">
        <ele>536.766901168</ele>
        <time>2015-12-04T12:29:49Z</time>
      </trkpt>
      <trkpt lat="45.6954" lon="5.72182">
        <ele>538.417281229</ele>
        <time>2015-12-04T12:29:55Z</time>
      </trkpt>
      <trkpt lat="45.6954" lon="5.72173">
        <ele>538.417281229</ele>
        <time>2015-12-04T12:29:59Z</time>
      </trkpt>
      <trkpt lat="45.69539" lon="5.72168">
        <ele>539.574044979</ele>
        <time>2015-12-04T12:30:04Z</time>
      </trkpt>
      <trkpt lat="45.69539" lon="5.72165">
        <ele>539.574044979</ele>
        <time>2015-12-04T12:30:14Z</time>
      </trkpt>
      <trkpt lat="45.69539" lon="5.72165">
        <ele>539.574044979</ele>
        <time>2015-12-04T12:30:19Z</time>
      </trkpt>
      <trkpt lat="45.69539" lon="5.72165">
        <ele>539.574044979</ele>
        <time>2015-12-04T12:30:29Z</time>
      </trkpt>
      <trkpt lat="45.69539" lon="5.72165">
        <ele>539.574044979</ele>
        <time>2015-12-04T12:30:33Z</time>
      </trkpt>
      <trkpt lat="45.69539" lon="5.72165">
        <ele>539.574044979</ele>
        <time>2015-12-04T12:30:43Z</time>
      </trkpt>
      <trkpt lat="45.69539" lon="5.72165">
        <ele>539.574044979</ele>
        <time>2015-12-04T12:30:49Z</time>
      </trkpt>
      <trkpt lat="45.69535" lon="5.72168">
        <ele>539.574044979</ele>
        <time>2015-12-04T12:30:59Z</time>
      </trkpt>
      <trkpt lat="45.69534" lon="5.72175">
        <ele>539.98472911</ele>
        <time>2015-12-04T12:31:04Z</time>
      </trkpt>
      <trkpt lat="45.69538" lon="5.7218">
        <ele>539.98472911</ele>
        <time>2015-12-04T12:31:14Z</time>
      </trkpt>
      <trkpt lat="45.69538" lon="5.72185">
        <ele>539.98472911</ele>
        <time>2015-12-04T12:31:20Z</time>
      </trkpt>
      <trkpt lat="45.6953" lon="5.72198">
        <ele>540.426330201</ele>
        <time>2015-12-04T12:31:29Z</time>
      </trkpt>
      <trkpt lat="45.69527" lon="5.722">
        <ele>540.426330201</ele>
        <time>2015-12-04T12:31:34Z</time>
      </trkpt>
      <trkpt lat="45.69524" lon="5.72204">
        <ele>540.426330201</ele>
        <time>2015-12-04T12:31:44Z</time>
      </trkpt>
      <trkpt lat="45.69516" lon="5.72206">
        <ele>541.762831074</ele>
        <time>2015-12-04T12:31:49Z</time>
      </trkpt>
      <trkpt lat="45.695" lon="5.72222">
        <ele>542.918826294</ele>
        <time>2015-12-04T12:32:03Z</time>
      </trkpt>
      <trkpt lat="45.69484" lon="5.72215">
        <ele>544.339559073</ele>
        <time>2015-12-04T12:32:17Z</time>
      </trkpt>
      <trkpt lat="45.69483" lon="5.72214">
        <ele>544.339559073</ele>
        <time>2015-12-04T12:32:19Z</time>
      </trkpt>
      <trkpt lat="45.69463" lon="5.72222">
        <ele>545.860408921</ele>
        <time>2015-12-04T12:32:39Z</time>
      </trkpt>
      <trkpt lat="45.69455" lon="5.72232">
        <ele>547.040375946</ele>
        <time>2015-12-04T12:32:48Z</time>
      </trkpt>
      <trkpt lat="45.69453" lon="5.72239">
        <ele>547.040375946</ele>
        <time>2015-12-04T12:32:53Z</time>
      </trkpt>
      <trkpt lat="45.69449" lon="5.72251">
        <ele>547.32773015</ele>
        <time>2015-12-04T12:33:04Z</time>
      </trkpt>
      <trkpt lat="45.69445" lon="5.7226">
        <ele>547.32773015</ele>
        <time>2015-12-04T12:33:10Z</time>
      </trkpt>
      <trkpt lat="45.69444" lon="5.72266">
        <ele>546.934356203</ele>
        <time>2015-12-04T12:33:20Z</time>
      </trkpt>
      <trkpt lat="45.69442" lon="5.72273">
        <ele>546.934356203</ele>
        <time>2015-12-04T12:33:24Z</time>
      </trkpt>
      <trkpt lat="45.69436" lon="5.72288">
        <ele>547.355503229</ele>
        <time>2015-12-04T12:33:35Z</time>
      </trkpt>
      <trkpt lat="45.69434" lon="5.72292">
        <ele>547.355503229</ele>
        <time>2015-12-04T12:33:39Z</time>
      </trkpt>
      <trkpt lat="45.69428" lon="5.72301">
        <ele>546.803859131</ele>
        <time>2015-12-04T12:33:48Z</time>
      </trkpt>
      <trkpt lat="45.69424" lon="5.7231">
        <ele>546.803859131</ele>
        <time>2015-12-04T12:33:53Z</time>
      </trkpt>
      <trkpt lat="45.69419" lon="5.72321">
        <ele>546.940692149</ele>
        <time>2015-12-04T12:34:03Z</time>
      </trkpt>
      <trkpt lat="45.69417" lon="5.72321">
        <ele>546.940692149</ele>
        <time>2015-12-04T12:34:08Z</time>
      </trkpt>
      <trkpt lat="45.69416" lon="5.72325">
        <ele>546.940692149</ele>
        <time>2015-12-04T12:34:16Z</time>
      </trkpt>
      <trkpt lat="45.69415" lon="5.72326">
        <ele>546.940692149</ele>
        <time>2015-12-04T12:34:18Z</time>
      </trkpt>
      <trkpt lat="45.69415" lon="5.72325">
        <ele>546.940692149</ele>
        <time>2015-12-04T12:34:23Z</time>
      </trkpt>
      <trkpt lat="45.69415" lon="5.72325">
        <ele>546.940692149</ele>
        <time>2015-12-04T12:34:28Z</time>
      </trkpt>
      <trkpt lat="45.69415" lon="5.72326">
        <ele>546.940692149</ele>
        <time>2015-12-04T12:34:33Z</time>
      </trkpt>
      <trkpt lat="45.69412" lon="5.72325">
        <ele>546.709291742</ele>
        <time>2015-12-04T12:34:38Z</time>
      </trkpt>
      <trkpt lat="45.69412" lon="5.72326">
        <ele>546.709291742</ele>
        <time>2015-12-04T12:34:43Z</time>
      </trkpt>
      <trkpt lat="45.69411" lon="5.72326">
        <ele>546.709291742</ele>
        <time>2015-12-04T12:34:48Z</time>
      </trkpt>
      <trkpt lat="45.69411" lon="5.72327">
        <ele>546.709291742</ele>
        <time>2015-12-04T12:34:53Z</time>
      </trkpt>
      <trkpt lat="45.69411" lon="5.72327">
        <ele>546.709291742</ele>
        <time>2015-12-04T12:34:58Z</time>
      </trkpt>
      <trkpt lat="45.69411" lon="5.72327">
        <ele>546.709291742</ele>
        <time>2015-12-04T12:35:03Z</time>
      </trkpt>
      <trkpt lat="45.69411" lon="5.72327">
        <ele>546.709291742</ele>
        <time>2015-12-04T12:35:08Z</time>
      </trkpt>
      <trkpt lat="45.69411" lon="5.72327">
        <ele>546.709291742</ele>
        <time>2015-12-04T12:35:13Z</time>
      </trkpt>
      <trkpt lat="45.69411" lon="5.72327">
        <ele>546.709291742</ele>
        <time>2015-12-04T12:35:18Z</time>
      </trkpt>
      <trkpt lat="45.69411" lon="5.72327">
        <ele>546.709291742</ele>
        <time>2015-12-04T12:35:23Z</time>
      </trkpt>
      <trkpt lat="45.69411" lon="5.72327">
        <ele>546.709291742</ele>
        <time>2015-12-04T12:35:28Z</time>
      </trkpt>
      <trkpt lat="45.69411" lon="5.72327">
        <ele>546.709291742</ele>
        <time>2015-12-04T12:35:33Z</time>
      </trkpt>
      <trkpt lat="45.69405" lon="5.72327">
        <ele>546.709291742</ele>
        <time>2015-12-04T12:35:43Z</time>
      </trkpt>
      <trkpt lat="45.69404" lon="5.72326">
        <ele>546.716809059</ele>
        <time>2015-12-04T12:35:48Z</time>
      </trkpt>
      <trkpt lat="45.69401" lon="5.72324">
        <ele>546.716809059</ele>
        <time>2015-12-04T12:35:58Z</time>
      </trkpt>
      <trkpt lat="45.69401" lon="5.72323">
        <ele>546.716809059</ele>
        <time>2015-12-04T12:36:03Z</time>
      </trkpt>
      <trkpt lat="45.694" lon="5.72314">
        <ele>547.525097407</ele>
        <time>2015-12-04T12:36:15Z</time>
      </trkpt>
      <trkpt lat="45.694" lon="5.72302">
        <ele>547.525097407</ele>
        <time>2015-12-04T12:36:18Z</time>
      </trkpt>
      <trkpt lat="45.69398" lon="5.72294">
        <ele>548.355458416</ele>
        <time>2015-12-04T12:36:29Z</time>
      </trkpt>
      <trkpt lat="45.69397" lon="5.72293">
        <ele>548.355458416</ele>
        <time>2015-12-04T12:36:35Z</time>
      </trkpt>
      <trkpt lat="45.69395" lon="5.7228">
        <ele>549.78330209</ele>
        <time>2015-12-04T12:36:51Z</time>
      </trkpt>
      <trkpt lat="45.69388" lon="5.72262">
        <ele>551.043060723</ele>
        <time>2015-12-04T12:37:08Z</time>
      </trkpt>
      <trkpt lat="45.69387" lon="5.7226">
        <ele>551.043060723</ele>
        <time>2015-12-04T12:37:08Z</time>
      </trkpt>
      <trkpt lat="45.69378" lon="5.72244">
        <ele>552.866960399</ele>
        <time>2015-12-04T12:37:36Z</time>
      </trkpt>
      <trkpt lat="45.69377" lon="5.72241">
        <ele>552.866960399</ele>
        <time>2015-12-04T12:37:39Z</time>
      </trkpt>
      <trkpt lat="45.69375" lon="5.72234">
        <ele>552.866960399</ele>
        <time>2015-12-04T12:37:49Z</time>
      </trkpt>
      <trkpt lat="45.69374" lon="5.72234">
        <ele>552.866960399</ele>
        <time>2015-12-04T12:37:54Z</time>
      </trkpt>
      <trkpt lat="45.69366" lon="5.72226">
        <ele>554.923056036</ele>
        <time>2015-12-04T12:38:04Z</time>
      </trkpt>
      <trkpt lat="45.69364" lon="5.72218">
        <ele>554.923056036</ele>
        <time>2015-12-04T12:38:10Z</time>
      </trkpt>
      <trkpt lat="45.69363" lon="5.72208">
        <ele>557.335455861</ele>
        <time>2015-12-04T12:38:19Z</time>
      </trkpt>
      <trkpt lat="45.69362" lon="5.72208">
        <ele>557.335455861</ele>
        <time>2015-12-04T12:38:25Z</time>
      </trkpt>
      <trkpt lat="45.69362" lon="5.72207">
        <ele>557.335455861</ele>
        <time>2015-12-04T12:38:35Z</time>
      </trkpt>
      <trkpt lat="45.6936" lon="5.72199">
        <ele>557.335455861</ele>
        <time>2015-12-04T12:38:39Z</time>
      </trkpt>
      <trkpt lat="45.69357" lon="5.72191">
        <ele>560.218148647</ele>
        <time>2015-12-04T12:38:49Z</time>
      </trkpt>
      <trkpt lat="45.69322" lon="5.72156">
        <ele>561.946103413</ele>
        <time>2015-12-04T12:39:40Z</time>
      </trkpt>
      <trkpt lat="45.6932" lon="5.72153">
        <ele>561.946103413</ele>
        <time>2015-12-04T12:39:45Z</time>
      </trkpt>
      <trkpt lat="45.69312" lon="5.72145">
        <ele>564.331477226</ele>
        <time>2015-12-04T12:39:54Z</time>
      </trkpt>
      <trkpt lat="45.69303" lon="5.72138">
        <ele>566.889823662</ele>
        <time>2015-12-04T12:40:00Z</time>
      </trkpt>
      <trkpt lat="45.69295" lon="5.72139">
        <ele>566.889823662</ele>
        <time>2015-12-04T12:40:09Z</time>
      </trkpt>
      <trkpt lat="45.69292" lon="5.72142">
        <ele>569.748280954</ele>
        <time>2015-12-04T12:40:14Z</time>
      </trkpt>
      <trkpt lat="45.69291" lon="5.72148">
        <ele>569.748280954</ele>
        <time>2015-12-04T12:40:24Z</time>
      </trkpt>
      <trkpt lat="45.69291" lon="5.72149">
        <ele>569.748280954</ele>
        <time>2015-12-04T12:40:30Z</time>
      </trkpt>
      <trkpt lat="45.69291" lon="5.72149">
        <ele>569.748280954</ele>
        <time>2015-12-04T12:40:34Z</time>
      </trkpt>
      <trkpt lat="45.69296" lon="5.72164">
        <ele>572.735631366</ele>
        <time>2015-12-04T12:40:45Z</time>
      </trkpt>
      <trkpt lat="45.69297" lon="5.72172">
        <ele>572.735631366</ele>
        <time>2015-12-04T12:40:50Z</time>
      </trkpt>
      <trkpt lat="45.69294" lon="5.72194">
        <ele>575.692931673</ele>
        <time>2015-12-04T12:41:37Z</time>
      </trkpt>
      <trkpt lat="45.69293" lon="5.72193">
        <ele>575.692931673</ele>
        <time>2015-12-04T12:41:39Z</time>
      </trkpt>
      <trkpt lat="45.69287" lon="5.72185">
        <ele>578.328956475</ele>
        <time>2015-12-04T12:41:50Z</time>
      </trkpt>
      <trkpt lat="45.69284" lon="5.72183">
        <ele>578.328956475</ele>
        <time>2015-12-04T12:41:55Z</time>
      </trkpt>
      <trkpt lat="45.69275" lon="5.72174">
        <ele>580.23074072</ele>
        <time>2015-12-04T12:42:10Z</time>
      </trkpt>
      <trkpt lat="45.69263" lon="5.72164">
        <ele>583.179467396</ele>
        <time>2015-12-04T12:42:24Z</time>
      </trkpt>
      <trkpt lat="45.69259" lon="5.72163">
        <ele>583.179467396</ele>
        <time>2015-12-04T12:42:28Z</time>
      </trkpt>
      <trkpt lat="45.69247" lon="5.72158">
        <ele>584.787513454</ele>
        <time>2015-12-04T12:42:38Z</time>
      </trkpt>
      <trkpt lat="45.6924" lon="5.72154">
        <ele>584.787513454</ele>
        <time>2015-12-04T12:42:43Z</time>
      </trkpt>
      <trkpt lat="45.69227" lon="5.72142">
        <ele>586.593390745</ele>
        <time>2015-12-04T12:42:56Z</time>
      </trkpt>
      <trkpt lat="45.69227" lon="5.72142">
        <ele>586.593390745</ele>
        <time>2015-12-04T12:42:59Z</time>
      </trkpt>
      <trkpt lat="45.69177" lon="5.72108">
        <ele>587.860459801</ele>
        <time>2015-12-04T12:43:45Z</time>
      </trkpt>
      <trkpt lat="45.69176" lon="5.72106">
        <ele>587.860459801</ele>
        <time>2015-12-04T12:43:49Z</time>
      </trkpt>
      <trkpt lat="45.69162" lon="5.72101">
        <ele>588.628347446</ele>
        <time>2015-12-04T12:43:59Z</time>
      </trkpt>
      <trkpt lat="45.69128" lon="5.72092">
        <ele>590.952808088</ele>
        <time>2015-12-04T12:44:44Z</time>
      </trkpt>
      <trkpt lat="45.69128" lon="5.72092">
        <ele>590.952808088</ele>
        <time>2015-12-04T12:44:44Z</time>
      </trkpt>
      <trkpt lat="45.6912" lon="5.72086">
        <ele>592.699179504</ele>
        <time>2015-12-04T12:44:55Z</time>
      </trkpt>
      <trkpt lat="45.69119" lon="5.72086">
        <ele>592.699179504</ele>
        <time>2015-12-04T12:44:55Z</time>
      </trkpt>
      <trkpt lat="45.69117" lon="5.72083">
        <ele>592.699179504</ele>
        <time>2015-12-04T12:44:59Z</time>
      </trkpt>
      <trkpt lat="45.69075" lon="5.72068">
        <ele>593.620638115</ele>
        <time>2015-12-04T12:45:39Z</time>
      </trkpt>
      <trkpt lat="45.6907" lon="5.7207">
        <ele>593.620638115</ele>
        <time>2015-12-04T12:45:48Z</time>
      </trkpt>
      <trkpt lat="45.69067" lon="5.72069">
        <ele>593.620638115</ele>
        <time>2015-12-04T12:45:53Z</time>
      </trkpt>
      <trkpt lat="45.69066" lon="5.72069">
        <ele>593.779093923</ele>
        <time>2015-12-04T12:46:01Z</time>
      </trkpt>
      <trkpt lat="45.69065" lon="5.72069">
        <ele>593.779093923</ele>
        <time>2015-12-04T12:46:03Z</time>
      </trkpt>
      <trkpt lat="45.69059" lon="5.72069">
        <ele>593.779093923</ele>
        <time>2015-12-04T12:46:08Z</time>
      </trkpt>
      <trkpt lat="45.6905" lon="5.72068">
        <ele>593.522328949</ele>
        <time>2015-12-04T12:46:18Z</time>
      </trkpt>
      <trkpt lat="45.69044" lon="5.72065">
        <ele>593.522328949</ele>
        <time>2015-12-04T12:46:23Z</time>
      </trkpt>
      <trkpt lat="45.69036" lon="5.72065">
        <ele>592.74145229</ele>
        <time>2015-12-04T12:46:33Z</time>
      </trkpt>
      <trkpt lat="45.69033" lon="5.72065">
        <ele>592.74145229</ele>
        <time>2015-12-04T12:46:38Z</time>
      </trkpt>
      <trkpt lat="45.69024" lon="5.72063">
        <ele>591.192956722</ele>
        <time>2015-12-04T12:46:48Z</time>
      </trkpt>
      <trkpt lat="45.69018" lon="5.72066">
        <ele>591.192956722</ele>
        <time>2015-12-04T12:46:53Z</time>
      </trkpt>
      <trkpt lat="45.69012" lon="5.72068">
        <ele>589.518047798</ele>
        <time>2015-12-04T12:47:03Z</time>
      </trkpt>
      <trkpt lat="45.69001" lon="5.7207">
        <ele>587.590608543</ele>
        <time>2015-12-04T12:47:23Z</time>
      </trkpt>
      <trkpt lat="45.69001" lon="5.7207">
        <ele>587.590608543</ele>
        <time>2015-12-04T12:47:23Z</time>
      </trkpt>
      <trkpt lat="45.68994" lon="5.72067">
        <ele>587.590608543</ele>
        <time>2015-12-04T12:47:36Z</time>
      </trkpt>
      <trkpt lat="45.68993" lon="5.72067">
        <ele>587.590608543</ele>
        <time>2015-12-04T12:47:40Z</time>
      </trkpt>
      <trkpt lat="45.68982" lon="5.7207">
        <ele>585.43856269</ele>
        <time>2015-12-04T12:47:53Z</time>
      </trkpt>
      <trkpt lat="45.68982" lon="5.7207">
        <ele>585.43856269</ele>
        <time>2015-12-04T12:47:58Z</time>
      </trkpt>
      <trkpt lat="45.68981" lon="5.7207">
        <ele>585.43856269</ele>
        <time>2015-12-04T12:48:03Z</time>
      </trkpt>
      <trkpt lat="45.68975" lon="5.72069">
        <ele>585.43856269</ele>
        <time>2015-12-04T12:48:16Z</time>
      </trkpt>
      <trkpt lat="45.68974" lon="5.72067">
        <ele>585.43856269</ele>
        <time>2015-12-04T12:48:16Z</time>
      </trkpt>
      <trkpt lat="45.68973" lon="5.72067">
        <ele>583.664790024</ele>
        <time>2015-12-04T12:48:20Z</time>
      </trkpt>
      <trkpt lat="45.68955" lon="5.72061">
        <ele>583.259067748</ele>
        <time>2015-12-04T12:48:33Z</time>
      </trkpt>
      <trkpt lat="45.68951" lon="5.72056">
        <ele>583.259067748</ele>
        <time>2015-12-04T12:48:38Z</time>
      </trkpt>
      <trkpt lat="45.6894" lon="5.72041">
        <ele>583.837523667</ele>
        <time>2015-12-04T12:48:54Z</time>
      </trkpt>
      <trkpt lat="45.68927" lon="5.72035">
        <ele>584.032833306</ele>
        <time>2015-12-04T12:49:08Z</time>
      </trkpt>
      <trkpt lat="45.68921" lon="5.72031">
        <ele>584.032833306</ele>
        <time>2015-12-04T12:49:13Z</time>
      </trkpt>
      <trkpt lat="45.68919" lon="5.72031">
        <ele>584.032833306</ele>
        <time>2015-12-04T12:49:18Z</time>
      </trkpt>
      <trkpt lat="45.68918" lon="5.72031">
        <ele>583.731962366</ele>
        <time>2015-12-04T12:49:23Z</time>
      </trkpt>
      <trkpt lat="45.68918" lon="5.7203">
        <ele>583.731962366</ele>
        <time>2015-12-04T12:49:28Z</time>
      </trkpt>
      <trkpt lat="45.68918" lon="5.7203">
        <ele>583.731962366</ele>
        <time>2015-12-04T12:49:33Z</time>
      </trkpt>
      <trkpt lat="45.68918" lon="5.7203">
        <ele>583.731962366</ele>
        <time>2015-12-04T12:49:38Z</time>
      </trkpt>
      <trkpt lat="45.68918" lon="5.7203">
        <ele>583.731962366</ele>
        <time>2015-12-04T12:49:43Z</time>
      </trkpt>
      <trkpt lat="45.68918" lon="5.7203">
        <ele>583.731962366</ele>
        <time>2015-12-04T12:49:48Z</time>
      </trkpt>
      <trkpt lat="45.68918" lon="5.7203">
        <ele>583.731962366</ele>
        <time>2015-12-04T12:49:53Z</time>
      </trkpt>
      <trkpt lat="45.68918" lon="5.7203">
        <ele>583.731962366</ele>
        <time>2015-12-04T12:49:58Z</time>
      </trkpt>
      <trkpt lat="45.68918" lon="5.7203">
        <ele>583.731962366</ele>
        <time>2015-12-04T12:50:03Z</time>
      </trkpt>
      <trkpt lat="45.68918" lon="5.7203">
        <ele>583.731962366</ele>
        <time>2015-12-04T12:50:08Z</time>
      </trkpt>
      <trkpt lat="45.68918" lon="5.7203">
        <ele>583.731962366</ele>
        <time>2015-12-04T12:50:13Z</time>
      </trkpt>
      <trkpt lat="45.68918" lon="5.7203">
        <ele>583.731962366</ele>
        <time>2015-12-04T12:50:18Z</time>
      </trkpt>
      <trkpt lat="45.68915" lon="5.72027">
        <ele>583.731962366</ele>
        <time>2015-12-04T12:50:23Z</time>
      </trkpt>
      <trkpt lat="45.68909" lon="5.72026">
        <ele>583.407898152</ele>
        <time>2015-12-04T12:50:34Z</time>
      </trkpt>
      <trkpt lat="45.68908" lon="5.72025">
        <ele>583.407898152</ele>
        <time>2015-12-04T12:50:40Z</time>
      </trkpt>
      <trkpt lat="45.68906" lon="5.72023">
        <ele>583.407898152</ele>
        <time>2015-12-04T12:50:49Z</time>
      </trkpt>
      <trkpt lat="45.68898" lon="5.72017">
        <ele>581.625379957</ele>
        <time>2015-12-04T12:50:54Z</time>
      </trkpt>
      <trkpt lat="45.6889" lon="5.7201">
        <ele>580.228988718</ele>
        <time>2015-12-04T12:51:03Z</time>
      </trkpt>
      <trkpt lat="45.68887" lon="5.72004">
        <ele>580.228988718</ele>
        <time>2015-12-04T12:51:08Z</time>
      </trkpt>
      <trkpt lat="45.68877" lon="5.71993">
        <ele>579.053138132</ele>
        <time>2015-12-04T12:51:21Z</time>
      </trkpt>
      <trkpt lat="45.68874" lon="5.7199">
        <ele>579.053138132</ele>
        <time>2015-12-04T12:51:24Z</time>
      </trkpt>
      <trkpt lat="45.6886" lon="5.71981">
        <ele>577.367195453</ele>
        <time>2015-12-04T12:51:35Z</time>
      </trkpt>
      <trkpt lat="45.68856" lon="5.71978">
        <ele>577.367195453</ele>
        <time>2015-12-04T12:51:39Z</time>
      </trkpt>
      <trkpt lat="45.68845" lon="5.71964">
        <ele>576.224808567</ele>
        <time>2015-12-04T12:51:54Z</time>
      </trkpt>
      <trkpt lat="45.68845" lon="5.71964">
        <ele>576.224808567</ele>
        <time>2015-12-04T12:51:54Z</time>
      </trkpt>
      <trkpt lat="45.68833" lon="5.71949">
        <ele>575.303536481</ele>
        <time>2015-12-04T12:52:07Z</time>
      </trkpt>
      <trkpt lat="45.68831" lon="5.71948">
        <ele>575.303536481</ele>
        <time>2015-12-04T12:52:08Z</time>
      </trkpt>
      <trkpt lat="45.68804" lon="5.71941">
        <ele>573.871501369</ele>
        <time>2015-12-04T12:52:29Z</time>
      </trkpt>
      <trkpt lat="45.68795" lon="5.71946">
        <ele>572.404736439</ele>
        <time>2015-12-04T12:52:38Z</time>
      </trkpt>
      <trkpt lat="45.68794" lon="5.71946">
        <ele>572.404736439</ele>
        <time>2015-12-04T12:52:38Z</time>
      </trkpt>
      <trkpt lat="45.68792" lon="5.71947">
        <ele>572.404736439</ele>
        <time>2015-12-04T12:52:43Z</time>
      </trkpt>
      <trkpt lat="45.68786" lon="5.71948">
        <ele>570.335445448</ele>
        <time>2015-12-04T12:52:55Z</time>
      </trkpt>
      <trkpt lat="45.68784" lon="5.71945">
        <ele>570.335445448</ele>
        <time>2015-12-04T12:52:59Z</time>
      </trkpt>
      <trkpt lat="45.68777" lon="5.71942">
        <ele>568.724270621</ele>
        <time>2015-12-04T12:53:09Z</time>
      </trkpt>
      <trkpt lat="45.6877" lon="5.71938">
        <ele>568.724270621</ele>
        <time>2015-12-04T12:53:13Z</time>
      </trkpt>
      <trkpt lat="45.68756" lon="5.71931">
        <ele>567.543687412</ele>
        <time>2015-12-04T12:53:28Z</time>
      </trkpt>
      <trkpt lat="45.68751" lon="5.71929">
        <ele>567.543687412</ele>
        <time>2015-12-04T12:53:33Z</time>
      </trkpt>
      <trkpt lat="45.68742" lon="5.71926">
        <ele>566.478570332</ele>
        <time>2015-12-04T12:53:43Z</time>
      </trkpt>
      <trkpt lat="45.6874" lon="5.71926">
        <ele>566.478570332</ele>
        <time>2015-12-04T12:53:48Z</time>
      </trkpt>
      <trkpt lat="45.6873" lon="5.71927">
        <ele>564.515867582</ele>
        <time>2015-12-04T12:53:58Z</time>
      </trkpt>
      <trkpt lat="45.68726" lon="5.71922">
        <ele>564.515867582</ele>
        <time>2015-12-04T12:54:03Z</time>
      </trkpt>
      <trkpt lat="45.6872" lon="5.7192">
        <ele>562.304488882</ele>
        <time>2015-12-04T12:54:13Z</time>
      </trkpt>
      <trkpt lat="45.68715" lon="5.71922">
        <ele>562.304488882</ele>
        <time>2015-12-04T12:54:18Z</time>
      </trkpt>
      <trkpt lat="45.68706" lon="5.71923">
        <ele>559.581505039</ele>
        <time>2015-12-04T12:54:28Z</time>
      </trkpt>
      <trkpt lat="45.687" lon="5.71919">
        <ele>559.581505039</ele>
        <time>2015-12-04T12:54:33Z</time>
      </trkpt>
      <trkpt lat="45.68693" lon="5.71913">
        <ele>557.113308845</ele>
        <time>2015-12-04T12:54:44Z</time>
      </trkpt>
      <trkpt lat="45.68685" lon="5.7191">
        <ele>557.113308845</ele>
        <time>2015-12-04T12:54:49Z</time>
      </trkpt>
      <trkpt lat="45.68669" lon="5.71908">
        <ele>554.888511718</ele>
        <time>2015-12-04T12:55:05Z</time>
      </trkpt>
      <trkpt lat="45.68647" lon="5.71903">
        <ele>550.301656327</ele>
        <time>2015-12-04T12:55:28Z</time>
      </trkpt>
      <trkpt lat="45.68644" lon="5.719">
        <ele>550.301656327</ele>
        <time>2015-12-04T12:55:30Z</time>
      </trkpt>
      <trkpt lat="45.68641" lon="5.71896">
        <ele>550.301656327</ele>
        <time>2015-12-04T12:55:32Z</time>
      </trkpt>
      <trkpt lat="45.68639" lon="5.71894">
        <ele>547.862414171</ele>
        <time>2015-12-04T12:55:33Z</time>
      </trkpt>
      <trkpt lat="45.68629" lon="5.71889">
        <ele>547.419586778</ele>
        <time>2015-12-04T12:55:43Z</time>
      </trkpt>
      <trkpt lat="45.68621" lon="5.71881">
        <ele>547.674361519</ele>
        <time>2015-12-04T12:55:49Z</time>
      </trkpt>
      <trkpt lat="45.68606" lon="5.7187">
        <ele>548.285823139</ele>
        <time>2015-12-04T12:56:05Z</time>
      </trkpt>
      <trkpt lat="45.68595" lon="5.71858">
        <ele>549.801562523</ele>
        <time>2015-12-04T12:56:19Z</time>
      </trkpt>
      <trkpt lat="45.6859" lon="5.71853">
        <ele>549.801562523</ele>
        <time>2015-12-04T12:56:23Z</time>
      </trkpt>
      <trkpt lat="45.68577" lon="5.71842">
        <ele>551.429228298</ele>
        <time>2015-12-04T12:56:34Z</time>
      </trkpt>
      <trkpt lat="45.68572" lon="5.71839">
        <ele>551.429228298</ele>
        <time>2015-12-04T12:56:38Z</time>
      </trkpt>
      <trkpt lat="45.68559" lon="5.71834">
        <ele>552.866541397</ele>
        <time>2015-12-04T12:56:49Z</time>
      </trkpt>
      <trkpt lat="45.68554" lon="5.71831">
        <ele>552.866541397</ele>
        <time>2015-12-04T12:56:55Z</time>
      </trkpt>
      <trkpt lat="45.68536" lon="5.71821">
        <ele>554.266169673</ele>
        <time>2015-12-04T12:57:07Z</time>
      </trkpt>
      <trkpt lat="45.68534" lon="5.71821">
        <ele>554.266169673</ele>
        <time>2015-12-04T12:57:08Z</time>
      </trkpt>
      <trkpt lat="45.68498" lon="5.71812">
        <ele>555.913683977</ele>
        <time>2015-12-04T12:57:37Z</time>
      </trkpt>
      <trkpt lat="45.68497" lon="5.71813">
        <ele>555.913683977</ele>
        <time>2015-12-04T12:57:38Z</time>
      </trkpt>
      <trkpt lat="45.68472" lon="5.7181">
        <ele>557.640574633</ele>
        <time>2015-12-04T12:57:57Z</time>
      </trkpt>
      <trkpt lat="45.68465" lon="5.71811">
        <ele>557.640574633</ele>
        <time>2015-12-04T12:58:08Z</time>
      </trkpt>
      <trkpt lat="45.68466" lon="5.71812">
        <ele>557.640574633</ele>
        <time>2015-12-04T12:58:13Z</time>
      </trkpt>
      <trkpt lat="45.68466" lon="5.71811">
        <ele>557.640574633</ele>
        <time>2015-12-04T12:58:18Z</time>
      </trkpt>
      <trkpt lat="45.68464" lon="5.71813">
        <ele>559.434549256</ele>
        <time>2015-12-04T12:58:23Z</time>
      </trkpt>
      <trkpt lat="45.68463" lon="5.71815">
        <ele>559.434549256</ele>
        <time>2015-12-04T12:58:33Z</time>
      </trkpt>
      <trkpt lat="45.68463" lon="5.71815">
        <ele>559.434549256</ele>
        <time>2015-12-04T12:58:38Z</time>
      </trkpt>
      <trkpt lat="45.68463" lon="5.71815">
        <ele>559.434549256</ele>
        <time>2015-12-04T12:58:48Z</time>
      </trkpt>
      <trkpt lat="45.68463" lon="5.71815">
        <ele>559.434549256</ele>
        <time>2015-12-04T12:58:53Z</time>
      </trkpt>
      <trkpt lat="45.68463" lon="5.71815">
        <ele>559.434549256</ele>
        <time>2015-12-04T12:59:03Z</time>
      </trkpt>
      <trkpt lat="45.68463" lon="5.71815">
        <ele>559.434549256</ele>
        <time>2015-12-04T12:59:08Z</time>
      </trkpt>
      <trkpt lat="45.68463" lon="5.71815">
        <ele>559.434549256</ele>
        <time>2015-12-04T12:59:18Z</time>
      </trkpt>
      <trkpt lat="45.68463" lon="5.71815">
        <ele>559.434549256</ele>
        <time>2015-12-04T12:59:23Z</time>
      </trkpt>
      <trkpt lat="45.68463" lon="5.71815">
        <ele>559.434549256</ele>
        <time>2015-12-04T12:59:33Z</time>
      </trkpt>
      <trkpt lat="45.68463" lon="5.71815">
        <ele>559.434549256</ele>
        <time>2015-12-04T12:59:38Z</time>
      </trkpt>
      <trkpt lat="45.68463" lon="5.71815">
        <ele>559.434549256</ele>
        <time>2015-12-04T12:59:43Z</time>
      </trkpt>
      <trkpt lat="45.68463" lon="5.71815">
        <ele>559.434549256</ele>
        <time>2015-12-04T12:59:48Z</time>
      </trkpt>
      <trkpt lat="45.68463" lon="5.71815">
        <ele>559.434549256</ele>
        <time>2015-12-04T12:59:53Z</time>
      </trkpt>
      <trkpt lat="45.68463" lon="5.71815">
        <ele>559.434549256</ele>
        <time>2015-12-04T12:59:58Z</time>
      </trkpt>
      <trkpt lat="45.68463" lon="5.71815">
        <ele>559.434549256</ele>
        <time>2015-12-04T13:00:03Z</time>
      </trkpt>
      <trkpt lat="45.68463" lon="5.71815">
        <ele>559.434549256</ele>
        <time>2015-12-04T13:00:08Z</time>
      </trkpt>
      <trkpt lat="45.6845" lon="5.71805">
        <ele>560.851669233</ele>
        <time>2015-12-04T13:00:24Z</time>
      </trkpt>
      <trkpt lat="45.68434" lon="5.71793">
        <ele>562.058102198</ele>
        <time>2015-12-04T13:00:39Z</time>
      </trkpt>
      <trkpt lat="45.68428" lon="5.71787">
        <ele>562.058102198</ele>
        <time>2015-12-04T13:00:44Z</time>
      </trkpt>
      <trkpt lat="45.68422" lon="5.71783">
        <ele>562.77607691</ele>
        <time>2015-12-04T13:00:54Z</time>
      </trkpt>
      <trkpt lat="45.68415" lon="5.71782">
        <ele>562.77607691</ele>
        <time>2015-12-04T13:01:00Z</time>
      </trkpt>
      <trkpt lat="45.68405" lon="5.71779">
        <ele>563.614288824</ele>
        <time>2015-12-04T13:01:10Z</time>
      </trkpt>
      <trkpt lat="45.68398" lon="5.71775">
        <ele>563.614288824</ele>
        <time>2015-12-04T13:01:14Z</time>
      </trkpt>
      <trkpt lat="45.68387" lon="5.71774">
        <ele>564.271750306</ele>
        <time>2015-12-04T13:01:25Z</time>
      </trkpt>
      <trkpt lat="45.68383" lon="5.71772">
        <ele>564.271750306</ele>
        <time>2015-12-04T13:01:30Z</time>
      </trkpt>
      <trkpt lat="45.68372" lon="5.7177">
        <ele>564.758357694</ele>
        <time>2015-12-04T13:01:44Z</time>
      </trkpt>
      <trkpt lat="45.68332" lon="5.71765">
        <ele>564.939698934</ele>
        <time>2015-12-04T13:02:17Z</time>
      </trkpt>
      <trkpt lat="45.68331" lon="5.71765">
        <ele>564.939698934</ele>
        <time>2015-12-04T13:02:18Z</time>
      </trkpt>
      <trkpt lat="45.68311" lon="5.71757">
        <ele>564.4039237</ele>
        <time>2015-12-04T13:02:45Z</time>
      </trkpt>
      <trkpt lat="45.68308" lon="5.71755">
        <ele>564.4039237</ele>
        <time>2015-12-04T13:02:45Z</time>
      </trkpt>
      <trkpt lat="45.68305" lon="5.71754">
        <ele>564.4039237</ele>
        <time>2015-12-04T13:02:50Z</time>
      </trkpt>
      <trkpt lat="45.6829" lon="5.71749">
        <ele>564.500837455</ele>
        <time>2015-12-04T13:03:00Z</time>
      </trkpt>
      <trkpt lat="45.68284" lon="5.71747">
        <ele>564.500837455</ele>
        <time>2015-12-04T13:03:05Z</time>
      </trkpt>
      <trkpt lat="45.68277" lon="5.71742">
        <ele>564.750037047</ele>
        <time>2015-12-04T13:03:09Z</time>
      </trkpt>
      <trkpt lat="45.68266" lon="5.71736">
        <ele>565.282483452</ele>
        <time>2015-12-04T13:03:19Z</time>
      </trkpt>
      <trkpt lat="45.68259" lon="5.7173">
        <ele>565.282483452</ele>
        <time>2015-12-04T13:03:24Z</time>
      </trkpt>
      <trkpt lat="45.68246" lon="5.7172">
        <ele>565.930558267</ele>
        <time>2015-12-04T13:03:35Z</time>
      </trkpt>
      <trkpt lat="45.68241" lon="5.71717">
        <ele>565.930558267</ele>
        <time>2015-12-04T13:03:39Z</time>
      </trkpt>
      <trkpt lat="45.68231" lon="5.71709">
        <ele>566.538692625</ele>
        <time>2015-12-04T13:03:50Z</time>
      </trkpt>
      <trkpt lat="45.68224" lon="5.71706">
        <ele>566.538692625</ele>
        <time>2015-12-04T13:03:55Z</time>
      </trkpt>
      <trkpt lat="45.68214" lon="5.71703">
        <ele>567.251144408</ele>
        <time>2015-12-04T13:04:04Z</time>
      </trkpt>
      <trkpt lat="45.68209" lon="5.71702">
        <ele>567.251144408</ele>
        <time>2015-12-04T13:04:09Z</time>
      </trkpt>
      <trkpt lat="45.68198" lon="5.71698">
        <ele>567.769016124</ele>
        <time>2015-12-04T13:04:18Z</time>
      </trkpt>
      <trkpt lat="45.68188" lon="5.71696">
        <ele>568.536540141</ele>
        <time>2015-12-04T13:04:24Z</time>
      </trkpt>
      <trkpt lat="45.68173" lon="5.71698">
        <ele>569.676468175</ele>
        <time>2015-12-04T13:04:35Z</time>
      </trkpt>
      <trkpt lat="45.68168" lon="5.717">
        <ele>569.676468175</ele>
        <time>2015-12-04T13:04:39Z</time>
      </trkpt>
      <trkpt lat="45.68155" lon="5.71701">
        <ele>570.581012793</ele>
        <time>2015-12-04T13:04:50Z</time>
      </trkpt>
      <trkpt lat="45.68151" lon="5.71699">
        <ele>570.581012793</ele>
        <time>2015-12-04T13:04:54Z</time>
      </trkpt>
      <trkpt lat="45.6814" lon="5.71696">
        <ele>571.408332698</ele>
        <time>2015-12-04T13:05:05Z</time>
      </trkpt>
      <trkpt lat="45.68134" lon="5.71695">
        <ele>571.408332698</ele>
        <time>2015-12-04T13:05:09Z</time>
      </trkpt>
      <trkpt lat="45.68123" lon="5.71696">
        <ele>572.449382384</ele>
        <time>2015-12-04T13:05:20Z</time>
      </trkpt>
      <trkpt lat="45.68118" lon="5.71695">
        <ele>572.449382384</ele>
        <time>2015-12-04T13:05:24Z</time>
      </trkpt>
      <trkpt lat="45.68103" lon="5.71699">
        <ele>573.685011225</ele>
        <time>2015-12-04T13:05:40Z</time>
      </trkpt>
      <trkpt lat="45.681" lon="5.71699">
        <ele>573.685011225</ele>
        <time>2015-12-04T13:05:43Z</time>
      </trkpt>
      <trkpt lat="45.68086" lon="5.717">
        <ele>575.097023531</ele>
        <time>2015-12-04T13:05:55Z</time>
      </trkpt>
      <trkpt lat="45.68084" lon="5.71701">
        <ele>575.097023531</ele>
        <time>2015-12-04T13:05:59Z</time>
      </trkpt>
      <trkpt lat="45.68073" lon="5.71701">
        <ele>575.371161207</ele>
        <time>2015-12-04T13:06:09Z</time>
      </trkpt>
      <trkpt lat="45.68064" lon="5.71698">
        <ele>575.598779016</ele>
        <time>2015-12-04T13:06:14Z</time>
      </trkpt>
      <trkpt lat="45.68041" lon="5.71697">
        <ele>576.214844499</ele>
        <time>2015-12-04T13:06:30Z</time>
      </trkpt>
      <trkpt lat="45.68039" lon="5.71698">
        <ele>576.214844499</ele>
        <time>2015-12-04T13:06:34Z</time>
      </trkpt>
      <trkpt lat="45.68028" lon="5.71699">
        <ele>576.61259956</ele>
        <time>2015-12-04T13:06:43Z</time>
      </trkpt>
      <trkpt lat="45.68022" lon="5.71697">
        <ele>576.61259956</ele>
        <time>2015-12-04T13:06:49Z</time>
      </trkpt>
      <trkpt lat="45.68005" lon="5.71696">
        <ele>577.383451549</ele>
        <time>2015-12-04T13:07:00Z</time>
      </trkpt>
      <trkpt lat="45.67999" lon="5.71691">
        <ele>577.383451549</ele>
        <time>2015-12-04T13:07:04Z</time>
      </trkpt>
      <trkpt lat="45.67984" lon="5.71683">
        <ele>579.362630382</ele>
        <time>2015-12-04T13:07:14Z</time>
      </trkpt>
      <trkpt lat="45.67983" lon="5.71685">
        <ele>579.362630382</ele>
        <time>2015-12-04T13:07:20Z</time>
      </trkpt>
      <trkpt lat="45.67974" lon="5.71686">
        <ele>580.72671196</ele>
        <time>2015-12-04T13:07:29Z</time>
      </trkpt>
      <trkpt lat="45.67965" lon="5.71685">
        <ele>580.72671196</ele>
        <time>2015-12-04T13:07:35Z</time>
      </trkpt>
      <trkpt lat="45.67943" lon="5.71684">
        <ele>581.949707462</ele>
        <time>2015-12-04T13:07:50Z</time>
      </trkpt>
      <trkpt lat="45.67938" lon="5.71685">
        <ele>581.949707462</ele>
        <time>2015-12-04T13:07:54Z</time>
      </trkpt>
      <trkpt lat="45.67927" lon="5.7169">
        <ele>583.038967511</ele>
        <time>2015-12-04T13:08:04Z</time>
      </trkpt>
      <trkpt lat="45.67922" lon="5.71692">
        <ele>583.038967511</ele>
        <time>2015-12-04T13:08:10Z</time>
      </trkpt>
      <trkpt lat="45.67916" lon="5.71694">
        <ele>584.001778013</ele>
        <time>2015-12-04T13:08:18Z</time>
      </trkpt>
      <trkpt lat="45.6791" lon="5.71695">
        <ele>584.001778013</ele>
        <time>2015-12-04T13:08:23Z</time>
      </trkpt>
      <trkpt lat="45.67908" lon="5.71693">
        <ele>584.001778013</ele>
        <time>2015-12-04T13:08:34Z</time>
      </trkpt>
      <trkpt lat="45.67904" lon="5.71693">
        <ele>584.557121722</ele>
        <time>2015-12-04T13:08:39Z</time>
      </trkpt>
      <trkpt lat="45.67891" lon="5.71701">
        <ele>584.878198644</ele>
        <time>2015-12-04T13:08:49Z</time>
      </trkpt>
      <trkpt lat="45.67887" lon="5.71703">
        <ele>584.878198644</ele>
        <time>2015-12-04T13:08:54Z</time>
      </trkpt>
      <trkpt lat="45.67875" lon="5.71704">
        <ele>585.702681613</ele>
        <time>2015-12-04T13:09:05Z</time>
      </trkpt>
      <trkpt lat="45.67868" lon="5.71703">
        <ele>585.702681613</ele>
        <time>2015-12-04T13:09:09Z</time>
      </trkpt>
      <trkpt lat="45.67852" lon="5.71702">
        <ele>586.559843108</ele>
        <time>2015-12-04T13:09:19Z</time>
      </trkpt>
      <trkpt lat="45.67846" lon="5.71698">
        <ele>586.559843108</ele>
        <time>2015-12-04T13:09:24Z</time>
      </trkpt>
      <trkpt lat="45.67837" lon="5.71699">
        <ele>587.157640342</ele>
        <time>2015-12-04T13:09:34Z</time>
      </trkpt>
      <trkpt lat="45.6783" lon="5.71699">
        <ele>587.157640342</ele>
        <time>2015-12-04T13:09:40Z</time>
      </trkpt>
      <trkpt lat="45.67823" lon="5.71695">
        <ele>587.946849611</ele>
        <time>2015-12-04T13:09:43Z</time>
      </trkpt>
      <trkpt lat="45.67806" lon="5.71689">
        <ele>588.191785543</ele>
        <time>2015-12-04T13:09:54Z</time>
      </trkpt>
      <trkpt lat="45.67799" lon="5.71685">
        <ele>588.191785543</ele>
        <time>2015-12-04T13:10:00Z</time>
      </trkpt>
      <trkpt lat="45.67788" lon="5.71678">
        <ele>588.653518362</ele>
        <time>2015-12-04T13:10:09Z</time>
      </trkpt>
      <trkpt lat="45.67782" lon="5.71675">
        <ele>588.653518362</ele>
        <time>2015-12-04T13:10:14Z</time>
      </trkpt>
      <trkpt lat="45.67776" lon="5.7167">
        <ele>588.739670223</ele>
        <time>2015-12-04T13:10:24Z</time>
      </trkpt>
      <trkpt lat="45.67774" lon="5.7167">
        <ele>588.739670223</ele>
        <time>2015-12-04T13:10:28Z</time>
      </trkpt>
      <trkpt lat="45.67756" lon="5.71669">
        <ele>587.758381652</ele>
        <time>2015-12-04T13:10:40Z</time>
      </trkpt>
      <trkpt lat="45.67751" lon="5.71672">
        <ele>587.758381652</ele>
        <time>2015-12-04T13:10:45Z</time>
      </trkpt>
      <trkpt lat="45.67734" lon="5.71679">
        <ele>586.945106636</ele>
        <time>2015-12-04T13:10:55Z</time>
      </trkpt>
      <trkpt lat="45.67731" lon="5.71679">
        <ele>586.945106636</ele>
        <time>2015-12-04T13:10:59Z</time>
      </trkpt>
      <trkpt lat="45.67718" lon="5.71683">
        <ele>586.435332911</ele>
        <time>2015-12-04T13:11:09Z</time>
      </trkpt>
      <trkpt lat="45.67711" lon="5.71686">
        <ele>586.435332911</ele>
        <time>2015-12-04T13:11:14Z</time>
      </trkpt>
      <trkpt lat="45.67701" lon="5.71688">
        <ele>585.777325587</ele>
        <time>2015-12-04T13:11:25Z</time>
      </trkpt>
      <trkpt lat="45.67698" lon="5.71687">
        <ele>585.777325587</ele>
        <time>2015-12-04T13:11:30Z</time>
      </trkpt>
      <trkpt lat="45.67684" lon="5.71681">
        <ele>585.99407682</ele>
        <time>2015-12-04T13:11:39Z</time>
      </trkpt>
      <trkpt lat="45.67678" lon="5.71683">
        <ele>585.99407682</ele>
        <time>2015-12-04T13:11:44Z</time>
      </trkpt>
      <trkpt lat="45.67666" lon="5.7168">
        <ele>586.157538055</ele>
        <time>2015-12-04T13:11:55Z</time>
      </trkpt>
      <trkpt lat="45.67661" lon="5.71681">
        <ele>586.157538055</ele>
        <time>2015-12-04T13:11:59Z</time>
      </trkpt>
      <trkpt lat="45.67642" lon="5.71679">
        <ele>585.407983287</ele>
        <time>2015-12-04T13:12:09Z</time>
      </trkpt>
      <trkpt lat="45.67637" lon="5.71677">
        <ele>585.407983287</ele>
        <time>2015-12-04T13:12:14Z</time>
      </trkpt>
      <trkpt lat="45.67617" lon="5.71672">
        <ele>584.824840504</ele>
        <time>2015-12-04T13:12:30Z</time>
      </trkpt>
      <trkpt lat="45.67605" lon="5.71667">
        <ele>583.966650528</ele>
        <time>2015-12-04T13:12:40Z</time>
      </trkpt>
      <trkpt lat="45.67601" lon="5.71667">
        <ele>583.966650528</ele>
        <time>2015-12-04T13:12:44Z</time>
      </trkpt>
      <trkpt lat="45.67594" lon="5.71663">
        <ele>583.001576625</ele>
        <time>2015-12-04T13:12:49Z</time>
      </trkpt>
      <trkpt lat="45.67581" lon="5.71659">
        <ele>582.806253246</ele>
        <time>2015-12-04T13:12:59Z</time>
      </trkpt>
      <trkpt lat="45.67573" lon="5.71657">
        <ele>582.806253246</ele>
        <time>2015-12-04T13:13:05Z</time>
      </trkpt>
      <trkpt lat="45.6756" lon="5.71659">
        <ele>583.614277213</ele>
        <time>2015-12-04T13:13:15Z</time>
      </trkpt>
      <trkpt lat="45.67555" lon="5.7166">
        <ele>583.614277213</ele>
        <time>2015-12-04T13:13:19Z</time>
      </trkpt>
      <trkpt lat="45.67541" lon="5.71663">
        <ele>584.342231236</ele>
        <time>2015-12-04T13:13:30Z</time>
      </trkpt>
      <trkpt lat="45.67535" lon="5.71662">
        <ele>584.342231236</ele>
        <time>2015-12-04T13:13:34Z</time>
      </trkpt>
      <trkpt lat="45.67527" lon="5.71669">
        <ele>584.851138566</ele>
        <time>2015-12-04T13:13:44Z</time>
      </trkpt>
      <trkpt lat="45.67519" lon="5.71672">
        <ele>584.851138566</ele>
        <time>2015-12-04T13:13:49Z</time>
      </trkpt>
      <trkpt lat="45.67509" lon="5.71681">
        <ele>584.724587794</ele>
        <time>2015-12-04T13:13:59Z</time>
      </trkpt>
      <trkpt lat="45.67502" lon="5.71685">
        <ele>584.724587794</ele>
        <time>2015-12-04T13:14:05Z</time>
      </trkpt>
      <trkpt lat="45.67494" lon="5.71689">
        <ele>584.443172395</ele>
        <time>2015-12-04T13:14:14Z</time>
      </trkpt>
      <trkpt lat="45.67484" lon="5.71691">
        <ele>584.020248098</ele>
        <time>2015-12-04T13:14:19Z</time>
      </trkpt>
      <trkpt lat="45.67477" lon="5.71697">
        <ele>584.020248098</ele>
        <time>2015-12-04T13:14:30Z</time>
      </trkpt>
      <trkpt lat="45.67472" lon="5.717">
        <ele>583.468549298</ele>
        <time>2015-12-04T13:14:35Z</time>
      </trkpt>
      <trkpt lat="45.67463" lon="5.71713">
        <ele>582.944306231</ele>
        <time>2015-12-04T13:14:44Z</time>
      </trkpt>
      <trkpt lat="45.67459" lon="5.71715">
        <ele>582.944306231</ele>
        <time>2015-12-04T13:14:49Z</time>
      </trkpt>
      <trkpt lat="45.67451" lon="5.71737">
        <ele>581.871593432</ele>
        <time>2015-12-04T13:15:04Z</time>
      </trkpt>
      <trkpt lat="45.67439" lon="5.71754">
        <ele>580.727057217</ele>
        <time>2015-12-04T13:15:19Z</time>
      </trkpt>
      <trkpt lat="45.67433" lon="5.7176">
        <ele>580.727057217</ele>
        <time>2015-12-04T13:15:25Z</time>
      </trkpt>
      <trkpt lat="45.67429" lon="5.71772">
        <ele>579.087804608</ele>
        <time>2015-12-04T13:15:35Z</time>
      </trkpt>
      <trkpt lat="45.67428" lon="5.71776">
        <ele>579.087804608</ele>
        <time>2015-12-04T13:15:39Z</time>
      </trkpt>
      <trkpt lat="45.67425" lon="5.71787">
        <ele>577.7162175</ele>
        <time>2015-12-04T13:15:48Z</time>
      </trkpt>
      <trkpt lat="45.67423" lon="5.71793">
        <ele>577.7162175</ele>
        <time>2015-12-04T13:15:55Z</time>
      </trkpt>
      <trkpt lat="45.6741" lon="5.71801">
        <ele>569.535831348</ele>
        <time>2015-12-04T13:16:05Z</time>
      </trkpt>
      <trkpt lat="45.67408" lon="5.71805">
        <ele>569.535831348</ele>
        <time>2015-12-04T13:16:09Z</time>
      </trkpt>
      <trkpt lat="45.67406" lon="5.7181">
        <ele>569.535831348</ele>
        <time>2015-12-04T13:16:20Z</time>
      </trkpt>
      <trkpt lat="45.67406" lon="5.71813">
        <ele>567.464016371</ele>
        <time>2015-12-04T13:16:24Z</time>
      </trkpt>
      <trkpt lat="45.67395" lon="5.71827">
        <ele>565.438079798</ele>
        <time>2015-12-04T13:16:35Z</time>
      </trkpt>
      <trkpt lat="45.67392" lon="5.71831">
        <ele>565.438079798</ele>
        <time>2015-12-04T13:16:40Z</time>
      </trkpt>
      <trkpt lat="45.67386" lon="5.71843">
        <ele>563.460748592</ele>
        <time>2015-12-04T13:16:49Z</time>
      </trkpt>
      <trkpt lat="45.67381" lon="5.71846">
        <ele>563.460748592</ele>
        <time>2015-12-04T13:16:54Z</time>
      </trkpt>
      <trkpt lat="45.67375" lon="5.71858">
        <ele>562.11069449</ele>
        <time>2015-12-04T13:17:05Z</time>
      </trkpt>
      <trkpt lat="45.67369" lon="5.71867">
        <ele>562.11069449</ele>
        <time>2015-12-04T13:17:09Z</time>
      </trkpt>
      <trkpt lat="45.67355" lon="5.71886">
        <ele>560.769264727</ele>
        <time>2015-12-04T13:17:25Z</time>
      </trkpt>
      <trkpt lat="45.67349" lon="5.71888">
        <ele>560.769264727</ele>
        <time>2015-12-04T13:17:30Z</time>
      </trkpt>
      <trkpt lat="45.67341" lon="5.71896">
        <ele>559.727727985</ele>
        <time>2015-12-04T13:17:40Z</time>
      </trkpt>
      <trkpt lat="45.67335" lon="5.71902">
        <ele>559.727727985</ele>
        <time>2015-12-04T13:17:44Z</time>
      </trkpt>
      <trkpt lat="45.67336" lon="5.71923">
        <ele>558.102059318</ele>
        <time>2015-12-04T13:17:55Z</time>
      </trkpt>
      <trkpt lat="45.67336" lon="5.71927">
        <ele>558.102059318</ele>
        <time>2015-12-04T13:17:59Z</time>
      </trkpt>
      <trkpt lat="45.67336" lon="5.71937">
        <ele>556.37164793</ele>
        <time>2015-12-04T13:18:03Z</time>
      </trkpt>
      <trkpt lat="45.67335" lon="5.71944">
        <ele>556.37164793</ele>
        <time>2015-12-04T13:18:08Z</time>
      </trkpt>
      <trkpt lat="45.67337" lon="5.71952">
        <ele>554.404352432</ele>
        <time>2015-12-04T13:18:15Z</time>
      </trkpt>
      <trkpt lat="45.67339" lon="5.71966">
        <ele>552.222349663</ele>
        <time>2015-12-04T13:18:24Z</time>
      </trkpt>
      <trkpt lat="45.6734" lon="5.71974">
        <ele>552.222349663</ele>
        <time>2015-12-04T13:18:30Z</time>
      </trkpt>
      <trkpt lat="45.67339" lon="5.71986">
        <ele>550.855403133</ele>
        <time>2015-12-04T13:18:39Z</time>
      </trkpt>
      <trkpt lat="45.67339" lon="5.71985">
        <ele>550.855403133</ele>
        <time>2015-12-04T13:18:44Z</time>
      </trkpt>
      <trkpt lat="45.67339" lon="5.71986">
        <ele>550.855403133</ele>
        <time>2015-12-04T13:18:49Z</time>
      </trkpt>
      <trkpt lat="45.67338" lon="5.71986">
        <ele>550.855403133</ele>
        <time>2015-12-04T13:19:00Z</time>
      </trkpt>
      <trkpt lat="45.67339" lon="5.71986">
        <ele>550.855403133</ele>
        <time>2015-12-04T13:19:04Z</time>
      </trkpt>
      <trkpt lat="45.67338" lon="5.71986">
        <ele>550.855403133</ele>
        <time>2015-12-04T13:19:13Z</time>
      </trkpt>
      <trkpt lat="45.67338" lon="5.71987">
        <ele>550.855403133</ele>
        <time>2015-12-04T13:19:20Z</time>
      </trkpt>
      <trkpt lat="45.67338" lon="5.71988">
        <ele>550.855403133</ele>
        <time>2015-12-04T13:19:30Z</time>
      </trkpt>
      <trkpt lat="45.67338" lon="5.71988">
        <ele>550.855403133</ele>
        <time>2015-12-04T13:19:34Z</time>
      </trkpt>
      <trkpt lat="45.67338" lon="5.71989">
        <ele>550.855403133</ele>
        <time>2015-12-04T13:19:45Z</time>
      </trkpt>
      <trkpt lat="45.67338" lon="5.71989">
        <ele>550.855403133</ele>
        <time>2015-12-04T13:19:49Z</time>
      </trkpt>
      <trkpt lat="45.67338" lon="5.71989">
        <ele>550.855403133</ele>
        <time>2015-12-04T13:19:54Z</time>
      </trkpt>
      <trkpt lat="45.67338" lon="5.71989">
        <ele>550.855403133</ele>
        <time>2015-12-04T13:20:05Z</time>
      </trkpt>
      <trkpt lat="45.67338" lon="5.71989">
        <ele>550.855403133</ele>
        <time>2015-12-04T13:20:10Z</time>
      </trkpt>
      <trkpt lat="45.67338" lon="5.71989">
        <ele>550.855403133</ele>
        <time>2015-12-04T13:20:20Z</time>
      </trkpt>
      <trkpt lat="45.67338" lon="5.71989">
        <ele>550.855403133</ele>
        <time>2015-12-04T13:20:24Z</time>
      </trkpt>
      <trkpt lat="45.67338" lon="5.71989">
        <ele>550.855403133</ele>
        <time>2015-12-04T13:20:34Z</time>
      </trkpt>
      <trkpt lat="45.67338" lon="5.71989">
        <ele>550.855403133</ele>
        <time>2015-12-04T13:20:38Z</time>
      </trkpt>
      <trkpt lat="45.67338" lon="5.71989">
        <ele>550.855403133</ele>
        <time>2015-12-04T13:20:49Z</time>
      </trkpt>
      <trkpt lat="45.67338" lon="5.71989">
        <ele>550.855403133</ele>
        <time>2015-12-04T13:20:54Z</time>
      </trkpt>
      <trkpt lat="45.67338" lon="5.71989">
        <ele>550.855403133</ele>
        <time>2015-12-04T13:21:04Z</time>
      </trkpt>
      <trkpt lat="45.67338" lon="5.71989">
        <ele>550.855403133</ele>
        <time>2015-12-04T13:21:10Z</time>
      </trkpt>
      <trkpt lat="45.67338" lon="5.71989">
        <ele>550.855403133</ele>
        <time>2015-12-04T13:21:19Z</time>
      </trkpt>
      <trkpt lat="45.67338" lon="5.71989">
        <ele>550.855403133</ele>
        <time>2015-12-04T13:21:24Z</time>
      </trkpt>
      <trkpt lat="45.67338" lon="5.71989">
        <ele>550.855403133</ele>
        <time>2015-12-04T13:21:38Z</time>
      </trkpt>
      <trkpt lat="45.67338" lon="5.71989">
        <ele>550.855403133</ele>
        <time>2015-12-04T13:21:43Z</time>
      </trkpt>
      <trkpt lat="45.67338" lon="5.71989">
        <ele>550.855403133</ele>
        <time>2015-12-04T13:21:54Z</time>
      </trkpt>
      <trkpt lat="45.67338" lon="5.71989">
        <ele>550.855403133</ele>
        <time>2015-12-04T13:21:58Z</time>
      </trkpt>
      <trkpt lat="45.67338" lon="5.7199">
        <ele>550.855403133</ele>
        <time>2015-12-04T13:22:08Z</time>
      </trkpt>
      <trkpt lat="45.67338" lon="5.7199">
        <ele>550.855403133</ele>
        <time>2015-12-04T13:22:13Z</time>
      </trkpt>
      <trkpt lat="45.67338" lon="5.7199">
        <ele>550.855403133</ele>
        <time>2015-12-04T13:22:23Z</time>
      </trkpt>
      <trkpt lat="45.67338" lon="5.7199">
        <ele>550.855403133</ele>
        <time>2015-12-04T13:22:28Z</time>
      </trkpt>
      <trkpt lat="45.67338" lon="5.7199">
        <ele>550.855403133</ele>
        <time>2015-12-04T13:22:39Z</time>
      </trkpt>
      <trkpt lat="45.67339" lon="5.71994">
        <ele>550.855403133</ele>
        <time>2015-12-04T13:22:44Z</time>
      </trkpt>
      <trkpt lat="45.67342" lon="5.72007">
        <ele>549.814068583</ele>
        <time>2015-12-04T13:22:53Z</time>
      </trkpt>
      <trkpt lat="45.67342" lon="5.72015">
        <ele>549.814068583</ele>
        <time>2015-12-04T13:22:59Z</time>
      </trkpt>
      <trkpt lat="45.6734" lon="5.72031">
        <ele>549.076115514</ele>
        <time>2015-12-04T13:23:09Z</time>
      </trkpt>
      <trkpt lat="45.67338" lon="5.72042">
        <ele>549.076115514</ele>
        <time>2015-12-04T13:23:14Z</time>
      </trkpt>
      <trkpt lat="45.67337" lon="5.72059">
        <ele>549.052275416</ele>
        <time>2015-12-04T13:23:24Z</time>
      </trkpt>
      <trkpt lat="45.6734" lon="5.72066">
        <ele>549.052275416</ele>
        <time>2015-12-04T13:23:30Z</time>
      </trkpt>
      <trkpt lat="45.67336" lon="5.72078">
        <ele>548.968071843</ele>
        <time>2015-12-04T13:23:39Z</time>
      </trkpt>
      <trkpt lat="45.67334" lon="5.72083">
        <ele>548.968071843</ele>
        <time>2015-12-04T13:23:44Z</time>
      </trkpt>
      <trkpt lat="45.67336" lon="5.72103">
        <ele>548.826515154</ele>
        <time>2015-12-04T13:23:58Z</time>
      </trkpt>
      <trkpt lat="45.67337" lon="5.72107">
        <ele>548.826515154</ele>
        <time>2015-12-04T13:24:03Z</time>
      </trkpt>
      <trkpt lat="45.67337" lon="5.72119">
        <ele>548.774549175</ele>
        <time>2015-12-04T13:24:13Z</time>
      </trkpt>
      <trkpt lat="45.67341" lon="5.72125">
        <ele>548.774549175</ele>
        <time>2015-12-04T13:24:18Z</time>
      </trkpt>
      <trkpt lat="45.67343" lon="5.72139">
        <ele>549.668525711</ele>
        <time>2015-12-04T13:24:28Z</time>
      </trkpt>
      <trkpt lat="45.67349" lon="5.72143">
        <ele>549.668525711</ele>
        <time>2015-12-04T13:24:33Z</time>
      </trkpt>
      <trkpt lat="45.67349" lon="5.7216">
        <ele>550.137481187</ele>
        <time>2015-12-04T13:24:43Z</time>
      </trkpt>
      <trkpt lat="45.67351" lon="5.72167">
        <ele>550.137481187</ele>
        <time>2015-12-04T13:24:48Z</time>
      </trkpt>
      <trkpt lat="45.67346" lon="5.72183">
        <ele>551.073951278</ele>
        <time>2015-12-04T13:24:58Z</time>
      </trkpt>
      <trkpt lat="45.67347" lon="5.72189">
        <ele>551.073951278</ele>
        <time>2015-12-04T13:25:03Z</time>
      </trkpt>
      <trkpt lat="45.67346" lon="5.72205">
        <ele>552.294763709</ele>
        <time>2015-12-04T13:25:13Z</time>
      </trkpt>
      <trkpt lat="45.67348" lon="5.72212">
        <ele>552.294763709</ele>
        <time>2015-12-04T13:25:18Z</time>
      </trkpt>
      <trkpt lat="45.6735" lon="5.72216">
        <ele>552.294763709</ele>
        <time>2015-12-04T13:25:28Z</time>
      </trkpt>
      <trkpt lat="45.67351" lon="5.72223">
        <ele>553.197035306</ele>
        <time>2015-12-04T13:25:33Z</time>
      </trkpt>
      <trkpt lat="45.67352" lon="5.72239">
        <ele>554.520046644</ele>
        <time>2015-12-04T13:25:43Z</time>
      </trkpt>
      <trkpt lat="45.67351" lon="5.72252">
        <ele>555.362366897</ele>
        <time>2015-12-04T13:25:49Z</time>
      </trkpt>
      <trkpt lat="45.67351" lon="5.72268">
        <ele>556.187146968</ele>
        <time>2015-12-04T13:25:58Z</time>
      </trkpt>
      <trkpt lat="45.6735" lon="5.72273">
        <ele>556.187146968</ele>
        <time>2015-12-04T13:26:03Z</time>
      </trkpt>
      <trkpt lat="45.6735" lon="5.72286">
        <ele>556.847146898</ele>
        <time>2015-12-04T13:26:15Z</time>
      </trkpt>
      <trkpt lat="45.6735" lon="5.72305">
        <ele>557.78288916</ele>
        <time>2015-12-04T13:26:18Z</time>
      </trkpt>
      <trkpt lat="45.67352" lon="5.72321">
        <ele>558.248921646</ele>
        <time>2015-12-04T13:26:29Z</time>
      </trkpt>
      <trkpt lat="45.6735" lon="5.7233">
        <ele>558.248921646</ele>
        <time>2015-12-04T13:26:34Z</time>
      </trkpt>
      <trkpt lat="45.67352" lon="5.72343">
        <ele>558.132371031</ele>
        <time>2015-12-04T13:26:43Z</time>
      </trkpt>
      <trkpt lat="45.67352" lon="5.7235">
        <ele>558.132371031</ele>
        <time>2015-12-04T13:26:48Z</time>
      </trkpt>
      <trkpt lat="45.67351" lon="5.72359">
        <ele>557.762683969</ele>
        <time>2015-12-04T13:26:53Z</time>
      </trkpt>
      <trkpt lat="45.67353" lon="5.72372">
        <ele>556.869433204</ele>
        <time>2015-12-04T13:27:04Z</time>
      </trkpt>
      <trkpt lat="45.67354" lon="5.72375">
        <ele>556.869433204</ele>
        <time>2015-12-04T13:27:09Z</time>
      </trkpt>
      <trkpt lat="45.67357" lon="5.72384">
        <ele>556.356474999</ele>
        <time>2015-12-04T13:27:18Z</time>
      </trkpt>
      <trkpt lat="45.67359" lon="5.72389">
        <ele>556.356474999</ele>
        <time>2015-12-04T13:27:23Z</time>
      </trkpt>
      <trkpt lat="45.67361" lon="5.72401">
        <ele>556.051480724</ele>
        <time>2015-12-04T13:27:33Z</time>
      </trkpt>
      <trkpt lat="45.67364" lon="5.72407">
        <ele>556.051480724</ele>
        <time>2015-12-04T13:27:38Z</time>
      </trkpt>
      <trkpt lat="45.67365" lon="5.72411">
        <ele>556.051480724</ele>
        <time>2015-12-04T13:27:48Z</time>
      </trkpt>
      <trkpt lat="45.67369" lon="5.72413">
        <ele>555.650139627</ele>
        <time>2015-12-04T13:27:53Z</time>
      </trkpt>
      <trkpt lat="45.67374" lon="5.72412">
        <ele>555.650139627</ele>
        <time>2015-12-04T13:28:03Z</time>
      </trkpt>
      <trkpt lat="45.67375" lon="5.72411">
        <ele>555.650139627</ele>
        <time>2015-12-04T13:28:08Z</time>
      </trkpt>
      <trkpt lat="45.67378" lon="5.72404">
        <ele>555.014926651</ele>
        <time>2015-12-04T13:28:18Z</time>
      </trkpt>
      <trkpt lat="45.67382" lon="5.72398">
        <ele>555.014926651</ele>
        <time>2015-12-04T13:28:23Z</time>
      </trkpt>
      <trkpt lat="45.67384" lon="5.72394">
        <ele>554.451455722</ele>
        <time>2015-12-04T13:28:33Z</time>
      </trkpt>
      <trkpt lat="45.67384" lon="5.72394">
        <ele>554.451455722</ele>
        <time>2015-12-04T13:28:39Z</time>
      </trkpt>
      <trkpt lat="45.67391" lon="5.7238">
        <ele>553.954510892</ele>
        <time>2015-12-04T13:28:50Z</time>
      </trkpt>
      <trkpt lat="45.67393" lon="5.72376">
        <ele>553.954510892</ele>
        <time>2015-12-04T13:28:54Z</time>
      </trkpt>
      <trkpt lat="45.67399" lon="5.72364">
        <ele>554.672004889</ele>
        <time>2015-12-04T13:29:08Z</time>
      </trkpt>
      <trkpt lat="45.67402" lon="5.72358">
        <ele>554.672004889</ele>
        <time>2015-12-04T13:29:13Z</time>
      </trkpt>
      <trkpt lat="45.67406" lon="5.72349">
        <ele>555.502494527</ele>
        <time>2015-12-04T13:29:23Z</time>
      </trkpt>
      <trkpt lat="45.67406" lon="5.72346">
        <ele>555.502494527</ele>
        <time>2015-12-04T13:29:30Z</time>
      </trkpt>
      <trkpt lat="45.67409" lon="5.72339">
        <ele>555.502494527</ele>
        <time>2015-12-04T13:29:40Z</time>
      </trkpt>
      <trkpt lat="45.67409" lon="5.72331">
        <ele>556.866290353</ele>
        <time>2015-12-04T13:29:43Z</time>
      </trkpt>
      <trkpt lat="45.6741" lon="5.72324">
        <ele>556.866290353</ele>
        <time>2015-12-04T13:29:54Z</time>
      </trkpt>
      <trkpt lat="45.6741" lon="5.72323">
        <ele>556.866290353</ele>
        <time>2015-12-04T13:29:59Z</time>
      </trkpt>
      <trkpt lat="45.67409" lon="5.72321">
        <ele>556.866290353</ele>
        <time>2015-12-04T13:30:08Z</time>
      </trkpt>
      <trkpt lat="45.67409" lon="5.72321">
        <ele>556.866290353</ele>
        <time>2015-12-04T13:30:14Z</time>
      </trkpt>
      <trkpt lat="45.67409" lon="5.72321">
        <ele>556.866290353</ele>
        <time>2015-12-04T13:30:25Z</time>
      </trkpt>
      <trkpt lat="45.67409" lon="5.72321">
        <ele>556.866290353</ele>
        <time>2015-12-04T13:30:29Z</time>
      </trkpt>
      <trkpt lat="45.67409" lon="5.72321">
        <ele>556.866290353</ele>
        <time>2015-12-04T13:30:39Z</time>
      </trkpt>
      <trkpt lat="45.67409" lon="5.72321">
        <ele>556.866290353</ele>
        <time>2015-12-04T13:30:45Z</time>
      </trkpt>
      <trkpt lat="45.67409" lon="5.7232">
        <ele>556.866290353</ele>
        <time>2015-12-04T13:30:55Z</time>
      </trkpt>
      <trkpt lat="45.67409" lon="5.72319">
        <ele>556.866290353</ele>
        <time>2015-12-04T13:30:59Z</time>
      </trkpt>
      <trkpt lat="45.67409" lon="5.72319">
        <ele>557.998496263</ele>
        <time>2015-12-04T13:31:15Z</time>
      </trkpt>
      <trkpt lat="45.67411" lon="5.72315">
        <ele>557.998496263</ele>
        <time>2015-12-04T13:31:19Z</time>
      </trkpt>
      <trkpt lat="45.67414" lon="5.72308">
        <ele>557.998496263</ele>
        <time>2015-12-04T13:31:29Z</time>
      </trkpt>
      <trkpt lat="45.67419" lon="5.72307">
        <ele>559.199896278</ele>
        <time>2015-12-04T13:31:33Z</time>
      </trkpt>
      <trkpt lat="45.67427" lon="5.72308">
        <ele>559.199896278</ele>
        <time>2015-12-04T13:31:44Z</time>
      </trkpt>
      <trkpt lat="45.67433" lon="5.72308">
        <ele>560.749057851</ele>
        <time>2015-12-04T13:31:50Z</time>
      </trkpt>
      <trkpt lat="45.67435" lon="5.72308">
        <ele>560.749057851</ele>
        <time>2015-12-04T13:32:00Z</time>
      </trkpt>
      <trkpt lat="45.67436" lon="5.72307">
        <ele>560.749057851</ele>
        <time>2015-12-04T13:32:05Z</time>
      </trkpt>
      <trkpt lat="45.67444" lon="5.72305">
        <ele>562.470858649</ele>
        <time>2015-12-04T13:32:14Z</time>
      </trkpt>
      <trkpt lat="45.67452" lon="5.72305">
        <ele>562.470858649</ele>
        <time>2015-12-04T13:32:18Z</time>
      </trkpt>
      <trkpt lat="45.67466" lon="5.72304">
        <ele>563.770314375</ele>
        <time>2015-12-04T13:32:29Z</time>
      </trkpt>
      <trkpt lat="45.67468" lon="5.72304">
        <ele>563.770314375</ele>
        <time>2015-12-04T13:32:34Z</time>
      </trkpt>
      <trkpt lat="45.67472" lon="5.72303">
        <ele>563.770314375</ele>
        <time>2015-12-04T13:32:45Z</time>
      </trkpt>
      <trkpt lat="45.67472" lon="5.72304">
        <ele>563.770314375</ele>
        <time>2015-12-04T13:32:49Z</time>
      </trkpt>
      <trkpt lat="45.67472" lon="5.72304">
        <ele>563.770314375</ele>
        <time>2015-12-04T13:32:58Z</time>
      </trkpt>
      <trkpt lat="45.67472" lon="5.72304">
        <ele>563.770314375</ele>
        <time>2015-12-04T13:33:05Z</time>
      </trkpt>
      <trkpt lat="45.67489" lon="5.72293">
        <ele>564.817987986</ele>
        <time>2015-12-04T13:33:14Z</time>
      </trkpt>
      <trkpt lat="45.67497" lon="5.72287">
        <ele>565.772725228</ele>
        <time>2015-12-04T13:33:20Z</time>
      </trkpt>
      <trkpt lat="45.67506" lon="5.72281">
        <ele>566.926185717</ele>
        <time>2015-12-04T13:33:29Z</time>
      </trkpt>
      <trkpt lat="45.67513" lon="5.72276">
        <ele>566.926185717</ele>
        <time>2015-12-04T13:33:34Z</time>
      </trkpt>
      <trkpt lat="45.67516" lon="5.72277">
        <ele>568.259938219</ele>
        <time>2015-12-04T13:33:44Z</time>
      </trkpt>
      <trkpt lat="45.6752" lon="5.72277">
        <ele>568.259938219</ele>
        <time>2015-12-04T13:33:48Z</time>
      </trkpt>
      <trkpt lat="45.67531" lon="5.72276">
        <ele>569.035959882</ele>
        <time>2015-12-04T13:33:59Z</time>
      </trkpt>
      <trkpt lat="45.67536" lon="5.72274">
        <ele>569.035959882</ele>
        <time>2015-12-04T13:34:04Z</time>
      </trkpt>
      <trkpt lat="45.67548" lon="5.72269">
        <ele>569.869125164</ele>
        <time>2015-12-04T13:34:14Z</time>
      </trkpt>
      <trkpt lat="45.67551" lon="5.72266">
        <ele>569.869125164</ele>
        <time>2015-12-04T13:34:20Z</time>
      </trkpt>
      <trkpt lat="45.67554" lon="5.7226">
        <ele>570.752653337</ele>
        <time>2015-12-04T13:34:23Z</time>
      </trkpt>
      <trkpt lat="45.67561" lon="5.72249">
        <ele>571.680238205</ele>
        <time>2015-12-04T13:34:33Z</time>
      </trkpt>
      <trkpt lat="45.67563" lon="5.72245">
        <ele>571.680238205</ele>
        <time>2015-12-04T13:34:38Z</time>
      </trkpt>
      <trkpt lat="45.67564" lon="5.72242">
        <ele>571.680238205</ele>
        <time>2015-12-04T13:34:48Z</time>
      </trkpt>
      <trkpt lat="45.67568" lon="5.72237">
        <ele>572.934252647</ele>
        <time>2015-12-04T13:34:53Z</time>
      </trkpt>
      <trkpt lat="45.6757" lon="5.72237">
        <ele>572.934252647</ele>
        <time>2015-12-04T13:35:04Z</time>
      </trkpt>
      <trkpt lat="45.6757" lon="5.72236">
        <ele>572.934252647</ele>
        <time>2015-12-04T13:35:08Z</time>
      </trkpt>
      <trkpt lat="45.6757" lon="5.72236">
        <ele>572.934252647</ele>
        <time>2015-12-04T13:35:18Z</time>
      </trkpt>
      <trkpt lat="45.6757" lon="5.72236">
        <ele>572.934252647</ele>
        <time>2015-12-04T13:35:25Z</time>
      </trkpt>
      <trkpt lat="45.6757" lon="5.72236">
        <ele>572.934252647</ele>
        <time>2015-12-04T13:35:33Z</time>
      </trkpt>
      <trkpt lat="45.6757" lon="5.72236">
        <ele>572.934252647</ele>
        <time>2015-12-04T13:35:39Z</time>
      </trkpt>
      <trkpt lat="45.67575" lon="5.7223">
        <ele>574.919640146</ele>
        <time>2015-12-04T13:35:49Z</time>
      </trkpt>
      <trkpt lat="45.67576" lon="5.7223">
        <ele>574.919640146</ele>
        <time>2015-12-04T13:35:54Z</time>
      </trkpt>
      <trkpt lat="45.67579" lon="5.72227">
        <ele>574.919640146</ele>
        <time>2015-12-04T13:36:04Z</time>
      </trkpt>
      <trkpt lat="45.6758" lon="5.72228">
        <ele>574.919640146</ele>
        <time>2015-12-04T13:36:10Z</time>
      </trkpt>
      <trkpt lat="45.6758" lon="5.72228">
        <ele>574.919640146</ele>
        <time>2015-12-04T13:36:19Z</time>
      </trkpt>
      <trkpt lat="45.6758" lon="5.72228">
        <ele>574.919640146</ele>
        <time>2015-12-04T13:36:24Z</time>
      </trkpt>
      <trkpt lat="45.67581" lon="5.72226">
        <ele>574.919640146</ele>
        <time>2015-12-04T13:36:35Z</time>
      </trkpt>
      <trkpt lat="45.67586" lon="5.72223">
        <ele>576.712665262</ele>
        <time>2015-12-04T13:36:39Z</time>
      </trkpt>
      <trkpt lat="45.67596" lon="5.72217">
        <ele>579.187448143</ele>
        <time>2015-12-04T13:36:50Z</time>
      </trkpt>
      <trkpt lat="45.67603" lon="5.7221">
        <ele>579.187448143</ele>
        <time>2015-12-04T13:36:54Z</time>
      </trkpt>
      <trkpt lat="45.67608" lon="5.722">
        <ele>581.711003755</ele>
        <time>2015-12-04T13:37:05Z</time>
      </trkpt>
      <trkpt lat="45.67612" lon="5.72197">
        <ele>581.711003755</ele>
        <time>2015-12-04T13:37:09Z</time>
      </trkpt>
      <trkpt lat="45.67618" lon="5.72189">
        <ele>583.55273562</ele>
        <time>2015-12-04T13:37:20Z</time>
      </trkpt>
      <trkpt lat="45.6762" lon="5.72182">
        <ele>583.55273562</ele>
        <time>2015-12-04T13:37:24Z</time>
      </trkpt>
      <trkpt lat="45.67627" lon="5.72177">
        <ele>585.622996069</ele>
        <time>2015-12-04T13:37:35Z</time>
      </trkpt>
      <trkpt lat="45.67627" lon="5.72178">
        <ele>585.622996069</ele>
        <time>2015-12-04T13:37:39Z</time>
      </trkpt>
      <trkpt lat="45.6765" lon="5.72179">
        <ele>587.035436583</ele>
        <time>2015-12-04T13:37:55Z</time>
      </trkpt>
      <trkpt lat="45.67655" lon="5.72179">
        <ele>587.035436583</ele>
        <time>2015-12-04T13:37:59Z</time>
      </trkpt>
      <trkpt lat="45.67666" lon="5.72175">
        <ele>588.267814681</ele>
        <time>2015-12-04T13:38:10Z</time>
      </trkpt>
      <trkpt lat="45.67673" lon="5.72175">
        <ele>588.267814681</ele>
        <time>2015-12-04T13:38:14Z</time>
      </trkpt>
      <trkpt lat="45.67684" lon="5.72167">
        <ele>589.187000241</ele>
        <time>2015-12-04T13:38:24Z</time>
      </trkpt>
      <trkpt lat="45.67687" lon="5.7216">
        <ele>589.187000241</ele>
        <time>2015-12-04T13:38:28Z</time>
      </trkpt>
      <trkpt lat="45.67692" lon="5.72161">
        <ele>589.958887227</ele>
        <time>2015-12-04T13:38:39Z</time>
      </trkpt>
      <trkpt lat="45.67694" lon="5.72162">
        <ele>589.958887227</ele>
        <time>2015-12-04T13:38:45Z</time>
      </trkpt>
      <trkpt lat="45.677" lon="5.72155">
        <ele>590.305399207</ele>
        <time>2015-12-04T13:38:54Z</time>
      </trkpt>
      <trkpt lat="45.67703" lon="5.72152">
        <ele>590.305399207</ele>
        <time>2015-12-04T13:38:59Z</time>
      </trkpt>
      <trkpt lat="45.67716" lon="5.72147">
        <ele>590.54665248</ele>
        <time>2015-12-04T13:39:10Z</time>
      </trkpt>
      <trkpt lat="45.67716" lon="5.72149">
        <ele>590.54665248</ele>
        <time>2015-12-04T13:39:14Z</time>
      </trkpt>
      <trkpt lat="45.67732" lon="5.72149">
        <ele>590.691437626</ele>
        <time>2015-12-04T13:39:28Z</time>
      </trkpt>
      <trkpt lat="45.67744" lon="5.72148">
        <ele>591.468832437</ele>
        <time>2015-12-04T13:39:40Z</time>
      </trkpt>
      <trkpt lat="45.67751" lon="5.72148">
        <ele>591.468832437</ele>
        <time>2015-12-04T13:39:45Z</time>
      </trkpt>
      <trkpt lat="45.67761" lon="5.72149">
        <ele>592.688012651</ele>
        <time>2015-12-04T13:40:00Z</time>
      </trkpt>
      <trkpt lat="45.67763" lon="5.72149">
        <ele>592.688012651</ele>
        <time>2015-12-04T13:40:04Z</time>
      </trkpt>
      <trkpt lat="45.67779" lon="5.7215">
        <ele>593.882800041</ele>
        <time>2015-12-04T13:40:14Z</time>
      </trkpt>
      <trkpt lat="45.67786" lon="5.72148">
        <ele>593.882800041</ele>
        <time>2015-12-04T13:40:19Z</time>
      </trkpt>
      <trkpt lat="45.67795" lon="5.72149">
        <ele>594.477302598</ele>
        <time>2015-12-04T13:40:30Z</time>
      </trkpt>
      <trkpt lat="45.67803" lon="5.72145">
        <ele>594.477302598</ele>
        <time>2015-12-04T13:40:34Z</time>
      </trkpt>
      <trkpt lat="45.67816" lon="5.72142">
        <ele>594.51613944</ele>
        <time>2015-12-04T13:40:45Z</time>
      </trkpt>
      <trkpt lat="45.6782" lon="5.72145">
        <ele>594.51613944</ele>
        <time>2015-12-04T13:40:49Z</time>
      </trkpt>
      <trkpt lat="45.67832" lon="5.72149">
        <ele>594.762837613</ele>
        <time>2015-12-04T13:41:05Z</time>
      </trkpt>
      <trkpt lat="45.67833" lon="5.72151">
        <ele>594.762837613</ele>
        <time>2015-12-04T13:41:09Z</time>
      </trkpt>
      <trkpt lat="45.67832" lon="5.7215">
        <ele>594.762837613</ele>
        <time>2015-12-04T13:41:20Z</time>
      </trkpt>
      <trkpt lat="45.67832" lon="5.72151">
        <ele>594.762837613</ele>
        <time>2015-12-04T13:41:24Z</time>
      </trkpt>
      <trkpt lat="45.67839" lon="5.72154">
        <ele>594.339091177</ele>
        <time>2015-12-04T13:41:33Z</time>
      </trkpt>
      <trkpt lat="45.67847" lon="5.72159">
        <ele>593.441821768</ele>
        <time>2015-12-04T13:41:40Z</time>
      </trkpt>
      <trkpt lat="45.6786" lon="5.72164">
        <ele>592.39895935</ele>
        <time>2015-12-04T13:41:50Z</time>
      </trkpt>
      <trkpt lat="45.67867" lon="5.72167">
        <ele>592.39895935</ele>
        <time>2015-12-04T13:41:55Z</time>
      </trkpt>
      <trkpt lat="45.67878" lon="5.72177">
        <ele>591.514772105</ele>
        <time>2015-12-04T13:42:04Z</time>
      </trkpt>
      <trkpt lat="45.67885" lon="5.72181">
        <ele>591.514772105</ele>
        <time>2015-12-04T13:42:10Z</time>
      </trkpt>
      <trkpt lat="45.67895" lon="5.72187">
        <ele>590.782512939</ele>
        <time>2015-12-04T13:42:20Z</time>
      </trkpt>
      <trkpt lat="45.67902" lon="5.72186">
        <ele>590.782512939</ele>
        <time>2015-12-04T13:42:25Z</time>
      </trkpt>
      <trkpt lat="45.67914" lon="5.72184">
        <ele>589.907270167</ele>
        <time>2015-12-04T13:42:34Z</time>
      </trkpt>
      <trkpt lat="45.67916" lon="5.72182">
        <ele>589.907270167</ele>
        <time>2015-12-04T13:42:39Z</time>
      </trkpt>
      <trkpt lat="45.67926" lon="5.72178">
        <ele>589.480839537</ele>
        <time>2015-12-04T13:42:50Z</time>
      </trkpt>
      <trkpt lat="45.67933" lon="5.72174">
        <ele>589.480839537</ele>
        <time>2015-12-04T13:42:54Z</time>
      </trkpt>
      <trkpt lat="45.67949" lon="5.72169">
        <ele>588.897359329</ele>
        <time>2015-12-04T13:43:10Z</time>
      </trkpt>
      <trkpt lat="45.67957" lon="5.72168">
        <ele>588.897359329</ele>
        <time>2015-12-04T13:43:14Z</time>
      </trkpt>
      <trkpt lat="45.67964" lon="5.72169">
        <ele>588.02820173</ele>
        <time>2015-12-04T13:43:25Z</time>
      </trkpt>
      <trkpt lat="45.67969" lon="5.72167">
        <ele>588.02820173</ele>
        <time>2015-12-04T13:43:29Z</time>
      </trkpt>
      <trkpt lat="45.67971" lon="5.72166">
        <ele>588.02820173</ele>
        <time>2015-12-04T13:43:33Z</time>
      </trkpt>
      <trkpt lat="45.67971" lon="5.72168">
        <ele>588.02820173</ele>
        <time>2015-12-04T13:43:38Z</time>
      </trkpt>
      <trkpt lat="45.67971" lon="5.72168">
        <ele>588.02820173</ele>
        <time>2015-12-04T13:43:43Z</time>
      </trkpt>
      <trkpt lat="45.67979" lon="5.72173">
        <ele>587.187267039</ele>
        <time>2015-12-04T13:43:55Z</time>
      </trkpt>
      <trkpt lat="45.6798" lon="5.72175">
        <ele>587.187267039</ele>
        <time>2015-12-04T13:43:59Z</time>
      </trkpt>
      <trkpt lat="45.67988" lon="5.72181">
        <ele>585.944696498</ele>
        <time>2015-12-04T13:44:09Z</time>
      </trkpt>
      <trkpt lat="45.67991" lon="5.72185">
        <ele>585.944696498</ele>
        <time>2015-12-04T13:44:15Z</time>
      </trkpt>
      <trkpt lat="45.68009" lon="5.7219">
        <ele>584.19148182</ele>
        <time>2015-12-04T13:44:30Z</time>
      </trkpt>
      <trkpt lat="45.68016" lon="5.72187">
        <ele>584.19148182</ele>
        <time>2015-12-04T13:44:34Z</time>
      </trkpt>
      <trkpt lat="45.68025" lon="5.72189">
        <ele>582.26030092</ele>
        <time>2015-12-04T13:44:44Z</time>
      </trkpt>
      <trkpt lat="45.68032" lon="5.72192">
        <ele>582.26030092</ele>
        <time>2015-12-04T13:44:50Z</time>
      </trkpt>
      <trkpt lat="45.68038" lon="5.72198">
        <ele>579.595124242</ele>
        <time>2015-12-04T13:44:59Z</time>
      </trkpt>
      <trkpt lat="45.68044" lon="5.72199">
        <ele>579.595124242</ele>
        <time>2015-12-04T13:45:05Z</time>
      </trkpt>
      <trkpt lat="45.68061" lon="5.72209">
        <ele>577.12382206</ele>
        <time>2015-12-04T13:45:19Z</time>
      </trkpt>
      <trkpt lat="45.68067" lon="5.72214">
        <ele>577.12382206</ele>
        <time>2015-12-04T13:45:25Z</time>
      </trkpt>
      <trkpt lat="45.68077" lon="5.72217">
        <ele>575.273095115</ele>
        <time>2015-12-04T13:45:35Z</time>
      </trkpt>
      <trkpt lat="45.6808" lon="5.72216">
        <ele>575.273095115</ele>
        <time>2015-12-04T13:45:39Z</time>
      </trkpt>
      <trkpt lat="45.68085" lon="5.72214">
        <ele>575.273095115</ele>
        <time>2015-12-04T13:45:48Z</time>
      </trkpt>
      <trkpt lat="45.68085" lon="5.72213">
        <ele>575.273095115</ele>
        <time>2015-12-04T13:45:53Z</time>
      </trkpt>
      <trkpt lat="45.68088" lon="5.72217">
        <ele>572.851189117</ele>
        <time>2015-12-04T13:45:58Z</time>
      </trkpt>
      <trkpt lat="45.68087" lon="5.72216">
        <ele>572.851189117</ele>
        <time>2015-12-04T13:46:03Z</time>
      </trkpt>
      <trkpt lat="45.68089" lon="5.72215">
        <ele>572.851189117</ele>
        <time>2015-12-04T13:46:09Z</time>
      </trkpt>
      <trkpt lat="45.68089" lon="5.72221">
        <ele>572.851189117</ele>
        <time>2015-12-04T13:46:19Z</time>
      </trkpt>
      <trkpt lat="45.68087" lon="5.72226">
        <ele>570.340560924</ele>
        <time>2015-12-04T13:46:24Z</time>
      </trkpt>
      <trkpt lat="45.68081" lon="5.72235">
        <ele>567.611858923</ele>
        <time>2015-12-04T13:46:34Z</time>
      </trkpt>
      <trkpt lat="45.68079" lon="5.72238">
        <ele>567.611858923</ele>
        <time>2015-12-04T13:46:39Z</time>
      </trkpt>
      <trkpt lat="45.68077" lon="5.72243">
        <ele>567.611858923</ele>
        <time>2015-12-04T13:46:49Z</time>
      </trkpt>
      <trkpt lat="45.68076" lon="5.72244">
        <ele>567.611858923</ele>
        <time>2015-12-04T13:46:54Z</time>
      </trkpt>
      <trkpt lat="45.68071" lon="5.7226">
        <ele>565.266218708</ele>
        <time>2015-12-04T13:47:08Z</time>
      </trkpt>
      <trkpt lat="45.68071" lon="5.72268">
        <ele>565.266218708</ele>
        <time>2015-12-04T13:47:13Z</time>
      </trkpt>
      <trkpt lat="45.68067" lon="5.72282">
        <ele>562.274125474</ele>
        <time>2015-12-04T13:47:23Z</time>
      </trkpt>
      <trkpt lat="45.68066" lon="5.72291">
        <ele>562.274125474</ele>
        <time>2015-12-04T13:47:28Z</time>
      </trkpt>
      <trkpt lat="45.68066" lon="5.723">
        <ele>558.836189521</ele>
        <time>2015-12-04T13:47:39Z</time>
      </trkpt>
      <trkpt lat="45.68069" lon="5.72303">
        <ele>558.836189521</ele>
        <time>2015-12-04T13:47:44Z</time>
      </trkpt>
      <trkpt lat="45.68077" lon="5.72316">
        <ele>554.851095254</ele>
        <time>2015-12-04T13:47:55Z</time>
      </trkpt>
      <trkpt lat="45.68079" lon="5.72321">
        <ele>554.851095254</ele>
        <time>2015-12-04T13:47:59Z</time>
      </trkpt>
      <trkpt lat="45.68079" lon="5.72328">
        <ele>554.851095254</ele>
        <time>2015-12-04T13:48:10Z</time>
      </trkpt>
      <trkpt lat="45.68079" lon="5.72333">
        <ele>551.23505273</ele>
        <time>2015-12-04T13:48:15Z</time>
      </trkpt>
      <trkpt lat="45.68072" lon="5.72355">
        <ele>548.835691297</ele>
        <time>2015-12-04T13:48:25Z</time>
      </trkpt>
      <trkpt lat="45.6807" lon="5.72361">
        <ele>548.835691297</ele>
        <time>2015-12-04T13:48:29Z</time>
      </trkpt>
      <trkpt lat="45.68067" lon="5.72373">
        <ele>545.696597361</ele>
        <time>2015-12-04T13:48:39Z</time>
      </trkpt>
      <trkpt lat="45.68063" lon="5.72381">
        <ele>545.696597361</ele>
        <time>2015-12-04T13:48:44Z</time>
      </trkpt>
      <trkpt lat="45.68054" lon="5.72394">
        <ele>542.168557941</ele>
        <time>2015-12-04T13:48:58Z</time>
      </trkpt>
      <trkpt lat="45.68053" lon="5.72397">
        <ele>542.168557941</ele>
        <time>2015-12-04T13:49:03Z</time>
      </trkpt>
      <trkpt lat="45.68043" lon="5.72397">
        <ele>538.145083643</ele>
        <time>2015-12-04T13:49:13Z</time>
      </trkpt>
      <trkpt lat="45.68038" lon="5.72398">
        <ele>538.145083643</ele>
        <time>2015-12-04T13:49:18Z</time>
      </trkpt>
      <trkpt lat="45.68029" lon="5.72404">
        <ele>534.825627504</ele>
        <time>2015-12-04T13:49:29Z</time>
      </trkpt>
      <trkpt lat="45.68024" lon="5.72408">
        <ele>534.825627504</ele>
        <time>2015-12-04T13:49:35Z</time>
      </trkpt>
      <trkpt lat="45.6802" lon="5.72418">
        <ele>532.742837614</ele>
        <time>2015-12-04T13:49:45Z</time>
      </trkpt>
      <trkpt lat="45.68017" lon="5.72425">
        <ele>532.742837614</ele>
        <time>2015-12-04T13:49:49Z</time>
      </trkpt>
      <trkpt lat="45.68011" lon="5.72438">
        <ele>530.22482145</ele>
        <time>2015-12-04T13:49:59Z</time>
      </trkpt>
      <trkpt lat="45.68009" lon="5.7244">
        <ele>530.22482145</ele>
        <time>2015-12-04T13:50:05Z</time>
      </trkpt>
      <trkpt lat="45.68005" lon="5.72449">
        <ele>528.317451806</ele>
        <time>2015-12-04T13:50:15Z</time>
      </trkpt>
      <trkpt lat="45.68002" lon="5.72454">
        <ele>528.317451806</ele>
        <time>2015-12-04T13:50:19Z</time>
      </trkpt>
      <trkpt lat="45.67996" lon="5.72468">
        <ele>525.970236234</ele>
        <time>2015-12-04T13:50:29Z</time>
      </trkpt>
      <trkpt lat="45.67992" lon="5.72478">
        <ele>525.970236234</ele>
        <time>2015-12-04T13:50:33Z</time>
      </trkpt>
      <trkpt lat="45.67983" lon="5.72489">
        <ele>524.516606308</ele>
        <time>2015-12-04T13:50:44Z</time>
      </trkpt>
      <trkpt lat="45.67983" lon="5.7249">
        <ele>524.516606308</ele>
        <time>2015-12-04T13:50:49Z</time>
      </trkpt>
      <trkpt lat="45.67971" lon="5.72499">
        <ele>523.171731024</ele>
        <time>2015-12-04T13:51:00Z</time>
      </trkpt>
      <trkpt lat="45.67966" lon="5.72504">
        <ele>523.171731024</ele>
        <time>2015-12-04T13:51:05Z</time>
      </trkpt>
      <trkpt lat="45.67954" lon="5.72514">
        <ele>521.784338315</ele>
        <time>2015-12-04T13:51:14Z</time>
      </trkpt>
      <trkpt lat="45.67951" lon="5.72518">
        <ele>521.784338315</ele>
        <time>2015-12-04T13:51:19Z</time>
      </trkpt>
      <trkpt lat="45.67935" lon="5.72535">
        <ele>520.214167182</ele>
        <time>2015-12-04T13:51:34Z</time>
      </trkpt>
      <trkpt lat="45.67929" lon="5.72538">
        <ele>520.214167182</ele>
        <time>2015-12-04T13:51:39Z</time>
      </trkpt>
      <trkpt lat="45.67925" lon="5.7254">
        <ele>519.052122893</ele>
        <time>2015-12-04T13:51:44Z</time>
      </trkpt>
      <trkpt lat="45.67922" lon="5.72541">
        <ele>519.052122893</ele>
        <time>2015-12-04T13:51:48Z</time>
      </trkpt>
      <trkpt lat="45.67923" lon="5.72539">
        <ele>519.052122893</ele>
        <time>2015-12-04T13:51:53Z</time>
      </trkpt>
      <trkpt lat="45.67926" lon="5.72538">
        <ele>519.052122893</ele>
        <time>2015-12-04T13:51:58Z</time>
      </trkpt>
      <trkpt lat="45.67932" lon="5.72532">
        <ele>517.547365842</ele>
        <time>2015-12-04T13:52:03Z</time>
      </trkpt>
      <trkpt lat="45.67935" lon="5.72533">
        <ele>517.547365842</ele>
        <time>2015-12-04T13:52:08Z</time>
      </trkpt>
      <trkpt lat="45.67942" lon="5.72529">
        <ele>515.869662236</ele>
        <time>2015-12-04T13:52:13Z</time>
      </trkpt>
      <trkpt lat="45.67953" lon="5.72523">
        <ele>515.041294412</ele>
        <time>2015-12-04T13:52:23Z</time>
      </trkpt>
      <trkpt lat="45.67958" lon="5.72523">
        <ele>515.041294412</ele>
        <time>2015-12-04T13:52:28Z</time>
      </trkpt>
      <trkpt lat="45.67961" lon="5.72522">
        <ele>515.041294412</ele>
        <time>2015-12-04T13:52:38Z</time>
      </trkpt>
      <trkpt lat="45.67968" lon="5.72517">
        <ele>514.565803485</ele>
        <time>2015-12-04T13:52:43Z</time>
      </trkpt>
      <trkpt lat="45.67979" lon="5.725">
        <ele>513.40562891</ele>
        <time>2015-12-04T13:52:59Z</time>
      </trkpt>
      <trkpt lat="45.67988" lon="5.72492">
        <ele>512.907007275</ele>
        <time>2015-12-04T13:53:04Z</time>
      </trkpt>
      <trkpt lat="45.6799" lon="5.72485">
        <ele>512.907007275</ele>
        <time>2015-12-04T13:53:08Z</time>
      </trkpt>
      <trkpt lat="45.67996" lon="5.72477">
        <ele>512.730098707</ele>
        <time>2015-12-04T13:53:13Z</time>
      </trkpt>
      <trkpt lat="45.68009" lon="5.72461">
        <ele>513.711929371</ele>
        <time>2015-12-04T13:53:24Z</time>
      </trkpt>
      <trkpt lat="45.6801" lon="5.72458">
        <ele>513.711929371</ele>
        <time>2015-12-04T13:53:29Z</time>
      </trkpt>
      <trkpt lat="45.68011" lon="5.7245">
        <ele>513.711929371</ele>
        <time>2015-12-04T13:53:34Z</time>
      </trkpt>
      <trkpt lat="45.68012" lon="5.72446">
        <ele>515.183611546</ele>
        <time>2015-12-04T13:53:40Z</time>
      </trkpt>
      <trkpt lat="45.68015" lon="5.72437">
        <ele>515.183611546</ele>
        <time>2015-12-04T13:53:44Z</time>
      </trkpt>
      <trkpt lat="45.6802" lon="5.72421">
        <ele>516.379867865</ele>
        <time>2015-12-04T13:53:54Z</time>
      </trkpt>
      <trkpt lat="45.68022" lon="5.72413">
        <ele>516.379867865</ele>
        <time>2015-12-04T13:54:03Z</time>
      </trkpt>
      <trkpt lat="45.68025" lon="5.72413">
        <ele>516.379867865</ele>
        <time>2015-12-04T13:54:08Z</time>
      </trkpt>
      <trkpt lat="45.68025" lon="5.72414">
        <ele>517.457062287</ele>
        <time>2015-12-04T13:54:13Z</time>
      </trkpt>
      <trkpt lat="45.68025" lon="5.72413">
        <ele>517.457062287</ele>
        <time>2015-12-04T13:54:18Z</time>
      </trkpt>
      <trkpt lat="45.68026" lon="5.72414">
        <ele>517.457062287</ele>
        <time>2015-12-04T13:54:23Z</time>
      </trkpt>
      <trkpt lat="45.68029" lon="5.72414">
        <ele>517.457062287</ele>
        <time>2015-12-04T13:54:28Z</time>
      </trkpt>
      <trkpt lat="45.68044" lon="5.72405">
        <ele>519.280973544</ele>
        <time>2015-12-04T13:54:43Z</time>
      </trkpt>
      <trkpt lat="45.68048" lon="5.72405">
        <ele>519.280973544</ele>
        <time>2015-12-04T13:54:48Z</time>
      </trkpt>
      <trkpt lat="45.68056" lon="5.72403">
        <ele>520.922388349</ele>
        <time>2015-12-04T13:54:59Z</time>
      </trkpt>
      <trkpt lat="45.68064" lon="5.72395">
        <ele>522.673814352</ele>
        <time>2015-12-04T13:55:09Z</time>
      </trkpt>
      <trkpt lat="45.68066" lon="5.72391">
        <ele>522.673814352</ele>
        <time>2015-12-04T13:55:13Z</time>
      </trkpt>
      <trkpt lat="45.68066" lon="5.72391">
        <ele>522.673814352</ele>
        <time>2015-12-04T13:55:18Z</time>
      </trkpt>
      <trkpt lat="45.68066" lon="5.7239">
        <ele>522.673814352</ele>
        <time>2015-12-04T13:55:23Z</time>
      </trkpt>
      <trkpt lat="45.68066" lon="5.72391">
        <ele>522.673814352</ele>
        <time>2015-12-04T13:55:28Z</time>
      </trkpt>
      <trkpt lat="45.68066" lon="5.72391">
        <ele>522.673814352</ele>
        <time>2015-12-04T13:55:33Z</time>
      </trkpt>
      <trkpt lat="45.68066" lon="5.72391">
        <ele>522.673814352</ele>
        <time>2015-12-04T13:55:38Z</time>
      </trkpt>
      <trkpt lat="45.68068" lon="5.72391">
        <ele>522.673814352</ele>
        <time>2015-12-04T13:55:43Z</time>
      </trkpt>
      <trkpt lat="45.68068" lon="5.72391">
        <ele>522.673814352</ele>
        <time>2015-12-04T13:55:48Z</time>
      </trkpt>
      <trkpt lat="45.68068" lon="5.72391">
        <ele>522.673814352</ele>
        <time>2015-12-04T13:55:53Z</time>
      </trkpt>
      <trkpt lat="45.68067" lon="5.7239">
        <ele>522.673814352</ele>
        <time>2015-12-04T13:55:58Z</time>
      </trkpt>
      <trkpt lat="45.68065" lon="5.72393">
        <ele>524.229601278</ele>
        <time>2015-12-04T13:56:04Z</time>
      </trkpt>
      <trkpt lat="45.68059" lon="5.72395">
        <ele>524.229601278</ele>
        <time>2015-12-04T13:56:09Z</time>
      </trkpt>
      <trkpt lat="45.68048" lon="5.72398">
        <ele>525.595426611</ele>
        <time>2015-12-04T13:56:19Z</time>
      </trkpt>
      <trkpt lat="45.68043" lon="5.724">
        <ele>525.595426611</ele>
        <time>2015-12-04T13:56:24Z</time>
      </trkpt>
      <trkpt lat="45.68041" lon="5.72399">
        <ele>525.595426611</ele>
        <time>2015-12-04T13:56:28Z</time>
      </trkpt>
      <trkpt lat="45.68039" lon="5.72404">
        <ele>526.777205383</ele>
        <time>2015-12-04T13:56:33Z</time>
      </trkpt>
      <trkpt lat="45.68041" lon="5.72411">
        <ele>526.777205383</ele>
        <time>2015-12-04T13:56:49Z</time>
      </trkpt>
      <trkpt lat="45.68042" lon="5.72415">
        <ele>526.777205383</ele>
        <time>2015-12-04T13:56:54Z</time>
      </trkpt>
      <trkpt lat="45.68041" lon="5.72417">
        <ele>527.92518262</ele>
        <time>2015-12-04T13:57:04Z</time>
      </trkpt>
      <trkpt lat="45.68049" lon="5.72426">
        <ele>528.746476907</ele>
        <time>2015-12-04T13:57:20Z</time>
      </trkpt>
      <trkpt lat="45.68051" lon="5.72429">
        <ele>528.746476907</ele>
        <time>2015-12-04T13:57:24Z</time>
      </trkpt>
      <trkpt lat="45.68053" lon="5.72432">
        <ele>528.746476907</ele>
        <time>2015-12-04T13:57:34Z</time>
      </trkpt>
      <trkpt lat="45.68053" lon="5.72431">
        <ele>528.746476907</ele>
        <time>2015-12-04T13:57:38Z</time>
      </trkpt>
      <trkpt lat="45.68053" lon="5.72432">
        <ele>528.746476907</ele>
        <time>2015-12-04T13:57:45Z</time>
      </trkpt>
      <trkpt lat="45.68055" lon="5.72437">
        <ele>529.835464371</ele>
        <time>2015-12-04T13:57:53Z</time>
      </trkpt>
      <trkpt lat="45.68054" lon="5.72442">
        <ele>529.835464371</ele>
        <time>2015-12-04T13:57:58Z</time>
      </trkpt>
      <trkpt lat="45.68059" lon="5.72453">
        <ele>530.589385136</ele>
        <time>2015-12-04T13:58:08Z</time>
      </trkpt>
      <trkpt lat="45.6806" lon="5.72455">
        <ele>530.589385136</ele>
        <time>2015-12-04T13:58:15Z</time>
      </trkpt>
      <trkpt lat="45.6806" lon="5.72458">
        <ele>530.589385136</ele>
        <time>2015-12-04T13:58:25Z</time>
      </trkpt>
      <trkpt lat="45.68061" lon="5.72461">
        <ele>530.589385136</ele>
        <time>2015-12-04T13:58:29Z</time>
      </trkpt>
      <trkpt lat="45.68064" lon="5.72464">
        <ele>531.747871602</ele>
        <time>2015-12-04T13:58:40Z</time>
      </trkpt>
      <trkpt lat="45.68067" lon="5.72467">
        <ele>531.747871602</ele>
        <time>2015-12-04T13:58:44Z</time>
      </trkpt>
      <trkpt lat="45.6808" lon="5.72475">
        <ele>531.833597891</ele>
        <time>2015-12-04T13:59:00Z</time>
      </trkpt>
      <trkpt lat="45.68088" lon="5.7248">
        <ele>531.930839922</ele>
        <time>2015-12-04T13:59:13Z</time>
      </trkpt>
      <trkpt lat="45.6809" lon="5.72482">
        <ele>531.930839922</ele>
        <time>2015-12-04T13:59:19Z</time>
      </trkpt>
      <trkpt lat="45.68099" lon="5.72481">
        <ele>531.89147997</ele>
        <time>2015-12-04T13:59:29Z</time>
      </trkpt>
      <trkpt lat="45.68097" lon="5.72481">
        <ele>531.89147997</ele>
        <time>2015-12-04T13:59:34Z</time>
      </trkpt>
      <trkpt lat="45.68097" lon="5.72482">
        <ele>531.89147997</ele>
        <time>2015-12-04T13:59:44Z</time>
      </trkpt>
      <trkpt lat="45.68097" lon="5.72482">
        <ele>531.89147997</ele>
        <time>2015-12-04T13:59:49Z</time>
      </trkpt>
      <trkpt lat="45.68093" lon="5.72489">
        <ele>531.89147997</ele>
        <time>2015-12-04T13:59:59Z</time>
      </trkpt>
      <trkpt lat="45.68092" lon="5.72494">
        <ele>532.443507423</ele>
        <time>2015-12-04T14:00:04Z</time>
      </trkpt>
      <trkpt lat="45.68094" lon="5.72494">
        <ele>532.443507423</ele>
        <time>2015-12-04T14:00:14Z</time>
      </trkpt>
      <trkpt lat="45.68098" lon="5.72505">
        <ele>532.530613129</ele>
        <time>2015-12-04T14:00:19Z</time>
      </trkpt>
      <trkpt lat="45.68097" lon="5.72512">
        <ele>532.530613129</ele>
        <time>2015-12-04T14:00:30Z</time>
      </trkpt>
      <trkpt lat="45.68101" lon="5.72517">
        <ele>532.472556439</ele>
        <time>2015-12-04T14:00:34Z</time>
      </trkpt>
      <trkpt lat="45.68104" lon="5.72521">
        <ele>532.472556439</ele>
        <time>2015-12-04T14:00:44Z</time>
      </trkpt>
      <trkpt lat="45.68105" lon="5.72523">
        <ele>532.472556439</ele>
        <time>2015-12-04T14:00:49Z</time>
      </trkpt>
      <trkpt lat="45.68118" lon="5.72529">
        <ele>532.56617819</ele>
        <time>2015-12-04T14:01:04Z</time>
      </trkpt>
      <trkpt lat="45.68124" lon="5.72533">
        <ele>532.56617819</ele>
        <time>2015-12-04T14:01:09Z</time>
      </trkpt>
      <trkpt lat="45.68131" lon="5.72536">
        <ele>532.077467677</ele>
        <time>2015-12-04T14:01:19Z</time>
      </trkpt>
      <trkpt lat="45.68133" lon="5.72536">
        <ele>532.077467677</ele>
        <time>2015-12-04T14:01:24Z</time>
      </trkpt>
      <trkpt lat="45.68136" lon="5.7254">
        <ele>532.077467677</ele>
        <time>2015-12-04T14:01:35Z</time>
      </trkpt>
      <trkpt lat="45.68142" lon="5.72539">
        <ele>531.048673436</ele>
        <time>2015-12-04T14:01:40Z</time>
      </trkpt>
      <trkpt lat="45.68144" lon="5.72539">
        <ele>531.048673436</ele>
        <time>2015-12-04T14:01:49Z</time>
      </trkpt>
      <trkpt lat="45.68144" lon="5.72538">
        <ele>531.048673436</ele>
        <time>2015-12-04T14:01:53Z</time>
      </trkpt>
      <trkpt lat="45.68145" lon="5.72538">
        <ele>531.048673436</ele>
        <time>2015-12-04T14:01:58Z</time>
      </trkpt>
      <trkpt lat="45.68145" lon="5.72538">
        <ele>531.048673436</ele>
        <time>2015-12-04T14:02:04Z</time>
      </trkpt>
      <trkpt lat="45.68151" lon="5.7254">
        <ele>529.520594734</ele>
        <time>2015-12-04T14:02:15Z</time>
      </trkpt>
      <trkpt lat="45.68152" lon="5.72541">
        <ele>529.520594734</ele>
        <time>2015-12-04T14:02:18Z</time>
      </trkpt>
      <trkpt lat="45.68155" lon="5.72545">
        <ele>529.520594734</ele>
        <time>2015-12-04T14:02:28Z</time>
      </trkpt>
      <trkpt lat="45.68157" lon="5.72546">
        <ele>529.520594734</ele>
        <time>2015-12-04T14:02:35Z</time>
      </trkpt>
      <trkpt lat="45.68167" lon="5.72548">
        <ele>527.964894076</ele>
        <time>2015-12-04T14:02:45Z</time>
      </trkpt>
      <trkpt lat="45.68173" lon="5.72548">
        <ele>527.964894076</ele>
        <time>2015-12-04T14:02:49Z</time>
      </trkpt>
      <trkpt lat="45.68179" lon="5.72548">
        <ele>525.809995058</ele>
        <time>2015-12-04T14:03:00Z</time>
      </trkpt>
      <trkpt lat="45.6818" lon="5.72545">
        <ele>525.809995058</ele>
        <time>2015-12-04T14:03:03Z</time>
      </trkpt>
      <trkpt lat="45.68181" lon="5.72545">
        <ele>525.809995058</ele>
        <time>2015-12-04T14:03:08Z</time>
      </trkpt>
      <trkpt lat="45.68181" lon="5.72544">
        <ele>525.809995058</ele>
        <time>2015-12-04T14:03:13Z</time>
      </trkpt>
      <trkpt lat="45.68181" lon="5.72544">
        <ele>525.809995058</ele>
        <time>2015-12-04T14:03:18Z</time>
      </trkpt>
      <trkpt lat="45.68181" lon="5.72544">
        <ele>525.809995058</ele>
        <time>2015-12-04T14:03:25Z</time>
      </trkpt>
      <trkpt lat="45.68185" lon="5.72549">
        <ele>523.969193864</ele>
        <time>2015-12-04T14:03:29Z</time>
      </trkpt>
      <trkpt lat="45.6819" lon="5.7256">
        <ele>523.969193864</ele>
        <time>2015-12-04T14:03:39Z</time>
      </trkpt>
      <trkpt lat="45.68191" lon="5.72561">
        <ele>521.702666107</ele>
        <time>2015-12-04T14:03:45Z</time>
      </trkpt>
      <trkpt lat="45.68195" lon="5.72574">
        <ele>519.623184501</ele>
        <time>2015-12-04T14:03:54Z</time>
      </trkpt>
      <trkpt lat="45.68196" lon="5.72577">
        <ele>519.623184501</ele>
        <time>2015-12-04T14:04:00Z</time>
      </trkpt>
      <trkpt lat="45.68198" lon="5.72586">
        <ele>519.623184501</ele>
        <time>2015-12-04T14:04:08Z</time>
      </trkpt>
      <trkpt lat="45.68203" lon="5.72596">
        <ele>517.721576079</ele>
        <time>2015-12-04T14:04:14Z</time>
      </trkpt>
      <trkpt lat="45.68206" lon="5.72607">
        <ele>517.721576079</ele>
        <time>2015-12-04T14:04:25Z</time>
      </trkpt>
      <trkpt lat="45.6821" lon="5.72615">
        <ele>515.556530204</ele>
        <time>2015-12-04T14:04:30Z</time>
      </trkpt>
      <trkpt lat="45.68217" lon="5.72629">
        <ele>514.305123438</ele>
        <time>2015-12-04T14:04:39Z</time>
      </trkpt>
      <trkpt lat="45.68219" lon="5.72636">
        <ele>514.305123438</ele>
        <time>2015-12-04T14:04:43Z</time>
      </trkpt>
      <trkpt lat="45.68221" lon="5.72645">
        <ele>512.749617997</ele>
        <time>2015-12-04T14:04:48Z</time>
      </trkpt>
      <trkpt lat="45.6822" lon="5.72653">
        <ele>512.749617997</ele>
        <time>2015-12-04T14:04:54Z</time>
      </trkpt>
      <trkpt lat="45.68221" lon="5.7266">
        <ele>510.627234094</ele>
        <time>2015-12-04T14:05:05Z</time>
      </trkpt>
      <trkpt lat="45.68223" lon="5.72667">
        <ele>510.627234094</ele>
        <time>2015-12-04T14:05:09Z</time>
      </trkpt>
      <trkpt lat="45.68224" lon="5.72684">
        <ele>508.272503619</ele>
        <time>2015-12-04T14:05:18Z</time>
      </trkpt>
      <trkpt lat="45.68226" lon="5.72692">
        <ele>508.272503619</ele>
        <time>2015-12-04T14:05:25Z</time>
      </trkpt>
      <trkpt lat="45.68234" lon="5.727">
        <ele>506.860667007</ele>
        <time>2015-12-04T14:05:35Z</time>
      </trkpt>
      <trkpt lat="45.68238" lon="5.72701">
        <ele>506.860667007</ele>
        <time>2015-12-04T14:05:40Z</time>
      </trkpt>
      <trkpt lat="45.68242" lon="5.72702">
        <ele>506.860667007</ele>
        <time>2015-12-04T14:05:49Z</time>
      </trkpt>
      <trkpt lat="45.68252" lon="5.72701">
        <ele>505.316274852</ele>
        <time>2015-12-04T14:05:54Z</time>
      </trkpt>
      <trkpt lat="45.68266" lon="5.72704">
        <ele>503.21964273</ele>
        <time>2015-12-04T14:06:04Z</time>
      </trkpt>
      <trkpt lat="45.68271" lon="5.72706">
        <ele>503.21964273</ele>
        <time>2015-12-04T14:06:09Z</time>
      </trkpt>
      <trkpt lat="45.68281" lon="5.72711">
        <ele>501.192182772</ele>
        <time>2015-12-04T14:06:19Z</time>
      </trkpt>
      <trkpt lat="45.68283" lon="5.72712">
        <ele>501.192182772</ele>
        <time>2015-12-04T14:06:25Z</time>
      </trkpt>
      <trkpt lat="45.68288" lon="5.72723">
        <ele>499.37706433</ele>
        <time>2015-12-04T14:06:33Z</time>
      </trkpt>
      <trkpt lat="45.68292" lon="5.72729">
        <ele>499.37706433</ele>
        <time>2015-12-04T14:06:39Z</time>
      </trkpt>
      <trkpt lat="45.68296" lon="5.72741">
        <ele>497.906271605</ele>
        <time>2015-12-04T14:06:49Z</time>
      </trkpt>
      <trkpt lat="45.68298" lon="5.7274">
        <ele>497.906271605</ele>
        <time>2015-12-04T14:06:54Z</time>
      </trkpt>
      <trkpt lat="45.68308" lon="5.72741">
        <ele>496.756939706</ele>
        <time>2015-12-04T14:07:08Z</time>
      </trkpt>
      <trkpt lat="45.68315" lon="5.72742">
        <ele>496.756939706</ele>
        <time>2015-12-04T14:07:14Z</time>
      </trkpt>
      <trkpt lat="45.68331" lon="5.72755">
        <ele>495.762792214</ele>
        <time>2015-12-04T14:07:24Z</time>
      </trkpt>
      <trkpt lat="45.68338" lon="5.72759">
        <ele>495.762792214</ele>
        <time>2015-12-04T14:07:30Z</time>
      </trkpt>
      <trkpt lat="45.68343" lon="5.7276">
        <ele>495.345699912</ele>
        <time>2015-12-04T14:07:39Z</time>
      </trkpt>
      <trkpt lat="45.68345" lon="5.7276">
        <ele>495.345699912</ele>
        <time>2015-12-04T14:07:45Z</time>
      </trkpt>
      <trkpt lat="45.68361" lon="5.72769">
        <ele>495.174296128</ele>
        <time>2015-12-04T14:07:54Z</time>
      </trkpt>
      <trkpt lat="45.68364" lon="5.72772">
        <ele>495.174296128</ele>
        <time>2015-12-04T14:07:59Z</time>
      </trkpt>
      <trkpt lat="45.68376" lon="5.72776">
        <ele>495.517246506</ele>
        <time>2015-12-04T14:08:09Z</time>
      </trkpt>
      <trkpt lat="45.68381" lon="5.72777">
        <ele>495.517246506</ele>
        <time>2015-12-04T14:08:14Z</time>
      </trkpt>
      <trkpt lat="45.68389" lon="5.72782">
        <ele>496.33376063</ele>
        <time>2015-12-04T14:08:25Z</time>
      </trkpt>
      <trkpt lat="45.6839" lon="5.72783">
        <ele>496.33376063</ele>
        <time>2015-12-04T14:08:29Z</time>
      </trkpt>
      <trkpt lat="45.68393" lon="5.72783">
        <ele>496.33376063</ele>
        <time>2015-12-04T14:08:40Z</time>
      </trkpt>
      <trkpt lat="45.68393" lon="5.72783">
        <ele>496.33376063</ele>
        <time>2015-12-04T14:08:44Z</time>
      </trkpt>
      <trkpt lat="45.68394" lon="5.72783">
        <ele>496.33376063</ele>
        <time>2015-12-04T14:08:54Z</time>
      </trkpt>
      <trkpt lat="45.68399" lon="5.72785">
        <ele>496.431783343</ele>
        <time>2015-12-04T14:09:00Z</time>
      </trkpt>
      <trkpt lat="45.68408" lon="5.72784">
        <ele>496.726368106</ele>
        <time>2015-12-04T14:09:10Z</time>
      </trkpt>
      <trkpt lat="45.68411" lon="5.72783">
        <ele>496.726368106</ele>
        <time>2015-12-04T14:09:14Z</time>
      </trkpt>
      <trkpt lat="45.68415" lon="5.7278">
        <ele>496.726368106</ele>
        <time>2015-12-04T14:09:19Z</time>
      </trkpt>
      <trkpt lat="45.68424" lon="5.72772">
        <ele>497.488334831</ele>
        <time>2015-12-04T14:09:28Z</time>
      </trkpt>
      <trkpt lat="45.68426" lon="5.72768">
        <ele>497.488334831</ele>
        <time>2015-12-04T14:09:33Z</time>
      </trkpt>
      <trkpt lat="45.68436" lon="5.7276">
        <ele>498.823181778</ele>
        <time>2015-12-04T14:09:43Z</time>
      </trkpt>
      <trkpt lat="45.68441" lon="5.72756">
        <ele>498.823181778</ele>
        <time>2015-12-04T14:09:48Z</time>
      </trkpt>
      <trkpt lat="45.68451" lon="5.72749">
        <ele>500.394725375</ele>
        <time>2015-12-04T14:09:58Z</time>
      </trkpt>
      <trkpt lat="45.68452" lon="5.72749">
        <ele>500.394725375</ele>
        <time>2015-12-04T14:10:03Z</time>
      </trkpt>
      <trkpt lat="45.68455" lon="5.72751">
        <ele>500.394725375</ele>
        <time>2015-12-04T14:10:13Z</time>
      </trkpt>
      <trkpt lat="45.68462" lon="5.72753">
        <ele>502.179060509</ele>
        <time>2015-12-04T14:10:18Z</time>
      </trkpt>
      <trkpt lat="45.68475" lon="5.72745">
        <ele>504.297594166</ele>
        <time>2015-12-04T14:10:30Z</time>
      </trkpt>
      <trkpt lat="45.6848" lon="5.72744">
        <ele>504.297594166</ele>
        <time>2015-12-04T14:10:34Z</time>
      </trkpt>
      <trkpt lat="45.68492" lon="5.72746">
        <ele>505.853158203</ele>
        <time>2015-12-04T14:10:43Z</time>
      </trkpt>
      <trkpt lat="45.68498" lon="5.72739">
        <ele>505.853158203</ele>
        <time>2015-12-04T14:10:48Z</time>
      </trkpt>
      <trkpt lat="45.68511" lon="5.72736">
        <ele>507.169033599</ele>
        <time>2015-12-04T14:10:58Z</time>
      </trkpt>
      <trkpt lat="45.68515" lon="5.72734">
        <ele>507.169033599</ele>
        <time>2015-12-04T14:11:03Z</time>
      </trkpt>
      <trkpt lat="45.68521" lon="5.72725">
        <ele>508.545514878</ele>
        <time>2015-12-04T14:11:14Z</time>
      </trkpt>
      <trkpt lat="45.68525" lon="5.7272">
        <ele>508.545514878</ele>
        <time>2015-12-04T14:11:20Z</time>
      </trkpt>
      <trkpt lat="45.6853" lon="5.72707">
        <ele>510.548991397</ele>
        <time>2015-12-04T14:11:29Z</time>
      </trkpt>
      <trkpt lat="45.68533" lon="5.72704">
        <ele>510.548991397</ele>
        <time>2015-12-04T14:11:35Z</time>
      </trkpt>
      <trkpt lat="45.68541" lon="5.72693">
        <ele>513.126156518</ele>
        <time>2015-12-04T14:11:49Z</time>
      </trkpt>
      <trkpt lat="45.68544" lon="5.72688">
        <ele>513.126156518</ele>
        <time>2015-12-04T14:11:53Z</time>
      </trkpt>
      <trkpt lat="45.68548" lon="5.72676">
        <ele>515.073246701</ele>
        <time>2015-12-04T14:12:04Z</time>
      </trkpt>
      <trkpt lat="45.68551" lon="5.72674">
        <ele>515.073246701</ele>
        <time>2015-12-04T14:12:09Z</time>
      </trkpt>
      <trkpt lat="45.68554" lon="5.7267">
        <ele>515.073246701</ele>
        <time>2015-12-04T14:12:18Z</time>
      </trkpt>
      <trkpt lat="45.68557" lon="5.72662">
        <ele>517.438499961</ele>
        <time>2015-12-04T14:12:23Z</time>
      </trkpt>
      <trkpt lat="45.68565" lon="5.72647">
        <ele>520.615686489</ele>
        <time>2015-12-04T14:12:33Z</time>
      </trkpt>
      <trkpt lat="45.68569" lon="5.72638">
        <ele>520.615686489</ele>
        <time>2015-12-04T14:12:39Z</time>
      </trkpt>
      <trkpt lat="45.68572" lon="5.72614">
        <ele>522.229424652</ele>
        <time>2015-12-04T14:12:54Z</time>
      </trkpt>
      <trkpt lat="45.68574" lon="5.72604">
        <ele>522.229424652</ele>
        <time>2015-12-04T14:12:59Z</time>
      </trkpt>
      <trkpt lat="45.68579" lon="5.72597">
        <ele>524.694945393</ele>
        <time>2015-12-04T14:13:09Z</time>
      </trkpt>
      <trkpt lat="45.68581" lon="5.72594">
        <ele>524.694945393</ele>
        <time>2015-12-04T14:13:13Z</time>
      </trkpt>
      <trkpt lat="45.68589" lon="5.72589">
        <ele>527.221519229</ele>
        <time>2015-12-04T14:13:24Z</time>
      </trkpt>
      <trkpt lat="45.68592" lon="5.72587">
        <ele>527.221519229</ele>
        <time>2015-12-04T14:13:29Z</time>
      </trkpt>
      <trkpt lat="45.68595" lon="5.72584">
        <ele>527.221519229</ele>
        <time>2015-12-04T14:13:39Z</time>
      </trkpt>
      <trkpt lat="45.68598" lon="5.7258">
        <ele>529.797081218</ele>
        <time>2015-12-04T14:13:43Z</time>
      </trkpt>
      <trkpt lat="45.68601" lon="5.72567">
        <ele>532.410515775</ele>
        <time>2015-12-04T14:13:55Z</time>
      </trkpt>
      <trkpt lat="45.686" lon="5.7256">
        <ele>532.410515775</ele>
        <time>2015-12-04T14:13:59Z</time>
      </trkpt>
      <trkpt lat="45.68601" lon="5.72547">
        <ele>535.051625492</ele>
        <time>2015-12-04T14:14:09Z</time>
      </trkpt>
      <trkpt lat="45.686" lon="5.72544">
        <ele>535.051625492</ele>
        <time>2015-12-04T14:14:14Z</time>
      </trkpt>
      <trkpt lat="45.6861" lon="5.7253">
        <ele>537.711098808</ele>
        <time>2015-12-04T14:14:28Z</time>
      </trkpt>
      <trkpt lat="45.68614" lon="5.72528">
        <ele>537.711098808</ele>
        <time>2015-12-04T14:14:33Z</time>
      </trkpt>
      <trkpt lat="45.6862" lon="5.72518">
        <ele>540.668699498</ele>
        <time>2015-12-04T14:14:43Z</time>
      </trkpt>
      <trkpt lat="45.68623" lon="5.72512">
        <ele>540.668699498</ele>
        <time>2015-12-04T14:14:49Z</time>
      </trkpt>
      <trkpt lat="45.68627" lon="5.72504">
        <ele>543.462473619</ele>
        <time>2015-12-04T14:14:59Z</time>
      </trkpt>
      <trkpt lat="45.68629" lon="5.72499">
        <ele>543.462473619</ele>
        <time>2015-12-04T14:15:04Z</time>
      </trkpt>
      <trkpt lat="45.68631" lon="5.72499">
        <ele>543.462473619</ele>
        <time>2015-12-04T14:15:14Z</time>
      </trkpt>
      <trkpt lat="45.68631" lon="5.72499">
        <ele>543.462473619</ele>
        <time>2015-12-04T14:15:19Z</time>
      </trkpt>
      <trkpt lat="45.68636" lon="5.72491">
        <ele>546.097425255</ele>
        <time>2015-12-04T14:15:29Z</time>
      </trkpt>
      <trkpt lat="45.68637" lon="5.72489">
        <ele>546.097425255</ele>
        <time>2015-12-04T14:15:33Z</time>
      </trkpt>
      <trkpt lat="45.68638" lon="5.72489">
        <ele>546.097425255</ele>
        <time>2015-12-04T14:15:38Z</time>
      </trkpt>
      <trkpt lat="45.68639" lon="5.72488">
        <ele>546.097425255</ele>
        <time>2015-12-04T14:15:43Z</time>
      </trkpt>
      <trkpt lat="45.6864" lon="5.72488">
        <ele>546.097425255</ele>
        <time>2015-12-04T14:15:48Z</time>
      </trkpt>
      <trkpt lat="45.6864" lon="5.72488">
        <ele>546.097425255</ele>
        <time>2015-12-04T14:15:53Z</time>
      </trkpt>
      <trkpt lat="45.6864" lon="5.72488">
        <ele>546.097425255</ele>
        <time>2015-12-04T14:15:58Z</time>
      </trkpt>
      <trkpt lat="45.6864" lon="5.72488">
        <ele>546.097425255</ele>
        <time>2015-12-04T14:16:03Z</time>
      </trkpt>
      <trkpt lat="45.6864" lon="5.72488">
        <ele>546.097425255</ele>
        <time>2015-12-04T14:16:08Z</time>
      </trkpt>
      <trkpt lat="45.6864" lon="5.72488">
        <ele>546.097425255</ele>
        <time>2015-12-04T14:16:13Z</time>
      </trkpt>
      <trkpt lat="45.6864" lon="5.72488">
        <ele>546.097425255</ele>
        <time>2015-12-04T14:16:18Z</time>
      </trkpt>
      <trkpt lat="45.6864" lon="5.72488">
        <ele>546.097425255</ele>
        <time>2015-12-04T14:16:23Z</time>
      </trkpt>
      <trkpt lat="45.6864" lon="5.72488">
        <ele>546.097425255</ele>
        <time>2015-12-04T14:16:28Z</time>
      </trkpt>
      <trkpt lat="45.6864" lon="5.72488">
        <ele>546.097425255</ele>
        <time>2015-12-04T14:16:33Z</time>
      </trkpt>
      <trkpt lat="45.6864" lon="5.72488">
        <ele>546.097425255</ele>
        <time>2015-12-04T14:16:38Z</time>
      </trkpt>
      <trkpt lat="45.6864" lon="5.72488">
        <ele>546.097425255</ele>
        <time>2015-12-04T14:16:43Z</time>
      </trkpt>
      <trkpt lat="45.68637" lon="5.72491">
        <ele>546.097425255</ele>
        <time>2015-12-04T14:16:49Z</time>
      </trkpt>
      <trkpt lat="45.68632" lon="5.725">
        <ele>548.578869631</ele>
        <time>2015-12-04T14:16:59Z</time>
      </trkpt>
      <trkpt lat="45.68629" lon="5.72508">
        <ele>548.578869631</ele>
        <time>2015-12-04T14:17:05Z</time>
      </trkpt>
      <trkpt lat="45.68625" lon="5.72513">
        <ele>550.912396815</ele>
        <time>2015-12-04T14:17:14Z</time>
      </trkpt>
      <trkpt lat="45.68622" lon="5.72517">
        <ele>550.912396815</ele>
        <time>2015-12-04T14:17:19Z</time>
      </trkpt>
      <trkpt lat="45.68619" lon="5.72519">
        <ele>550.912396815</ele>
        <time>2015-12-04T14:17:24Z</time>
      </trkpt>
      <trkpt lat="45.68617" lon="5.72523">
        <ele>552.383278101</ele>
        <time>2015-12-04T14:17:28Z</time>
      </trkpt>
      <trkpt lat="45.68613" lon="5.72528">
        <ele>552.383278101</ele>
        <time>2015-12-04T14:17:33Z</time>
      </trkpt>
      <trkpt lat="45.68608" lon="5.72531">
        <ele>553.052491045</ele>
        <time>2015-12-04T14:17:38Z</time>
      </trkpt>
      <trkpt lat="45.68603" lon="5.72536">
        <ele>553.052491045</ele>
        <time>2015-12-04T14:17:44Z</time>
      </trkpt>
      <trkpt lat="45.68601" lon="5.72555">
        <ele>553.699556004</ele>
        <time>2015-12-04T14:17:55Z</time>
      </trkpt>
      <trkpt lat="45.68602" lon="5.72562">
        <ele>553.699556004</ele>
        <time>2015-12-04T14:17:59Z</time>
      </trkpt>
      <trkpt lat="45.68606" lon="5.72572">
        <ele>554.182329483</ele>
        <time>2015-12-04T14:18:04Z</time>
      </trkpt>
      <trkpt lat="45.68603" lon="5.72576">
        <ele>554.182329483</ele>
        <time>2015-12-04T14:18:09Z</time>
      </trkpt>
      <trkpt lat="45.68596" lon="5.72582">
        <ele>553.793312656</ele>
        <time>2015-12-04T14:18:18Z</time>
      </trkpt>
      <trkpt lat="45.68591" lon="5.72583">
        <ele>553.793312656</ele>
        <time>2015-12-04T14:18:23Z</time>
      </trkpt>
      <trkpt lat="45.68583" lon="5.72585">
        <ele>552.45603513</ele>
        <time>2015-12-04T14:18:38Z</time>
      </trkpt>
      <trkpt lat="45.6858" lon="5.72586">
        <ele>552.45603513</ele>
        <time>2015-12-04T14:18:43Z</time>
      </trkpt>
      <trkpt lat="45.68572" lon="5.72599">
        <ele>551.399447509</ele>
        <time>2015-12-04T14:18:53Z</time>
      </trkpt>
      <trkpt lat="45.68573" lon="5.72607">
        <ele>551.399447509</ele>
        <time>2015-12-04T14:18:58Z</time>
      </trkpt>
      <trkpt lat="45.6857" lon="5.7263">
        <ele>549.167549785</ele>
        <time>2015-12-04T14:19:09Z</time>
      </trkpt>
      <trkpt lat="45.68569" lon="5.72626">
        <ele>549.167549785</ele>
        <time>2015-12-04T14:19:13Z</time>
      </trkpt>
      <trkpt lat="45.68568" lon="5.72626">
        <ele>549.167549785</ele>
        <time>2015-12-04T14:19:23Z</time>
      </trkpt>
      <trkpt lat="45.68565" lon="5.72637">
        <ele>547.152794828</ele>
        <time>2015-12-04T14:19:28Z</time>
      </trkpt>
      <trkpt lat="45.68554" lon="5.72651">
        <ele>545.203682794</ele>
        <time>2015-12-04T14:19:38Z</time>
      </trkpt>
      <trkpt lat="45.68551" lon="5.72659">
        <ele>545.203682794</ele>
        <time>2015-12-04T14:19:43Z</time>
      </trkpt>
      <trkpt lat="45.68547" lon="5.72666">
        <ele>543.035574923</ele>
        <time>2015-12-04T14:19:53Z</time>
      </trkpt>
      <trkpt lat="45.68547" lon="5.72666">
        <ele>543.035574923</ele>
        <time>2015-12-04T14:19:58Z</time>
      </trkpt>
      <trkpt lat="45.68547" lon="5.72666">
        <ele>543.035574923</ele>
        <time>2015-12-04T14:20:03Z</time>
      </trkpt>
      <trkpt lat="45.68547" lon="5.72666">
        <ele>543.035574923</ele>
        <time>2015-12-04T14:20:08Z</time>
      </trkpt>
      <trkpt lat="45.68549" lon="5.72675">
        <ele>543.035574923</ele>
        <time>2015-12-04T14:20:18Z</time>
      </trkpt>
      <trkpt lat="45.68549" lon="5.72682">
        <ele>540.96179963</ele>
        <time>2015-12-04T14:20:24Z</time>
      </trkpt>
      <trkpt lat="45.6855" lon="5.72688">
        <ele>540.96179963</ele>
        <time>2015-12-04T14:20:34Z</time>
      </trkpt>
      <trkpt lat="45.6855" lon="5.7269">
        <ele>540.96179963</ele>
        <time>2015-12-04T14:20:39Z</time>
      </trkpt>
      <trkpt lat="45.68552" lon="5.72705">
        <ele>539.704711197</ele>
        <time>2015-12-04T14:20:54Z</time>
      </trkpt>
      <trkpt lat="45.68553" lon="5.72706">
        <ele>539.704711197</ele>
        <time>2015-12-04T14:21:09Z</time>
      </trkpt>
      <trkpt lat="45.68553" lon="5.72709">
        <ele>539.704711197</ele>
        <time>2015-12-04T14:21:15Z</time>
      </trkpt>
      <trkpt lat="45.68552" lon="5.72715">
        <ele>539.704711197</ele>
        <time>2015-12-04T14:21:24Z</time>
      </trkpt>
      <trkpt lat="45.68552" lon="5.72716">
        <ele>539.704711197</ele>
        <time>2015-12-04T14:21:28Z</time>
      </trkpt>
      <trkpt lat="45.68552" lon="5.72716">
        <ele>539.704711197</ele>
        <time>2015-12-04T14:21:38Z</time>
      </trkpt>
      <trkpt lat="45.68551" lon="5.72716">
        <ele>539.704711197</ele>
        <time>2015-12-04T14:21:43Z</time>
      </trkpt>
      <trkpt lat="45.68551" lon="5.72717">
        <ele>537.913703875</ele>
        <time>2015-12-04T14:21:53Z</time>
      </trkpt>
      <trkpt lat="45.68551" lon="5.72719">
        <ele>537.913703875</ele>
        <time>2015-12-04T14:22:00Z</time>
      </trkpt>
      <trkpt lat="45.68555" lon="5.72724">
        <ele>537.913703875</ele>
        <time>2015-12-04T14:22:10Z</time>
      </trkpt>
      <trkpt lat="45.68555" lon="5.72725">
        <ele>537.913703875</ele>
        <time>2015-12-04T14:22:14Z</time>
      </trkpt>
      <trkpt lat="45.68555" lon="5.72726">
        <ele>537.913703875</ele>
        <time>2015-12-04T14:22:24Z</time>
      </trkpt>
      <trkpt lat="45.68555" lon="5.72726">
        <ele>537.913703875</ele>
        <time>2015-12-04T14:22:29Z</time>
      </trkpt>
      <trkpt lat="45.68557" lon="5.72728">
        <ele>535.059369356</ele>
        <time>2015-12-04T14:22:43Z</time>
      </trkpt>
      <trkpt lat="45.68557" lon="5.72728">
        <ele>535.059369356</ele>
        <time>2015-12-04T14:22:48Z</time>
      </trkpt>
      <trkpt lat="45.68556" lon="5.72737">
        <ele>535.059369356</ele>
        <time>2015-12-04T14:22:58Z</time>
      </trkpt>
      <trkpt lat="45.68556" lon="5.72737">
        <ele>535.059369356</ele>
        <time>2015-12-04T14:23:03Z</time>
      </trkpt>
      <trkpt lat="45.68556" lon="5.72744">
        <ele>532.383414879</ele>
        <time>2015-12-04T14:23:08Z</time>
      </trkpt>
      <trkpt lat="45.68552" lon="5.72746">
        <ele>532.383414879</ele>
        <time>2015-12-04T14:23:18Z</time>
      </trkpt>
      <trkpt lat="45.68549" lon="5.72754">
        <ele>529.738719736</ele>
        <time>2015-12-04T14:23:24Z</time>
      </trkpt>
      <trkpt lat="45.68542" lon="5.72763">
        <ele>526.988749718</ele>
        <time>2015-12-04T14:23:34Z</time>
      </trkpt>
      <trkpt lat="45.68543" lon="5.72763">
        <ele>526.988749718</ele>
        <time>2015-12-04T14:23:38Z</time>
      </trkpt>
      <trkpt lat="45.68543" lon="5.72763">
        <ele>526.988749718</ele>
        <time>2015-12-04T14:23:49Z</time>
      </trkpt>
      <trkpt lat="45.68543" lon="5.72763">
        <ele>526.988749718</ele>
        <time>2015-12-04T14:23:54Z</time>
      </trkpt>
      <trkpt lat="45.68543" lon="5.72775">
        <ele>524.727698751</ele>
        <time>2015-12-04T14:24:08Z</time>
      </trkpt>
      <trkpt lat="45.68543" lon="5.72783">
        <ele>524.727698751</ele>
        <time>2015-12-04T14:24:13Z</time>
      </trkpt>
      <trkpt lat="45.68548" lon="5.728">
        <ele>522.784015187</ele>
        <time>2015-12-04T14:24:23Z</time>
      </trkpt>
      <trkpt lat="45.6855" lon="5.72803">
        <ele>522.784015187</ele>
        <time>2015-12-04T14:24:28Z</time>
      </trkpt>
      <trkpt lat="45.68551" lon="5.72808">
        <ele>522.784015187</ele>
        <time>2015-12-04T14:24:39Z</time>
      </trkpt>
      <trkpt lat="45.68548" lon="5.72819">
        <ele>521.430011355</ele>
        <time>2015-12-04T14:24:44Z</time>
      </trkpt>
      <trkpt lat="45.68551" lon="5.72832">
        <ele>519.330927547</ele>
        <time>2015-12-04T14:24:53Z</time>
      </trkpt>
      <trkpt lat="45.68552" lon="5.72836">
        <ele>519.330927547</ele>
        <time>2015-12-04T14:24:58Z</time>
      </trkpt>
      <trkpt lat="45.68555" lon="5.72853">
        <ele>516.981280414</ele>
        <time>2015-12-04T14:25:08Z</time>
      </trkpt>
      <trkpt lat="45.68556" lon="5.72861">
        <ele>516.981280414</ele>
        <time>2015-12-04T14:25:13Z</time>
      </trkpt>
      <trkpt lat="45.68561" lon="5.72869">
        <ele>514.551535179</ele>
        <time>2015-12-04T14:25:23Z</time>
      </trkpt>
      <trkpt lat="45.68562" lon="5.72872">
        <ele>514.551535179</ele>
        <time>2015-12-04T14:25:28Z</time>
      </trkpt>
      <trkpt lat="45.68568" lon="5.72882">
        <ele>511.911424893</ele>
        <time>2015-12-04T14:25:39Z</time>
      </trkpt>
      <trkpt lat="45.68573" lon="5.72885">
        <ele>511.911424893</ele>
        <time>2015-12-04T14:25:44Z</time>
      </trkpt>
      <trkpt lat="45.68573" lon="5.72889">
        <ele>511.911424893</ele>
        <time>2015-12-04T14:25:55Z</time>
      </trkpt>
      <trkpt lat="45.68577" lon="5.72894">
        <ele>509.517066955</ele>
        <time>2015-12-04T14:26:00Z</time>
      </trkpt>
      <trkpt lat="45.68581" lon="5.72903">
        <ele>509.517066955</ele>
        <time>2015-12-04T14:26:10Z</time>
      </trkpt>
      <trkpt lat="45.68583" lon="5.72911">
        <ele>507.069600655</ele>
        <time>2015-12-04T14:26:14Z</time>
      </trkpt>
      <trkpt lat="45.68588" lon="5.72928">
        <ele>504.436146639</ele>
        <time>2015-12-04T14:26:29Z</time>
      </trkpt>
      <trkpt lat="45.68588" lon="5.72932">
        <ele>504.436146639</ele>
        <time>2015-12-04T14:26:34Z</time>
      </trkpt>
      <trkpt lat="45.68588" lon="5.72943">
        <ele>502.0703156</ele>
        <time>2015-12-04T14:26:44Z</time>
      </trkpt>
      <trkpt lat="45.68593" lon="5.72948">
        <ele>502.0703156</ele>
        <time>2015-12-04T14:26:50Z</time>
      </trkpt>
      <trkpt lat="45.68592" lon="5.72952">
        <ele>502.0703156</ele>
        <time>2015-12-04T14:26:59Z</time>
      </trkpt>
      <trkpt lat="45.68594" lon="5.72958">
        <ele>499.526737165</ele>
        <time>2015-12-04T14:27:04Z</time>
      </trkpt>
      <trkpt lat="45.68597" lon="5.72968">
        <ele>499.526737165</ele>
        <time>2015-12-04T14:27:15Z</time>
      </trkpt>
      <trkpt lat="45.68598" lon="5.72973">
        <ele>496.969456731</ele>
        <time>2015-12-04T14:27:19Z</time>
      </trkpt>
      <trkpt lat="45.686" lon="5.72986">
        <ele>494.262038678</ele>
        <time>2015-12-04T14:27:29Z</time>
      </trkpt>
      <trkpt lat="45.686" lon="5.7299">
        <ele>494.262038678</ele>
        <time>2015-12-04T14:27:35Z</time>
      </trkpt>
      <trkpt lat="45.68602" lon="5.72994">
        <ele>494.262038678</ele>
        <time>2015-12-04T14:27:39Z</time>
      </trkpt>
      <trkpt lat="45.68602" lon="5.72996">
        <ele>494.262038678</ele>
        <time>2015-12-04T14:27:43Z</time>
      </trkpt>
      <trkpt lat="45.68601" lon="5.72996">
        <ele>494.262038678</ele>
        <time>2015-12-04T14:27:48Z</time>
      </trkpt>
      <trkpt lat="45.68601" lon="5.7301">
        <ele>491.278242556</ele>
        <time>2015-12-04T14:27:59Z</time>
      </trkpt>
      <trkpt lat="45.68601" lon="5.73011">
        <ele>491.278242556</ele>
        <time>2015-12-04T14:28:04Z</time>
      </trkpt>
      <trkpt lat="45.68602" lon="5.73033">
        <ele>489.054516871</ele>
        <time>2015-12-04T14:28:19Z</time>
      </trkpt>
      <trkpt lat="45.68599" lon="5.73051">
        <ele>486.675346501</ele>
        <time>2015-12-04T14:28:29Z</time>
      </trkpt>
      <trkpt lat="45.68598" lon="5.7306">
        <ele>486.675346501</ele>
        <time>2015-12-04T14:28:34Z</time>
      </trkpt>
      <trkpt lat="45.68598" lon="5.73066">
        <ele>484.733769954</ele>
        <time>2015-12-04T14:28:39Z</time>
      </trkpt>
      <trkpt lat="45.68593" lon="5.73072">
        <ele>484.733769954</ele>
        <time>2015-12-04T14:28:44Z</time>
      </trkpt>
      <trkpt lat="45.6859" lon="5.73079">
        <ele>482.913123838</ele>
        <time>2015-12-04T14:28:50Z</time>
      </trkpt>
      <trkpt lat="45.68581" lon="5.73088">
        <ele>481.784099</ele>
        <time>2015-12-04T14:28:59Z</time>
      </trkpt>
      <trkpt lat="45.68578" lon="5.73093">
        <ele>481.784099</ele>
        <time>2015-12-04T14:29:05Z</time>
      </trkpt>
      <trkpt lat="45.68567" lon="5.7311">
        <ele>480.288074197</ele>
        <time>2015-12-04T14:29:19Z</time>
      </trkpt>
      <trkpt lat="45.68566" lon="5.73113">
        <ele>480.288074197</ele>
        <time>2015-12-04T14:29:25Z</time>
      </trkpt>
      <trkpt lat="45.68565" lon="5.73123">
        <ele>478.309673878</ele>
        <time>2015-12-04T14:29:35Z</time>
      </trkpt>
      <trkpt lat="45.68565" lon="5.73127">
        <ele>478.309673878</ele>
        <time>2015-12-04T14:29:38Z</time>
      </trkpt>
      <trkpt lat="45.68564" lon="5.73139">
        <ele>475.454920658</ele>
        <time>2015-12-04T14:29:48Z</time>
      </trkpt>
      <trkpt lat="45.68564" lon="5.73144">
        <ele>475.454920658</ele>
        <time>2015-12-04T14:29:53Z</time>
      </trkpt>
      <trkpt lat="45.68559" lon="5.73157">
        <ele>472.802147267</ele>
        <time>2015-12-04T14:30:03Z</time>
      </trkpt>
      <trkpt lat="45.68558" lon="5.73162">
        <ele>472.802147267</ele>
        <time>2015-12-04T14:30:08Z</time>
      </trkpt>
      <trkpt lat="45.68557" lon="5.73174">
        <ele>470.052708035</ele>
        <time>2015-12-04T14:30:18Z</time>
      </trkpt>
      <trkpt lat="45.68556" lon="5.73178">
        <ele>470.052708035</ele>
        <time>2015-12-04T14:30:24Z</time>
      </trkpt>
      <trkpt lat="45.68554" lon="5.73185">
        <ele>470.052708035</ele>
        <time>2015-12-04T14:30:34Z</time>
      </trkpt>
      <trkpt lat="45.68549" lon="5.73194">
        <ele>467.218193316</ele>
        <time>2015-12-04T14:30:40Z</time>
      </trkpt>
      <trkpt lat="45.6854" lon="5.7321">
        <ele>464.453497305</ele>
        <time>2015-12-04T14:30:53Z</time>
      </trkpt>
      <trkpt lat="45.68535" lon="5.73217">
        <ele>464.453497305</ele>
        <time>2015-12-04T14:30:59Z</time>
      </trkpt>
      <trkpt lat="45.68528" lon="5.73226">
        <ele>462.478193122</ele>
        <time>2015-12-04T14:31:09Z</time>
      </trkpt>
      <trkpt lat="45.68526" lon="5.73227">
        <ele>462.478193122</ele>
        <time>2015-12-04T14:31:14Z</time>
      </trkpt>
      <trkpt lat="45.68525" lon="5.7323">
        <ele>462.478193122</ele>
        <time>2015-12-04T14:31:24Z</time>
      </trkpt>
      <trkpt lat="45.68526" lon="5.73241">
        <ele>460.083147017</ele>
        <time>2015-12-04T14:31:29Z</time>
      </trkpt>
      <trkpt lat="45.68527" lon="5.73252">
        <ele>460.083147017</ele>
        <time>2015-12-04T14:31:40Z</time>
      </trkpt>
      <trkpt lat="45.6853" lon="5.73258">
        <ele>457.734265106</ele>
        <time>2015-12-04T14:31:44Z</time>
      </trkpt>
      <trkpt lat="45.68529" lon="5.73261">
        <ele>457.734265106</ele>
        <time>2015-12-04T14:31:48Z</time>
      </trkpt>
      <trkpt lat="45.68533" lon="5.73279">
        <ele>454.998254542</ele>
        <time>2015-12-04T14:31:59Z</time>
      </trkpt>
      <trkpt lat="45.68534" lon="5.73286">
        <ele>454.998254542</ele>
        <time>2015-12-04T14:32:04Z</time>
      </trkpt>
      <trkpt lat="45.68531" lon="5.73293">
        <ele>452.771567425</ele>
        <time>2015-12-04T14:32:15Z</time>
      </trkpt>
      <trkpt lat="45.68531" lon="5.73299">
        <ele>452.771567425</ele>
        <time>2015-12-04T14:32:18Z</time>
      </trkpt>
      <trkpt lat="45.68535" lon="5.73318">
        <ele>450.874431323</ele>
        <time>2015-12-04T14:32:30Z</time>
      </trkpt>
      <trkpt lat="45.68537" lon="5.73324">
        <ele>450.874431323</ele>
        <time>2015-12-04T14:32:34Z</time>
      </trkpt>
      <trkpt lat="45.6854" lon="5.73327">
        <ele>450.874431323</ele>
        <time>2015-12-04T14:32:45Z</time>
      </trkpt>
      <trkpt lat="45.68536" lon="5.73334">
        <ele>448.850975118</ele>
        <time>2015-12-04T14:32:49Z</time>
      </trkpt>
      <trkpt lat="45.68535" lon="5.73338">
        <ele>448.850975118</ele>
        <time>2015-12-04T14:32:58Z</time>
      </trkpt>
      <trkpt lat="45.68532" lon="5.73339">
        <ele>448.850975118</ele>
        <time>2015-12-04T14:33:04Z</time>
      </trkpt>
      <trkpt lat="45.68526" lon="5.73344">
        <ele>447.143687601</ele>
        <time>2015-12-04T14:33:14Z</time>
      </trkpt>
      <trkpt lat="45.68522" lon="5.73346">
        <ele>447.143687601</ele>
        <time>2015-12-04T14:33:19Z</time>
      </trkpt>
      <trkpt lat="45.68515" lon="5.73351">
        <ele>445.152747213</ele>
        <time>2015-12-04T14:33:29Z</time>
      </trkpt>
      <trkpt lat="45.68515" lon="5.73352">
        <ele>445.152747213</ele>
        <time>2015-12-04T14:33:34Z</time>
      </trkpt>
      <trkpt lat="45.68506" lon="5.73368">
        <ele>443.620061079</ele>
        <time>2015-12-04T14:33:51Z</time>
      </trkpt>
      <trkpt lat="45.68505" lon="5.73373">
        <ele>443.620061079</ele>
        <time>2015-12-04T14:33:54Z</time>
      </trkpt>
      <trkpt lat="45.68502" lon="5.73396">
        <ele>442.511075842</ele>
        <time>2015-12-04T14:34:04Z</time>
      </trkpt>
      <trkpt lat="45.68501" lon="5.73401">
        <ele>442.511075842</ele>
        <time>2015-12-04T14:34:10Z</time>
      </trkpt>
      <trkpt lat="45.68499" lon="5.73405">
        <ele>442.511075842</ele>
        <time>2015-12-04T14:34:19Z</time>
      </trkpt>
      <trkpt lat="45.68499" lon="5.73408">
        <ele>441.36014711</ele>
        <time>2015-12-04T14:34:23Z</time>
      </trkpt>
      <trkpt lat="45.68496" lon="5.7341">
        <ele>441.36014711</ele>
        <time>2015-12-04T14:34:29Z</time>
      </trkpt>
      <trkpt lat="45.68487" lon="5.73413">
        <ele>439.591747299</ele>
        <time>2015-12-04T14:34:38Z</time>
      </trkpt>
      <trkpt lat="45.68484" lon="5.73416">
        <ele>439.591747299</ele>
        <time>2015-12-04T14:34:44Z</time>
      </trkpt>
      <trkpt lat="45.68475" lon="5.73419">
        <ele>438.691832626</ele>
        <time>2015-12-04T14:34:54Z</time>
      </trkpt>
      <trkpt lat="45.68471" lon="5.7342">
        <ele>438.691832626</ele>
        <time>2015-12-04T14:34:59Z</time>
      </trkpt>
      <trkpt lat="45.68457" lon="5.73424">
        <ele>437.873028147</ele>
        <time>2015-12-04T14:35:10Z</time>
      </trkpt>
      <trkpt lat="45.68453" lon="5.73424">
        <ele>437.873028147</ele>
        <time>2015-12-04T14:35:13Z</time>
      </trkpt>
      <trkpt lat="45.68449" lon="5.73428">
        <ele>436.837847411</ele>
        <time>2015-12-04T14:35:18Z</time>
      </trkpt>
      <trkpt lat="45.68445" lon="5.73424">
        <ele>436.837847411</ele>
        <time>2015-12-04T14:35:24Z</time>
      </trkpt>
      <trkpt lat="45.68432" lon="5.73413">
        <ele>435.743552251</ele>
        <time>2015-12-04T14:35:35Z</time>
      </trkpt>
      <trkpt lat="45.68426" lon="5.73412">
        <ele>435.743552251</ele>
        <time>2015-12-04T14:35:39Z</time>
      </trkpt>
      <trkpt lat="45.68423" lon="5.73416">
        <ele>435.02420776</ele>
        <time>2015-12-04T14:35:44Z</time>
      </trkpt>
      <trkpt lat="45.6842" lon="5.7342">
        <ele>435.02420776</ele>
        <time>2015-12-04T14:35:49Z</time>
      </trkpt>
      <trkpt lat="45.68408" lon="5.73427">
        <ele>434.21625335</ele>
        <time>2015-12-04T14:36:04Z</time>
      </trkpt>
      <trkpt lat="45.68405" lon="5.73431">
        <ele>434.21625335</ele>
        <time>2015-12-04T14:36:09Z</time>
      </trkpt>
      <trkpt lat="45.68406" lon="5.73432">
        <ele>434.21625335</ele>
        <time>2015-12-04T14:36:18Z</time>
      </trkpt>
      <trkpt lat="45.68406" lon="5.73432">
        <ele>434.21625335</ele>
        <time>2015-12-04T14:36:25Z</time>
      </trkpt>
      <trkpt lat="45.68403" lon="5.73433">
        <ele>434.21625335</ele>
        <time>2015-12-04T14:36:34Z</time>
      </trkpt>
      <trkpt lat="45.68399" lon="5.73436">
        <ele>433.610976689</ele>
        <time>2015-12-04T14:36:40Z</time>
      </trkpt>
      <trkpt lat="45.68391" lon="5.7345">
        <ele>433.0453681</ele>
        <time>2015-12-04T14:36:50Z</time>
      </trkpt>
      <trkpt lat="45.68384" lon="5.73457">
        <ele>433.0453681</ele>
        <time>2015-12-04T14:36:54Z</time>
      </trkpt>
      <trkpt lat="45.68379" lon="5.73471">
        <ele>432.656517918</ele>
        <time>2015-12-04T14:37:05Z</time>
      </trkpt>
      <trkpt lat="45.68377" lon="5.73477">
        <ele>432.656517918</ele>
        <time>2015-12-04T14:37:08Z</time>
      </trkpt>
      <trkpt lat="45.68378" lon="5.73481">
        <ele>432.656517918</ele>
        <time>2015-12-04T14:37:18Z</time>
      </trkpt>
      <trkpt lat="45.68375" lon="5.73485">
        <ele>431.850419311</ele>
        <time>2015-12-04T14:37:23Z</time>
      </trkpt>
      <trkpt lat="45.68367" lon="5.73493">
        <ele>430.366127611</ele>
        <time>2015-12-04T14:37:33Z</time>
      </trkpt>
      <trkpt lat="45.68362" lon="5.73497">
        <ele>430.366127611</ele>
        <time>2015-12-04T14:37:38Z</time>
      </trkpt>
      <trkpt lat="45.68355" lon="5.73507">
        <ele>429.693145556</ele>
        <time>2015-12-04T14:37:48Z</time>
      </trkpt>
      <trkpt lat="45.68354" lon="5.73508">
        <ele>429.693145556</ele>
        <time>2015-12-04T14:37:53Z</time>
      </trkpt>
      <trkpt lat="45.68356" lon="5.73508">
        <ele>429.693145556</ele>
        <time>2015-12-04T14:38:04Z</time>
      </trkpt>
      <trkpt lat="45.68356" lon="5.73508">
        <ele>429.693145556</ele>
        <time>2015-12-04T14:38:09Z</time>
      </trkpt>
      <trkpt lat="45.68356" lon="5.73508">
        <ele>429.693145556</ele>
        <time>2015-12-04T14:38:14Z</time>
      </trkpt>
      <trkpt lat="45.68356" lon="5.73509">
        <ele>429.693145556</ele>
        <time>2015-12-04T14:38:24Z</time>
      </trkpt>
      <trkpt lat="45.68355" lon="5.73509">
        <ele>429.693145556</ele>
        <time>2015-12-04T14:38:40Z</time>
      </trkpt>
      <trkpt lat="45.68352" lon="5.73512">
        <ele>429.693145556</ele>
        <time>2015-12-04T14:38:44Z</time>
      </trkpt>
      <trkpt lat="45.68344" lon="5.73523">
        <ele>429.768220047</ele>
        <time>2015-12-04T14:38:55Z</time>
      </trkpt>
      <trkpt lat="45.68344" lon="5.7353">
        <ele>429.768220047</ele>
        <time>2015-12-04T14:38:59Z</time>
      </trkpt>
      <trkpt lat="45.68329" lon="5.73536">
        <ele>429.521924838</ele>
        <time>2015-12-04T14:39:14Z</time>
      </trkpt>
      <trkpt lat="45.68325" lon="5.7354">
        <ele>429.521924838</ele>
        <time>2015-12-04T14:39:18Z</time>
      </trkpt>
      <trkpt lat="45.68315" lon="5.73543">
        <ele>429.117248992</ele>
        <time>2015-12-04T14:39:28Z</time>
      </trkpt>
      <trkpt lat="45.68311" lon="5.73538">
        <ele>429.117248992</ele>
        <time>2015-12-04T14:39:33Z</time>
      </trkpt>
      <trkpt lat="45.68305" lon="5.73543">
        <ele>427.696946811</ele>
        <time>2015-12-04T14:39:43Z</time>
      </trkpt>
      <trkpt lat="45.68305" lon="5.73546">
        <ele>427.696946811</ele>
        <time>2015-12-04T14:39:48Z</time>
      </trkpt>
      <trkpt lat="45.68302" lon="5.73549">
        <ele>427.696946811</ele>
        <time>2015-12-04T14:39:58Z</time>
      </trkpt>
      <trkpt lat="45.68303" lon="5.73559">
        <ele>426.343117039</ele>
        <time>2015-12-04T14:40:03Z</time>
      </trkpt>
      <trkpt lat="45.68304" lon="5.73566">
        <ele>426.343117039</ele>
        <time>2015-12-04T14:40:09Z</time>
      </trkpt>
      <trkpt lat="45.68302" lon="5.73568">
        <ele>426.343117039</ele>
        <time>2015-12-04T14:40:13Z</time>
      </trkpt>
      <trkpt lat="45.68302" lon="5.73567">
        <ele>426.343117039</ele>
        <time>2015-12-04T14:40:18Z</time>
      </trkpt>
      <trkpt lat="45.68303" lon="5.73566">
        <ele>424.905371325</ele>
        <time>2015-12-04T14:40:23Z</time>
      </trkpt>
      <trkpt lat="45.68303" lon="5.73566">
        <ele>424.905371325</ele>
        <time>2015-12-04T14:40:28Z</time>
      </trkpt>
      <trkpt lat="45.68303" lon="5.7357">
        <ele>424.905371325</ele>
        <time>2015-12-04T14:40:33Z</time>
      </trkpt>
      <trkpt lat="45.68305" lon="5.73586">
        <ele>423.244681925</ele>
        <time>2015-12-04T14:40:43Z</time>
      </trkpt>
      <trkpt lat="45.68304" lon="5.73593">
        <ele>423.244681925</ele>
        <time>2015-12-04T14:40:48Z</time>
      </trkpt>
      <trkpt lat="45.68306" lon="5.73606">
        <ele>421.665267651</ele>
        <time>2015-12-04T14:40:58Z</time>
      </trkpt>
      <trkpt lat="45.68305" lon="5.73616">
        <ele>421.665267651</ele>
        <time>2015-12-04T14:41:03Z</time>
      </trkpt>
      <trkpt lat="45.68305" lon="5.73634">
        <ele>419.584175016</ele>
        <time>2015-12-04T14:41:15Z</time>
      </trkpt>
      <trkpt lat="45.68312" lon="5.73658">
        <ele>418.047970267</ele>
        <time>2015-12-04T14:41:30Z</time>
      </trkpt>
      <trkpt lat="45.68313" lon="5.73665">
        <ele>418.047970267</ele>
        <time>2015-12-04T14:41:34Z</time>
      </trkpt>
      <trkpt lat="45.68315" lon="5.73671">
        <ele>416.151426648</ele>
        <time>2015-12-04T14:41:39Z</time>
      </trkpt>
      <trkpt lat="45.68321" lon="5.73685">
        <ele>414.497993366</ele>
        <time>2015-12-04T14:41:50Z</time>
      </trkpt>
      <trkpt lat="45.68319" lon="5.7369">
        <ele>414.497993366</ele>
        <time>2015-12-04T14:41:54Z</time>
      </trkpt>
      <trkpt lat="45.68315" lon="5.73706">
        <ele>412.925604255</ele>
        <time>2015-12-04T14:42:05Z</time>
      </trkpt>
      <trkpt lat="45.68314" lon="5.73716">
        <ele>412.925604255</ele>
        <time>2015-12-04T14:42:09Z</time>
      </trkpt>
      <trkpt lat="45.68314" lon="5.7373">
        <ele>412.14858724</ele>
        <time>2015-12-04T14:42:19Z</time>
      </trkpt>
      <trkpt lat="45.68317" lon="5.7374">
        <ele>412.14858724</ele>
        <time>2015-12-04T14:42:24Z</time>
      </trkpt>
      <trkpt lat="45.68315" lon="5.73752">
        <ele>410.809055657</ele>
        <time>2015-12-04T14:42:34Z</time>
      </trkpt>
      <trkpt lat="45.68314" lon="5.73759">
        <ele>410.809055657</ele>
        <time>2015-12-04T14:42:39Z</time>
      </trkpt>
      <trkpt lat="45.68313" lon="5.7377">
        <ele>409.379830708</ele>
        <time>2015-12-04T14:42:49Z</time>
      </trkpt>
      <trkpt lat="45.68313" lon="5.7378">
        <ele>409.379830708</ele>
        <time>2015-12-04T14:42:54Z</time>
      </trkpt>
      <trkpt lat="45.68314" lon="5.73805">
        <ele>407.866964216</ele>
        <time>2015-12-04T14:43:08Z</time>
      </trkpt>
      <trkpt lat="45.68316" lon="5.73814">
        <ele>407.866964216</ele>
        <time>2015-12-04T14:43:13Z</time>
      </trkpt>
      <trkpt lat="45.68317" lon="5.73828">
        <ele>406.70867681</ele>
        <time>2015-12-04T14:43:24Z</time>
      </trkpt>
      <trkpt lat="45.68319" lon="5.73837">
        <ele>406.70867681</ele>
        <time>2015-12-04T14:43:28Z</time>
      </trkpt>
      <trkpt lat="45.68323" lon="5.73853">
        <ele>405.301268455</ele>
        <time>2015-12-04T14:43:40Z</time>
      </trkpt>
      <trkpt lat="45.68324" lon="5.73858">
        <ele>405.301268455</ele>
        <time>2015-12-04T14:43:44Z</time>
      </trkpt>
      <trkpt lat="45.6833" lon="5.73869">
        <ele>404.671351718</ele>
        <time>2015-12-04T14:43:56Z</time>
      </trkpt>
      <trkpt lat="45.6833" lon="5.73874">
        <ele>404.671351718</ele>
        <time>2015-12-04T14:43:58Z</time>
      </trkpt>
      <trkpt lat="45.6834" lon="5.73888">
        <ele>404.615099691</ele>
        <time>2015-12-04T14:44:09Z</time>
      </trkpt>
      <trkpt lat="45.68347" lon="5.73892">
        <ele>404.615099691</ele>
        <time>2015-12-04T14:44:15Z</time>
      </trkpt>
      <trkpt lat="45.68355" lon="5.739">
        <ele>404.221541976</ele>
        <time>2015-12-04T14:44:24Z</time>
      </trkpt>
      <trkpt lat="45.68364" lon="5.73907">
        <ele>403.512293726</ele>
        <time>2015-12-04T14:44:30Z</time>
      </trkpt>
      <trkpt lat="45.68371" lon="5.73915">
        <ele>403.228882305</ele>
        <time>2015-12-04T14:44:39Z</time>
      </trkpt>
      <trkpt lat="45.68376" lon="5.73917">
        <ele>403.228882305</ele>
        <time>2015-12-04T14:44:45Z</time>
      </trkpt>
      <trkpt lat="45.6839" lon="5.73926">
        <ele>402.760231178</ele>
        <time>2015-12-04T14:44:54Z</time>
      </trkpt>
      <trkpt lat="45.68394" lon="5.73929">
        <ele>402.760231178</ele>
        <time>2015-12-04T14:44:59Z</time>
      </trkpt>
      <trkpt lat="45.68407" lon="5.73945">
        <ele>402.261295666</ele>
        <time>2015-12-04T14:45:14Z</time>
      </trkpt>
      <trkpt lat="45.68413" lon="5.73952">
        <ele>402.261295666</ele>
        <time>2015-12-04T14:45:20Z</time>
      </trkpt>
      <trkpt lat="45.68423" lon="5.73968">
        <ele>401.299357894</ele>
        <time>2015-12-04T14:45:30Z</time>
      </trkpt>
      <trkpt lat="45.68425" lon="5.73973">
        <ele>401.299357894</ele>
        <time>2015-12-04T14:45:35Z</time>
      </trkpt>
      <trkpt lat="45.68434" lon="5.73982">
        <ele>400.483635436</ele>
        <time>2015-12-04T14:45:43Z</time>
      </trkpt>
      <trkpt lat="45.6844" lon="5.73986">
        <ele>400.483635436</ele>
        <time>2015-12-04T14:45:48Z</time>
      </trkpt>
      <trkpt lat="45.68446" lon="5.73993">
        <ele>399.657698657</ele>
        <time>2015-12-04T14:45:53Z</time>
      </trkpt>
      <trkpt lat="45.68453" lon="5.74007">
        <ele>399.54137703</ele>
        <time>2015-12-04T14:46:03Z</time>
      </trkpt>
      <trkpt lat="45.68458" lon="5.74015">
        <ele>399.54137703</ele>
        <time>2015-12-04T14:46:10Z</time>
      </trkpt>
      <trkpt lat="45.68467" lon="5.74023">
        <ele>400.223261028</ele>
        <time>2015-12-04T14:46:19Z</time>
      </trkpt>
      <trkpt lat="45.68471" lon="5.74029">
        <ele>400.223261028</ele>
        <time>2015-12-04T14:46:25Z</time>
      </trkpt>
      <trkpt lat="45.68479" lon="5.74042">
        <ele>400.342160741</ele>
        <time>2015-12-04T14:46:35Z</time>
      </trkpt>
      <trkpt lat="45.68483" lon="5.74047">
        <ele>400.342160741</ele>
        <time>2015-12-04T14:46:39Z</time>
      </trkpt>
      <trkpt lat="45.68495" lon="5.74054">
        <ele>400.800209648</ele>
        <time>2015-12-04T14:46:49Z</time>
      </trkpt>
      <trkpt lat="45.685" lon="5.74059">
        <ele>400.800209648</ele>
        <time>2015-12-04T14:46:54Z</time>
      </trkpt>
      <trkpt lat="45.68508" lon="5.74065">
        <ele>400.703076187</ele>
        <time>2015-12-04T14:47:04Z</time>
      </trkpt>
      <trkpt lat="45.68515" lon="5.7407">
        <ele>400.703076187</ele>
        <time>2015-12-04T14:47:09Z</time>
      </trkpt>
      <trkpt lat="45.68525" lon="5.74078">
        <ele>400.376668203</ele>
        <time>2015-12-04T14:47:20Z</time>
      </trkpt>
      <trkpt lat="45.6853" lon="5.74083">
        <ele>400.376668203</ele>
        <time>2015-12-04T14:47:24Z</time>
      </trkpt>
      <trkpt lat="45.68538" lon="5.74091">
        <ele>399.979582775</ele>
        <time>2015-12-04T14:47:35Z</time>
      </trkpt>
      <trkpt lat="45.68541" lon="5.74091">
        <ele>399.979582775</ele>
        <time>2015-12-04T14:47:39Z</time>
      </trkpt>
      <trkpt lat="45.68558" lon="5.7411">
        <ele>398.217949928</ele>
        <time>2015-12-04T14:47:55Z</time>
      </trkpt>
      <trkpt lat="45.68563" lon="5.74114">
        <ele>398.217949928</ele>
        <time>2015-12-04T14:47:59Z</time>
      </trkpt>
      <trkpt lat="45.68571" lon="5.74127">
        <ele>396.346756204</ele>
        <time>2015-12-04T14:48:09Z</time>
      </trkpt>
      <trkpt lat="45.68577" lon="5.74134">
        <ele>396.346756204</ele>
        <time>2015-12-04T14:48:14Z</time>
      </trkpt>
      <trkpt lat="45.68581" lon="5.74148">
        <ele>394.520410345</ele>
        <time>2015-12-04T14:48:24Z</time>
      </trkpt>
      <trkpt lat="45.68581" lon="5.74155">
        <ele>394.520410345</ele>
        <time>2015-12-04T14:48:29Z</time>
      </trkpt>
      <trkpt lat="45.68583" lon="5.74158">
        <ele>394.520410345</ele>
        <time>2015-12-04T14:48:40Z</time>
      </trkpt>
      <trkpt lat="45.68584" lon="5.74163">
        <ele>393.314259849</ele>
        <time>2015-12-04T14:48:44Z</time>
      </trkpt>
      <trkpt lat="45.68596" lon="5.7417">
        <ele>391.818599</ele>
        <time>2015-12-04T14:48:54Z</time>
      </trkpt>
      <trkpt lat="45.68598" lon="5.74173">
        <ele>391.818599</ele>
        <time>2015-12-04T14:49:00Z</time>
      </trkpt>
      <trkpt lat="45.68611" lon="5.74179">
        <ele>390.632526453</ele>
        <time>2015-12-04T14:49:08Z</time>
      </trkpt>
      <trkpt lat="45.68617" lon="5.74182">
        <ele>390.632526453</ele>
        <time>2015-12-04T14:49:13Z</time>
      </trkpt>
      <trkpt lat="45.68632" lon="5.74186">
        <ele>389.301531384</ele>
        <time>2015-12-04T14:49:30Z</time>
      </trkpt>
      <trkpt lat="45.68637" lon="5.74187">
        <ele>389.301531384</ele>
        <time>2015-12-04T14:49:35Z</time>
      </trkpt>
      <trkpt lat="45.68645" lon="5.7419">
        <ele>387.549048306</ele>
        <time>2015-12-04T14:49:45Z</time>
      </trkpt>
      <trkpt lat="45.68647" lon="5.74191">
        <ele>387.549048306</ele>
        <time>2015-12-04T14:49:50Z</time>
      </trkpt>
      <trkpt lat="45.68667" lon="5.74197">
        <ele>385.840598589</ele>
        <time>2015-12-04T14:50:00Z</time>
      </trkpt>
      <trkpt lat="45.68672" lon="5.74195">
        <ele>385.840598589</ele>
        <time>2015-12-04T14:50:04Z</time>
      </trkpt>
      <trkpt lat="45.68683" lon="5.7419">
        <ele>384.175074566</ele>
        <time>2015-12-04T14:50:15Z</time>
      </trkpt>
      <trkpt lat="45.68684" lon="5.74187">
        <ele>384.175074566</ele>
        <time>2015-12-04T14:50:19Z</time>
      </trkpt>
      <trkpt lat="45.68696" lon="5.74176">
        <ele>382.407235308</ele>
        <time>2015-12-04T14:50:35Z</time>
      </trkpt>
      <trkpt lat="45.68701" lon="5.74171">
        <ele>382.407235308</ele>
        <time>2015-12-04T14:50:39Z</time>
      </trkpt>
      <trkpt lat="45.6871" lon="5.74165">
        <ele>380.114582</ele>
        <time>2015-12-04T14:50:48Z</time>
      </trkpt>
      <trkpt lat="45.68715" lon="5.74164">
        <ele>380.114582</ele>
        <time>2015-12-04T14:50:53Z</time>
      </trkpt>
      <trkpt lat="45.68726" lon="5.74167">
        <ele>378.492347737</ele>
        <time>2015-12-04T14:51:03Z</time>
      </trkpt>
      <trkpt lat="45.68731" lon="5.74166">
        <ele>378.492347737</ele>
        <time>2015-12-04T14:51:08Z</time>
      </trkpt>
      <trkpt lat="45.68743" lon="5.7417">
        <ele>377.204965461</ele>
        <time>2015-12-04T14:51:18Z</time>
      </trkpt>
      <trkpt lat="45.68749" lon="5.74172">
        <ele>377.204965461</ele>
        <time>2015-12-04T14:51:23Z</time>
      </trkpt>
      <trkpt lat="45.68763" lon="5.74165">
        <ele>376.22878979</ele>
        <time>2015-12-04T14:51:40Z</time>
      </trkpt>
      <trkpt lat="45.68768" lon="5.74164">
        <ele>376.22878979</ele>
        <time>2015-12-04T14:51:43Z</time>
      </trkpt>
      <trkpt lat="45.68775" lon="5.74159">
        <ele>374.964579207</ele>
        <time>2015-12-04T14:51:53Z</time>
      </trkpt>
      <trkpt lat="45.68782" lon="5.74157">
        <ele>374.964579207</ele>
        <time>2015-12-04T14:51:58Z</time>
      </trkpt>
      <trkpt lat="45.68793" lon="5.74155">
        <ele>373.722570369</ele>
        <time>2015-12-04T14:52:13Z</time>
      </trkpt>
      <trkpt lat="45.68798" lon="5.74157">
        <ele>373.722570369</ele>
        <time>2015-12-04T14:52:18Z</time>
      </trkpt>
      <trkpt lat="45.68809" lon="5.74156">
        <ele>372.213685241</ele>
        <time>2015-12-04T14:52:28Z</time>
      </trkpt>
      <trkpt lat="45.68812" lon="5.74155">
        <ele>372.213685241</ele>
        <time>2015-12-04T14:52:33Z</time>
      </trkpt>
      <trkpt lat="45.68811" lon="5.74151">
        <ele>372.213685241</ele>
        <time>2015-12-04T14:52:38Z</time>
      </trkpt>
      <trkpt lat="45.68812" lon="5.74145">
        <ele>370.314921018</ele>
        <time>2015-12-04T14:52:43Z</time>
      </trkpt>
      <trkpt lat="45.68813" lon="5.74139">
        <ele>370.314921018</ele>
        <time>2015-12-04T14:52:48Z</time>
      </trkpt>
      <trkpt lat="45.68815" lon="5.74131">
        <ele>368.489825675</ele>
        <time>2015-12-04T14:52:53Z</time>
      </trkpt>
      <trkpt lat="45.68815" lon="5.74104">
        <ele>367.023550574</ele>
        <time>2015-12-04T14:53:09Z</time>
      </trkpt>
      <trkpt lat="45.68817" lon="5.74097">
        <ele>367.023550574</ele>
        <time>2015-12-04T14:53:14Z</time>
      </trkpt>
      <trkpt lat="45.68817" lon="5.74091">
        <ele>366.035152622</ele>
        <time>2015-12-04T14:53:18Z</time>
      </trkpt>
      <trkpt lat="45.68817" lon="5.74088">
        <ele>366.035152622</ele>
        <time>2015-12-04T14:53:23Z</time>
      </trkpt>
      <trkpt lat="45.68817" lon="5.74081">
        <ele>366.035152622</ele>
        <time>2015-12-04T14:53:28Z</time>
      </trkpt>
      <trkpt lat="45.68816" lon="5.7408">
        <ele>366.035152622</ele>
        <time>2015-12-04T14:53:33Z</time>
      </trkpt>
      <trkpt lat="45.68816" lon="5.7408">
        <ele>366.035152622</ele>
        <time>2015-12-04T14:53:38Z</time>
      </trkpt>
      <trkpt lat="45.68816" lon="5.74079">
        <ele>366.035152622</ele>
        <time>2015-12-04T14:53:43Z</time>
      </trkpt>
      <trkpt lat="45.68816" lon="5.74079">
        <ele>366.035152622</ele>
        <time>2015-12-04T14:53:48Z</time>
      </trkpt>
      <trkpt lat="45.68816" lon="5.7409">
        <ele>365.201237903</ele>
        <time>2015-12-04T14:53:55Z</time>
      </trkpt>
      <trkpt lat="45.68819" lon="5.74095">
        <ele>365.201237903</ele>
        <time>2015-12-04T14:54:05Z</time>
      </trkpt>
      <trkpt lat="45.68819" lon="5.74094">
        <ele>365.201237903</ele>
        <time>2015-12-04T14:54:09Z</time>
      </trkpt>
      <trkpt lat="45.68819" lon="5.74094">
        <ele>365.201237903</ele>
        <time>2015-12-04T14:54:13Z</time>
      </trkpt>
      <trkpt lat="45.68818" lon="5.74096">
        <ele>365.201237903</ele>
        <time>2015-12-04T14:54:18Z</time>
      </trkpt>
      <trkpt lat="45.68824" lon="5.74093">
        <ele>364.221705258</ele>
        <time>2015-12-04T14:54:33Z</time>
      </trkpt>
      <trkpt lat="45.68832" lon="5.7409">
        <ele>364.221705258</ele>
        <time>2015-12-04T14:54:40Z</time>
      </trkpt>
      <trkpt lat="45.68837" lon="5.74091">
        <ele>362.818878643</ele>
        <time>2015-12-04T14:54:48Z</time>
      </trkpt>
      <trkpt lat="45.68843" lon="5.74093">
        <ele>362.818878643</ele>
        <time>2015-12-04T14:54:55Z</time>
      </trkpt>
      <trkpt lat="45.68854" lon="5.741">
        <ele>362.610087613</ele>
        <time>2015-12-04T14:55:05Z</time>
      </trkpt>
      <trkpt lat="45.68861" lon="5.74102">
        <ele>362.610087613</ele>
        <time>2015-12-04T14:55:09Z</time>
      </trkpt>
      <trkpt lat="45.68877" lon="5.74104">
        <ele>362.640593793</ele>
        <time>2015-12-04T14:55:24Z</time>
      </trkpt>
      <trkpt lat="45.68883" lon="5.74106">
        <ele>362.640593793</ele>
        <time>2015-12-04T14:55:29Z</time>
      </trkpt>
      <trkpt lat="45.68895" lon="5.74103">
        <ele>362.025106508</ele>
        <time>2015-12-04T14:55:39Z</time>
      </trkpt>
      <trkpt lat="45.68901" lon="5.74102">
        <ele>362.025106508</ele>
        <time>2015-12-04T14:55:45Z</time>
      </trkpt>
      <trkpt lat="45.6891" lon="5.74104">
        <ele>361.24217089</ele>
        <time>2015-12-04T14:55:54Z</time>
      </trkpt>
      <trkpt lat="45.68916" lon="5.74103">
        <ele>361.24217089</ele>
        <time>2015-12-04T14:55:59Z</time>
      </trkpt>
      <trkpt lat="45.6892" lon="5.74102">
        <ele>360.735644657</ele>
        <time>2015-12-04T14:56:04Z</time>
      </trkpt>
      <trkpt lat="45.68923" lon="5.74104">
        <ele>360.735644657</ele>
        <time>2015-12-04T14:56:15Z</time>
      </trkpt>
      <trkpt lat="45.68924" lon="5.74105">
        <ele>360.735644657</ele>
        <time>2015-12-04T14:56:19Z</time>
      </trkpt>
      <trkpt lat="45.68924" lon="5.74109">
        <ele>360.735644657</ele>
        <time>2015-12-04T14:56:30Z</time>
      </trkpt>
      <trkpt lat="45.68925" lon="5.74109">
        <ele>360.735644657</ele>
        <time>2015-12-04T14:56:34Z</time>
      </trkpt>
      <trkpt lat="45.68924" lon="5.74109">
        <ele>360.735644657</ele>
        <time>2015-12-04T14:56:47Z</time>
      </trkpt>
      <trkpt lat="45.68924" lon="5.74109">
        <ele>360.735644657</ele>
        <time>2015-12-04T14:56:49Z</time>
      </trkpt>
      <trkpt lat="45.68924" lon="5.74109">
        <ele>360.735644657</ele>
        <time>2015-12-04T14:57:00Z</time>
      </trkpt>
      <trkpt lat="45.68924" lon="5.74109">
        <ele>360.735644657</ele>
        <time>2015-12-04T14:57:04Z</time>
      </trkpt>
      <trkpt lat="45.68924" lon="5.74109">
        <ele>360.735644657</ele>
        <time>2015-12-04T14:57:15Z</time>
      </trkpt>
      <trkpt lat="45.68924" lon="5.74109">
        <ele>360.735644657</ele>
        <time>2015-12-04T14:57:20Z</time>
      </trkpt>
      <trkpt lat="45.68924" lon="5.74109">
        <ele>360.735644657</ele>
        <time>2015-12-04T14:57:28Z</time>
      </trkpt>
      <trkpt lat="45.68924" lon="5.74109">
        <ele>360.735644657</ele>
        <time>2015-12-04T14:57:34Z</time>
      </trkpt>
      <trkpt lat="45.68931" lon="5.74116">
        <ele>360.771895762</ele>
        <time>2015-12-04T14:57:43Z</time>
      </trkpt>
      <trkpt lat="45.68939" lon="5.74118">
        <ele>360.771895762</ele>
        <time>2015-12-04T14:57:50Z</time>
      </trkpt>
      <trkpt lat="45.68948" lon="5.74119">
        <ele>360.587431549</ele>
        <time>2015-12-04T14:58:00Z</time>
      </trkpt>
      <trkpt lat="45.68949" lon="5.7412">
        <ele>360.587431549</ele>
        <time>2015-12-04T14:58:04Z</time>
      </trkpt>
      <trkpt lat="45.68949" lon="5.7412">
        <ele>360.587431549</ele>
        <time>2015-12-04T14:58:08Z</time>
      </trkpt>
      <trkpt lat="45.68949" lon="5.7412">
        <ele>360.587431549</ele>
        <time>2015-12-04T14:58:13Z</time>
      </trkpt>
      <trkpt lat="45.68954" lon="5.7412">
        <ele>360.587431549</ele>
        <time>2015-12-04T14:58:23Z</time>
      </trkpt>
      <trkpt lat="45.68955" lon="5.7412">
        <ele>360.587431549</ele>
        <time>2015-12-04T14:58:28Z</time>
      </trkpt>
      <trkpt lat="45.68955" lon="5.74121">
        <ele>360.587431549</ele>
        <time>2015-12-04T14:58:38Z</time>
      </trkpt>
      <trkpt lat="45.6896" lon="5.74121">
        <ele>359.907810166</ele>
        <time>2015-12-04T14:58:44Z</time>
      </trkpt>
      <trkpt lat="45.68965" lon="5.74121">
        <ele>359.907810166</ele>
        <time>2015-12-04T14:58:54Z</time>
      </trkpt>
      <trkpt lat="45.68974" lon="5.74124">
        <ele>358.62426658</ele>
        <time>2015-12-04T14:59:00Z</time>
      </trkpt>
      <trkpt lat="45.68985" lon="5.74128">
        <ele>357.358293842</ele>
        <time>2015-12-04T14:59:13Z</time>
      </trkpt>
      <trkpt lat="45.68994" lon="5.74126">
        <ele>357.358293842</ele>
        <time>2015-12-04T14:59:29Z</time>
      </trkpt>
      <trkpt lat="45.69011" lon="5.74131">
        <ele>355.821031269</ele>
        <time>2015-12-04T14:59:35Z</time>
      </trkpt>
      <trkpt lat="45.69024" lon="5.74135">
        <ele>354.033834382</ele>
        <time>2015-12-04T14:59:44Z</time>
      </trkpt>
      <trkpt lat="45.69026" lon="5.74136">
        <ele>354.033834382</ele>
        <time>2015-12-04T14:59:50Z</time>
      </trkpt>
      <trkpt lat="45.69038" lon="5.74141">
        <ele>353.314201503</ele>
        <time>2015-12-04T14:59:59Z</time>
      </trkpt>
      <trkpt lat="45.69043" lon="5.74141">
        <ele>353.314201503</ele>
        <time>2015-12-04T15:00:03Z</time>
      </trkpt>
      <trkpt lat="45.6905" lon="5.74137">
        <ele>352.862304798</ele>
        <time>2015-12-04T15:00:14Z</time>
      </trkpt>
      <trkpt lat="45.69053" lon="5.74141">
        <ele>352.862304798</ele>
        <time>2015-12-04T15:00:19Z</time>
      </trkpt>
      <trkpt lat="45.69057" lon="5.74143">
        <ele>352.862304798</ele>
        <time>2015-12-04T15:00:30Z</time>
      </trkpt>
      <trkpt lat="45.6906" lon="5.74145">
        <ele>352.512772317</ele>
        <time>2015-12-04T15:00:34Z</time>
      </trkpt>
      <trkpt lat="45.69072" lon="5.74149">
        <ele>352.544436869</ele>
        <time>2015-12-04T15:00:45Z</time>
      </trkpt>
      <trkpt lat="45.6908" lon="5.74148">
        <ele>352.544436869</ele>
        <time>2015-12-04T15:00:49Z</time>
      </trkpt>
      <trkpt lat="45.69105" lon="5.7415">
        <ele>352.349927246</ele>
        <time>2015-12-04T15:01:03Z</time>
      </trkpt>
      <trkpt lat="45.69122" lon="5.74157">
        <ele>352.231811805</ele>
        <time>2015-12-04T15:01:15Z</time>
      </trkpt>
      <trkpt lat="45.69127" lon="5.74163">
        <ele>352.231811805</ele>
        <time>2015-12-04T15:01:20Z</time>
      </trkpt>
      <trkpt lat="45.69134" lon="5.74166">
        <ele>351.31735408</ele>
        <time>2015-12-04T15:01:28Z</time>
      </trkpt>
      <trkpt lat="45.69134" lon="5.74164">
        <ele>351.31735408</ele>
        <time>2015-12-04T15:01:33Z</time>
      </trkpt>
      <trkpt lat="45.69134" lon="5.74163">
        <ele>351.31735408</ele>
        <time>2015-12-04T15:01:38Z</time>
      </trkpt>
      <trkpt lat="45.69134" lon="5.74168">
        <ele>351.31735408</ele>
        <time>2015-12-04T15:01:48Z</time>
      </trkpt>
      <trkpt lat="45.69138" lon="5.74174">
        <ele>350.385413504</ele>
        <time>2015-12-04T15:01:53Z</time>
      </trkpt>
      <trkpt lat="45.69142" lon="5.74187">
        <ele>349.437157459</ele>
        <time>2015-12-04T15:02:05Z</time>
      </trkpt>
      <trkpt lat="45.69145" lon="5.74191">
        <ele>349.437157459</ele>
        <time>2015-12-04T15:02:09Z</time>
      </trkpt>
      <trkpt lat="45.69142" lon="5.74204">
        <ele>348.041407566</ele>
        <time>2015-12-04T15:02:25Z</time>
      </trkpt>
      <trkpt lat="45.69144" lon="5.74208">
        <ele>348.041407566</ele>
        <time>2015-12-04T15:02:29Z</time>
      </trkpt>
      <trkpt lat="45.69155" lon="5.74215">
        <ele>347.096940639</ele>
        <time>2015-12-04T15:02:39Z</time>
      </trkpt>
      <trkpt lat="45.69162" lon="5.74216">
        <ele>347.096940639</ele>
        <time>2015-12-04T15:02:44Z</time>
      </trkpt>
      <trkpt lat="45.69173" lon="5.74212">
        <ele>346.570600091</ele>
        <time>2015-12-04T15:02:54Z</time>
      </trkpt>
      <trkpt lat="45.69175" lon="5.74207">
        <ele>346.570600091</ele>
        <time>2015-12-04T15:02:58Z</time>
      </trkpt>
      <trkpt lat="45.69178" lon="5.74199">
        <ele>345.998180282</ele>
        <time>2015-12-04T15:03:04Z</time>
      </trkpt>
      <trkpt lat="45.69189" lon="5.74179">
        <ele>345.38205997</ele>
        <time>2015-12-04T15:03:20Z</time>
      </trkpt>
      <trkpt lat="45.69192" lon="5.7418">
        <ele>345.38205997</ele>
        <time>2015-12-04T15:03:24Z</time>
      </trkpt>
      <trkpt lat="45.692" lon="5.74175">
        <ele>344.436365087</ele>
        <time>2015-12-04T15:03:33Z</time>
      </trkpt>
      <trkpt lat="45.69201" lon="5.74175">
        <ele>344.436365087</ele>
        <time>2015-12-04T15:03:38Z</time>
      </trkpt>
      <trkpt lat="45.69204" lon="5.74168">
        <ele>344.436365087</ele>
        <time>2015-12-04T15:03:48Z</time>
      </trkpt>
      <trkpt lat="45.69206" lon="5.74169">
        <ele>344.436365087</ele>
        <time>2015-12-04T15:03:54Z</time>
      </trkpt>
      <trkpt lat="45.69214" lon="5.74165">
        <ele>344.482392622</ele>
        <time>2015-12-04T15:04:05Z</time>
      </trkpt>
      <trkpt lat="45.69218" lon="5.74163">
        <ele>344.482392622</ele>
        <time>2015-12-04T15:04:09Z</time>
      </trkpt>
      <trkpt lat="45.69226" lon="5.74166">
        <ele>345.012288326</ele>
        <time>2015-12-04T15:04:19Z</time>
      </trkpt>
      <trkpt lat="45.69232" lon="5.74162">
        <ele>345.012288326</ele>
        <time>2015-12-04T15:04:24Z</time>
      </trkpt>
      <trkpt lat="45.69248" lon="5.74154">
        <ele>345.121844207</ele>
        <time>2015-12-04T15:04:39Z</time>
      </trkpt>
      <trkpt lat="45.69254" lon="5.74148">
        <ele>345.121844207</ele>
        <time>2015-12-04T15:04:43Z</time>
      </trkpt>
      <trkpt lat="45.69259" lon="5.74145">
        <ele>344.98326775</ele>
        <time>2015-12-04T15:04:48Z</time>
      </trkpt>
      <trkpt lat="45.69263" lon="5.74144">
        <ele>344.98326775</ele>
        <time>2015-12-04T15:04:53Z</time>
      </trkpt>
      <trkpt lat="45.69269" lon="5.74143">
        <ele>345.621521858</ele>
        <time>2015-12-04T15:04:58Z</time>
      </trkpt>
      <trkpt lat="45.69275" lon="5.74143">
        <ele>345.621521858</ele>
        <time>2015-12-04T15:05:03Z</time>
      </trkpt>
      <trkpt lat="45.6928" lon="5.74141">
        <ele>345.822478087</ele>
        <time>2015-12-04T15:05:08Z</time>
      </trkpt>
      <trkpt lat="45.69285" lon="5.74141">
        <ele>345.822478087</ele>
        <time>2015-12-04T15:05:13Z</time>
      </trkpt>
      <trkpt lat="45.69291" lon="5.7414">
        <ele>346.047700653</ele>
        <time>2015-12-04T15:05:19Z</time>
      </trkpt>
      <trkpt lat="45.69298" lon="5.74141">
        <ele>346.047700653</ele>
        <time>2015-12-04T15:05:24Z</time>
      </trkpt>
      <trkpt lat="45.69304" lon="5.74141">
        <ele>346.580727878</ele>
        <time>2015-12-04T15:05:34Z</time>
      </trkpt>
      <trkpt lat="45.69304" lon="5.74142">
        <ele>346.580727878</ele>
        <time>2015-12-04T15:05:40Z</time>
      </trkpt>
      <trkpt lat="45.69317" lon="5.7414">
        <ele>346.818803811</ele>
        <time>2015-12-04T15:05:48Z</time>
      </trkpt>
      <trkpt lat="45.6932" lon="5.7414">
        <ele>346.818803811</ele>
        <time>2015-12-04T15:05:54Z</time>
      </trkpt>
      <trkpt lat="45.69335" lon="5.74137">
        <ele>347.213125511</ele>
        <time>2015-12-04T15:06:04Z</time>
      </trkpt>
      <trkpt lat="45.69344" lon="5.74138">
        <ele>347.213125511</ele>
        <time>2015-12-04T15:06:09Z</time>
      </trkpt>
      <trkpt lat="45.6936" lon="5.7413">
        <ele>347.604935955</ele>
        <time>2015-12-04T15:06:24Z</time>
      </trkpt>
      <trkpt lat="45.69366" lon="5.74125">
        <ele>347.604935955</ele>
        <time>2015-12-04T15:06:29Z</time>
      </trkpt>
      <trkpt lat="45.69377" lon="5.74117">
        <ele>348.423670186</ele>
        <time>2015-12-04T15:06:40Z</time>
      </trkpt>
      <trkpt lat="45.69379" lon="5.74116">
        <ele>348.423670186</ele>
        <time>2015-12-04T15:06:44Z</time>
      </trkpt>
      <trkpt lat="45.69384" lon="5.74113">
        <ele>348.423670186</ele>
        <time>2015-12-04T15:06:54Z</time>
      </trkpt>
      <trkpt lat="45.69388" lon="5.74108">
        <ele>348.913212287</ele>
        <time>2015-12-04T15:06:59Z</time>
      </trkpt>
      <trkpt lat="45.69397" lon="5.74105">
        <ele>350.391557776</ele>
        <time>2015-12-04T15:07:10Z</time>
      </trkpt>
      <trkpt lat="45.69401" lon="5.74103">
        <ele>350.391557776</ele>
        <time>2015-12-04T15:07:14Z</time>
      </trkpt>
      <trkpt lat="45.69411" lon="5.74099">
        <ele>352.347870253</ele>
        <time>2015-12-04T15:07:24Z</time>
      </trkpt>
      <trkpt lat="45.69416" lon="5.74097">
        <ele>352.347870253</ele>
        <time>2015-12-04T15:07:28Z</time>
      </trkpt>
      <trkpt lat="45.69426" lon="5.74092">
        <ele>354.884048143</ele>
        <time>2015-12-04T15:07:39Z</time>
      </trkpt>
      <trkpt lat="45.69431" lon="5.74089">
        <ele>354.884048143</ele>
        <time>2015-12-04T15:07:45Z</time>
      </trkpt>
      <trkpt lat="45.69432" lon="5.74088">
        <ele>354.884048143</ele>
        <time>2015-12-04T15:07:54Z</time>
      </trkpt>
      <trkpt lat="45.69433" lon="5.74087">
        <ele>354.884048143</ele>
        <time>2015-12-04T15:07:59Z</time>
      </trkpt>
      <trkpt lat="45.69434" lon="5.74089">
        <ele>357.804773668</ele>
        <time>2015-12-04T15:08:09Z</time>
      </trkpt>
      <trkpt lat="45.69439" lon="5.74087">
        <ele>357.804773668</ele>
        <time>2015-12-04T15:08:13Z</time>
      </trkpt>
      <trkpt lat="45.69448" lon="5.74079">
        <ele>360.351686756</ele>
        <time>2015-12-04T15:08:24Z</time>
      </trkpt>
      <trkpt lat="45.69452" lon="5.74078">
        <ele>360.351686756</ele>
        <time>2015-12-04T15:08:28Z</time>
      </trkpt>
      <trkpt lat="45.69456" lon="5.74073">
        <ele>362.688000045</ele>
        <time>2015-12-04T15:08:39Z</time>
      </trkpt>
      <trkpt lat="45.69461" lon="5.7407">
        <ele>362.688000045</ele>
        <time>2015-12-04T15:08:43Z</time>
      </trkpt>
      <trkpt lat="45.69467" lon="5.74067">
        <ele>364.821578382</ele>
        <time>2015-12-04T15:08:48Z</time>
      </trkpt>
      <trkpt lat="45.69476" lon="5.74066">
        <ele>365.895782087</ele>
        <time>2015-12-04T15:08:59Z</time>
      </trkpt>
      <trkpt lat="45.69481" lon="5.74065">
        <ele>365.895782087</ele>
        <time>2015-12-04T15:09:04Z</time>
      </trkpt>
      <trkpt lat="45.69491" lon="5.74066">
        <ele>367.425827931</ele>
        <time>2015-12-04T15:09:14Z</time>
      </trkpt>
      <trkpt lat="45.69499" lon="5.74064">
        <ele>367.425827931</ele>
        <time>2015-12-04T15:09:19Z</time>
      </trkpt>
      <trkpt lat="45.69511" lon="5.74059">
        <ele>369.37341665</ele>
        <time>2015-12-04T15:09:29Z</time>
      </trkpt>
      <trkpt lat="45.69521" lon="5.74058">
        <ele>371.125629356</ele>
        <time>2015-12-04T15:09:34Z</time>
      </trkpt>
      <trkpt lat="45.69531" lon="5.7406">
        <ele>372.547636755</ele>
        <time>2015-12-04T15:09:45Z</time>
      </trkpt>
      <trkpt lat="45.69537" lon="5.74057">
        <ele>372.547636755</ele>
        <time>2015-12-04T15:09:48Z</time>
      </trkpt>
      <trkpt lat="45.69544" lon="5.74057">
        <ele>374.092069011</ele>
        <time>2015-12-04T15:09:53Z</time>
      </trkpt>
      <trkpt lat="45.69549" lon="5.74059">
        <ele>374.092069011</ele>
        <time>2015-12-04T15:09:58Z</time>
      </trkpt>
      <trkpt lat="45.69562" lon="5.74063">
        <ele>374.592921955</ele>
        <time>2015-12-04T15:10:09Z</time>
      </trkpt>
      <trkpt lat="45.69565" lon="5.74064">
        <ele>374.592921955</ele>
        <time>2015-12-04T15:10:15Z</time>
      </trkpt>
      <trkpt lat="45.69574" lon="5.74067">
        <ele>374.990506404</ele>
        <time>2015-12-04T15:10:24Z</time>
      </trkpt>
      <trkpt lat="45.69582" lon="5.74066">
        <ele>374.990506404</ele>
        <time>2015-12-04T15:10:29Z</time>
      </trkpt>
      <trkpt lat="45.69595" lon="5.74068">
        <ele>374.859516487</ele>
        <time>2015-12-04T15:10:40Z</time>
      </trkpt>
      <trkpt lat="45.696" lon="5.7407">
        <ele>374.859516487</ele>
        <time>2015-12-04T15:10:45Z</time>
      </trkpt>
      <trkpt lat="45.6962" lon="5.74081">
        <ele>373.951639424</ele>
        <time>2015-12-04T15:11:01Z</time>
      </trkpt>
      <trkpt lat="45.69635" lon="5.74083">
        <ele>373.480235885</ele>
        <time>2015-12-04T15:11:14Z</time>
      </trkpt>
      <trkpt lat="45.6964" lon="5.74084">
        <ele>373.480235885</ele>
        <time>2015-12-04T15:11:19Z</time>
      </trkpt>
      <trkpt lat="45.69653" lon="5.74084">
        <ele>372.983211525</ele>
        <time>2015-12-04T15:11:29Z</time>
      </trkpt>
      <trkpt lat="45.69659" lon="5.74087">
        <ele>372.983211525</ele>
        <time>2015-12-04T15:11:33Z</time>
      </trkpt>
      <trkpt lat="45.69668" lon="5.7409">
        <ele>371.88848488</ele>
        <time>2015-12-04T15:11:44Z</time>
      </trkpt>
      <trkpt lat="45.69672" lon="5.74094">
        <ele>371.88848488</ele>
        <time>2015-12-04T15:11:49Z</time>
      </trkpt>
      <trkpt lat="45.69679" lon="5.74116">
        <ele>370.964765756</ele>
        <time>2015-12-04T15:12:00Z</time>
      </trkpt>
      <trkpt lat="45.69679" lon="5.74126">
        <ele>370.964765756</ele>
        <time>2015-12-04T15:12:05Z</time>
      </trkpt>
      <trkpt lat="45.69687" lon="5.74139">
        <ele>370.347443306</ele>
        <time>2015-12-04T15:12:15Z</time>
      </trkpt>
      <trkpt lat="45.69694" lon="5.74143">
        <ele>370.347443306</ele>
        <time>2015-12-04T15:12:18Z</time>
      </trkpt>
      <trkpt lat="45.69705" lon="5.74152">
        <ele>369.152379103</ele>
        <time>2015-12-04T15:12:29Z</time>
      </trkpt>
      <trkpt lat="45.69709" lon="5.74157">
        <ele>369.152379103</ele>
        <time>2015-12-04T15:12:34Z</time>
      </trkpt>
      <trkpt lat="45.69714" lon="5.74164">
        <ele>368.435488989</ele>
        <time>2015-12-04T15:12:45Z</time>
      </trkpt>
      <trkpt lat="45.69716" lon="5.74166">
        <ele>368.435488989</ele>
        <time>2015-12-04T15:12:49Z</time>
      </trkpt>
      <trkpt lat="45.69724" lon="5.74179">
        <ele>367.588583171</ele>
        <time>2015-12-04T15:12:59Z</time>
      </trkpt>
      <trkpt lat="45.69728" lon="5.74183">
        <ele>367.588583171</ele>
        <time>2015-12-04T15:13:04Z</time>
      </trkpt>
      <trkpt lat="45.69732" lon="5.74188">
        <ele>367.057304744</ele>
        <time>2015-12-04T15:13:09Z</time>
      </trkpt>
      <trkpt lat="45.69738" lon="5.74198">
        <ele>367.057304744</ele>
        <time>2015-12-04T15:13:18Z</time>
      </trkpt>
      <trkpt lat="45.69742" lon="5.74203">
        <ele>366.100785761</ele>
        <time>2015-12-04T15:13:25Z</time>
      </trkpt>
      <trkpt lat="45.69753" lon="5.74219">
        <ele>365.042542391</ele>
        <time>2015-12-04T15:13:34Z</time>
      </trkpt>
      <trkpt lat="45.69757" lon="5.74228">
        <ele>365.042542391</ele>
        <time>2015-12-04T15:13:39Z</time>
      </trkpt>
      <trkpt lat="45.69764" lon="5.74234">
        <ele>363.894366903</ele>
        <time>2015-12-04T15:13:49Z</time>
      </trkpt>
      <trkpt lat="45.69766" lon="5.74241">
        <ele>363.894366903</ele>
        <time>2015-12-04T15:13:55Z</time>
      </trkpt>
      <trkpt lat="45.69777" lon="5.74261">
        <ele>362.81151647</ele>
        <time>2015-12-04T15:14:04Z</time>
      </trkpt>
      <trkpt lat="45.6978" lon="5.74271">
        <ele>362.81151647</ele>
        <time>2015-12-04T15:14:10Z</time>
      </trkpt>
      <trkpt lat="45.69787" lon="5.74271">
        <ele>361.361171669</ele>
        <time>2015-12-04T15:14:18Z</time>
      </trkpt>
      <trkpt lat="45.69788" lon="5.7427">
        <ele>361.361171669</ele>
        <time>2015-12-04T15:14:24Z</time>
      </trkpt>
      <trkpt lat="45.69788" lon="5.7427">
        <ele>361.361171669</ele>
        <time>2015-12-04T15:14:28Z</time>
      </trkpt>
      <trkpt lat="45.69782" lon="5.7428">
        <ele>359.287394227</ele>
        <time>2015-12-04T15:14:39Z</time>
      </trkpt>
      <trkpt lat="45.69778" lon="5.74289">
        <ele>359.287394227</ele>
        <time>2015-12-04T15:14:44Z</time>
      </trkpt>
      <trkpt lat="45.69777" lon="5.7429">
        <ele>359.287394227</ele>
        <time>2015-12-04T15:14:54Z</time>
      </trkpt>
      <trkpt lat="45.69777" lon="5.74291">
        <ele>357.075283299</ele>
        <time>2015-12-04T15:14:59Z</time>
      </trkpt>
      <trkpt lat="45.69773" lon="5.74296">
        <ele>357.075283299</ele>
        <time>2015-12-04T15:15:08Z</time>
      </trkpt>
      <trkpt lat="45.69769" lon="5.74303">
        <ele>354.886386611</ele>
        <time>2015-12-04T15:15:13Z</time>
      </trkpt>
      <trkpt lat="45.69765" lon="5.74318">
        <ele>352.870223431</ele>
        <time>2015-12-04T15:15:23Z</time>
      </trkpt>
      <trkpt lat="45.69764" lon="5.7432">
        <ele>352.870223431</ele>
        <time>2015-12-04T15:15:28Z</time>
      </trkpt>
      <trkpt lat="45.69764" lon="5.7432">
        <ele>352.870223431</ele>
        <time>2015-12-04T15:15:33Z</time>
      </trkpt>
      <trkpt lat="45.69764" lon="5.7432">
        <ele>352.870223431</ele>
        <time>2015-12-04T15:15:38Z</time>
      </trkpt>
      <trkpt lat="45.69764" lon="5.74319">
        <ele>352.870223431</ele>
        <time>2015-12-04T15:15:43Z</time>
      </trkpt>
      <trkpt lat="45.69766" lon="5.74322">
        <ele>352.870223431</ele>
        <time>2015-12-04T15:15:48Z</time>
      </trkpt>
      <trkpt lat="45.69772" lon="5.74325">
        <ele>350.73240146</ele>
        <time>2015-12-04T15:15:53Z</time>
      </trkpt>
      <trkpt lat="45.69778" lon="5.74339">
        <ele>348.488595487</ele>
        <time>2015-12-04T15:16:03Z</time>
      </trkpt>
      <trkpt lat="45.69779" lon="5.74343">
        <ele>348.488595487</ele>
        <time>2015-12-04T15:16:08Z</time>
      </trkpt>
      <trkpt lat="45.69788" lon="5.74359">
        <ele>346.29760379</ele>
        <time>2015-12-04T15:16:19Z</time>
      </trkpt>
      <trkpt lat="45.6979" lon="5.74364">
        <ele>346.29760379</ele>
        <time>2015-12-04T15:16:24Z</time>
      </trkpt>
      <trkpt lat="45.69795" lon="5.74372">
        <ele>344.018045217</ele>
        <time>2015-12-04T15:16:34Z</time>
      </trkpt>
      <trkpt lat="45.69796" lon="5.74375">
        <ele>344.018045217</ele>
        <time>2015-12-04T15:16:39Z</time>
      </trkpt>
      <trkpt lat="45.69807" lon="5.74396">
        <ele>341.807242243</ele>
        <time>2015-12-04T15:16:49Z</time>
      </trkpt>
      <trkpt lat="45.69812" lon="5.74405">
        <ele>341.807242243</ele>
        <time>2015-12-04T15:16:54Z</time>
      </trkpt>
      <trkpt lat="45.69818" lon="5.74418">
        <ele>339.234161221</ele>
        <time>2015-12-04T15:17:04Z</time>
      </trkpt>
      <trkpt lat="45.69822" lon="5.74421">
        <ele>339.234161221</ele>
        <time>2015-12-04T15:17:09Z</time>
      </trkpt>
      <trkpt lat="45.69829" lon="5.7443">
        <ele>336.476722754</ele>
        <time>2015-12-04T15:17:20Z</time>
      </trkpt>
      <trkpt lat="45.69833" lon="5.74436">
        <ele>336.476722754</ele>
        <time>2015-12-04T15:17:24Z</time>
      </trkpt>
      <trkpt lat="45.69842" lon="5.74449">
        <ele>333.988339042</ele>
        <time>2015-12-04T15:17:38Z</time>
      </trkpt>
      <trkpt lat="45.69848" lon="5.74454">
        <ele>333.988339042</ele>
        <time>2015-12-04T15:17:43Z</time>
      </trkpt>
      <trkpt lat="45.69857" lon="5.74466">
        <ele>330.747061872</ele>
        <time>2015-12-04T15:17:54Z</time>
      </trkpt>
      <trkpt lat="45.69863" lon="5.74473">
        <ele>330.747061872</ele>
        <time>2015-12-04T15:17:59Z</time>
      </trkpt>
      <trkpt lat="45.69873" lon="5.74485">
        <ele>327.68137703</ele>
        <time>2015-12-04T15:18:09Z</time>
      </trkpt>
      <trkpt lat="45.69878" lon="5.74489">
        <ele>327.68137703</ele>
        <time>2015-12-04T15:18:15Z</time>
      </trkpt>
      <trkpt lat="45.69885" lon="5.74495">
        <ele>324.786201831</ele>
        <time>2015-12-04T15:18:24Z</time>
      </trkpt>
      <trkpt lat="45.69889" lon="5.74498">
        <ele>324.786201831</ele>
        <time>2015-12-04T15:18:29Z</time>
      </trkpt>
      <trkpt lat="45.69901" lon="5.74509">
        <ele>321.623804575</ele>
        <time>2015-12-04T15:18:40Z</time>
      </trkpt>
      <trkpt lat="45.69906" lon="5.74514">
        <ele>321.623804575</ele>
        <time>2015-12-04T15:18:44Z</time>
      </trkpt>
      <trkpt lat="45.69916" lon="5.74523">
        <ele>318.365585514</ele>
        <time>2015-12-04T15:18:54Z</time>
      </trkpt>
      <trkpt lat="45.6992" lon="5.74526">
        <ele>318.365585514</ele>
        <time>2015-12-04T15:18:59Z</time>
      </trkpt>
      <trkpt lat="45.69926" lon="5.74531">
        <ele>315.458621624</ele>
        <time>2015-12-04T15:19:09Z</time>
      </trkpt>
      <trkpt lat="45.69931" lon="5.74537">
        <ele>315.458621624</ele>
        <time>2015-12-04T15:19:15Z</time>
      </trkpt>
      <trkpt lat="45.69942" lon="5.74544">
        <ele>312.307155945</ele>
        <time>2015-12-04T15:19:24Z</time>
      </trkpt>
      <trkpt lat="45.69947" lon="5.74547">
        <ele>312.307155945</ele>
        <time>2015-12-04T15:19:29Z</time>
      </trkpt>
      <trkpt lat="45.69952" lon="5.74552">
        <ele>309.800761743</ele>
        <time>2015-12-04T15:19:34Z</time>
      </trkpt>
      <trkpt lat="45.69959" lon="5.74556">
        <ele>309.800761743</ele>
        <time>2015-12-04T15:19:40Z</time>
      </trkpt>
      <trkpt lat="45.6996" lon="5.7456">
        <ele>307.752845428</ele>
        <time>2015-12-04T15:19:45Z</time>
      </trkpt>
      <trkpt lat="45.69982" lon="5.74569">
        <ele>305.700782809</ele>
        <time>2015-12-04T15:19:59Z</time>
      </trkpt>
      <trkpt lat="45.69983" lon="5.7457">
        <ele>305.700782809</ele>
        <time>2015-12-04T15:20:05Z</time>
      </trkpt>
      <trkpt lat="45.69996" lon="5.74578">
        <ele>303.503943146</ele>
        <time>2015-12-04T15:20:15Z</time>
      </trkpt>
      <trkpt lat="45.70002" lon="5.7458">
        <ele>303.503943146</ele>
        <time>2015-12-04T15:20:19Z</time>
      </trkpt>
      <trkpt lat="45.70008" lon="5.74583">
        <ele>301.60865953</ele>
        <time>2015-12-04T15:20:23Z</time>
      </trkpt>
      <trkpt lat="45.70017" lon="5.74585">
        <ele>299.562754677</ele>
        <time>2015-12-04T15:20:28Z</time>
      </trkpt>
      <trkpt lat="45.70025" lon="5.74587">
        <ele>299.562754677</ele>
        <time>2015-12-04T15:20:33Z</time>
      </trkpt>
      <trkpt lat="45.7003" lon="5.74592">
        <ele>297.235710057</ele>
        <time>2015-12-04T15:20:39Z</time>
      </trkpt>
      <trkpt lat="45.70037" lon="5.74595">
        <ele>297.235710057</ele>
        <time>2015-12-04T15:20:43Z</time>
      </trkpt>
      <trkpt lat="45.70045" lon="5.74595">
        <ele>295.37185569</ele>
        <time>2015-12-04T15:20:48Z</time>
      </trkpt>
      <trkpt lat="45.70048" lon="5.74597">
        <ele>295.37185569</ele>
        <time>2015-12-04T15:20:53Z</time>
      </trkpt>
      <trkpt lat="45.70056" lon="5.74604">
        <ele>292.93002221</ele>
        <time>2015-12-04T15:21:05Z</time>
      </trkpt>
      <trkpt lat="45.70061" lon="5.74606">
        <ele>292.93002221</ele>
        <time>2015-12-04T15:21:08Z</time>
      </trkpt>
      <trkpt lat="45.70074" lon="5.74609">
        <ele>290.676298147</ele>
        <time>2015-12-04T15:21:19Z</time>
      </trkpt>
      <trkpt lat="45.70079" lon="5.74613">
        <ele>290.676298147</ele>
        <time>2015-12-04T15:21:25Z</time>
      </trkpt>
      <trkpt lat="45.70081" lon="5.74622">
        <ele>288.311014758</ele>
        <time>2015-12-04T15:21:34Z</time>
      </trkpt>
      <trkpt lat="45.70074" lon="5.74627">
        <ele>288.311014758</ele>
        <time>2015-12-04T15:21:39Z</time>
      </trkpt>
      <trkpt lat="45.70065" lon="5.74624">
        <ele>286.853662814</ele>
        <time>2015-12-04T15:21:54Z</time>
      </trkpt>
      <trkpt lat="45.70059" lon="5.74628">
        <ele>286.853662814</ele>
        <time>2015-12-04T15:21:59Z</time>
      </trkpt>
      <trkpt lat="45.70057" lon="5.74639">
        <ele>285.516801716</ele>
        <time>2015-12-04T15:22:09Z</time>
      </trkpt>
      <trkpt lat="45.70058" lon="5.74641">
        <ele>285.516801716</ele>
        <time>2015-12-04T15:22:14Z</time>
      </trkpt>
      <trkpt lat="45.70064" lon="5.74653">
        <ele>284.290904829</ele>
        <time>2015-12-04T15:22:24Z</time>
      </trkpt>
      <trkpt lat="45.70068" lon="5.74658">
        <ele>284.290904829</ele>
        <time>2015-12-04T15:22:30Z</time>
      </trkpt>
      <trkpt lat="45.70082" lon="5.74668">
        <ele>282.157917625</ele>
        <time>2015-12-04T15:22:39Z</time>
      </trkpt>
      <trkpt lat="45.70082" lon="5.74667">
        <ele>282.157917625</ele>
        <time>2015-12-04T15:22:45Z</time>
      </trkpt>
      <trkpt lat="45.70094" lon="5.7468">
        <ele>280.194544894</ele>
        <time>2015-12-04T15:22:55Z</time>
      </trkpt>
      <trkpt lat="45.701" lon="5.74684">
        <ele>280.194544894</ele>
        <time>2015-12-04T15:22:58Z</time>
      </trkpt>
      <trkpt lat="45.70106" lon="5.74686">
        <ele>278.100802646</ele>
        <time>2015-12-04T15:23:03Z</time>
      </trkpt>
      <trkpt lat="45.70112" lon="5.7469">
        <ele>278.100802646</ele>
        <time>2015-12-04T15:23:08Z</time>
      </trkpt>
      <trkpt lat="45.70115" lon="5.74695">
        <ele>275.743108779</ele>
        <time>2015-12-04T15:23:14Z</time>
      </trkpt>
      <trkpt lat="45.70124" lon="5.74709">
        <ele>273.718884305</ele>
        <time>2015-12-04T15:23:25Z</time>
      </trkpt>
      <trkpt lat="45.70128" lon="5.74713">
        <ele>273.718884305</ele>
        <time>2015-12-04T15:23:29Z</time>
      </trkpt>
      <trkpt lat="45.70133" lon="5.74722">
        <ele>272.292406596</ele>
        <time>2015-12-04T15:23:38Z</time>
      </trkpt>
      <trkpt lat="45.70139" lon="5.7473">
        <ele>272.292406596</ele>
        <time>2015-12-04T15:23:45Z</time>
      </trkpt>
      <trkpt lat="45.7015" lon="5.74742">
        <ele>270.986214265</ele>
        <time>2015-12-04T15:23:55Z</time>
      </trkpt>
      <trkpt lat="45.70156" lon="5.74747">
        <ele>270.986214265</ele>
        <time>2015-12-04T15:23:59Z</time>
      </trkpt>
      <trkpt lat="45.70164" lon="5.74758">
        <ele>269.933943861</ele>
        <time>2015-12-04T15:24:09Z</time>
      </trkpt>
      <trkpt lat="45.70169" lon="5.74761">
        <ele>269.933943861</ele>
        <time>2015-12-04T15:24:14Z</time>
      </trkpt>
      <trkpt lat="45.70173" lon="5.7477">
        <ele>268.538073872</ele>
        <time>2015-12-04T15:24:25Z</time>
      </trkpt>
      <trkpt lat="45.70177" lon="5.74774">
        <ele>268.538073872</ele>
        <time>2015-12-04T15:24:29Z</time>
      </trkpt>
      <trkpt lat="45.70188" lon="5.74787">
        <ele>267.110544999</ele>
        <time>2015-12-04T15:24:40Z</time>
      </trkpt>
      <trkpt lat="45.70188" lon="5.74788">
        <ele>267.110544999</ele>
        <time>2015-12-04T15:24:44Z</time>
      </trkpt>
      <trkpt lat="45.70197" lon="5.74807">
        <ele>266.37275427</ele>
        <time>2015-12-04T15:24:55Z</time>
      </trkpt>
      <trkpt lat="45.702" lon="5.7481">
        <ele>266.37275427</ele>
        <time>2015-12-04T15:25:00Z</time>
      </trkpt>
      <trkpt lat="45.70204" lon="5.74817">
        <ele>265.694130073</ele>
        <time>2015-12-04T15:25:04Z</time>
      </trkpt>
      <trkpt lat="45.70214" lon="5.74828">
        <ele>264.922561174</ele>
        <time>2015-12-04T15:25:14Z</time>
      </trkpt>
      <trkpt lat="45.70222" lon="5.7483">
        <ele>264.922561174</ele>
        <time>2015-12-04T15:25:19Z</time>
      </trkpt>
      <trkpt lat="45.70228" lon="5.74838">
        <ele>263.773242504</ele>
        <time>2015-12-04T15:25:29Z</time>
      </trkpt>
      <trkpt lat="45.70234" lon="5.74843">
        <ele>263.773242504</ele>
        <time>2015-12-04T15:25:35Z</time>
      </trkpt>
      <trkpt lat="45.70245" lon="5.74853">
        <ele>262.127453916</ele>
        <time>2015-12-04T15:25:45Z</time>
      </trkpt>
      <trkpt lat="45.7025" lon="5.74856">
        <ele>262.127453916</ele>
        <time>2015-12-04T15:25:49Z</time>
      </trkpt>
      <trkpt lat="45.70262" lon="5.74861">
        <ele>260.020699507</ele>
        <time>2015-12-04T15:25:59Z</time>
      </trkpt>
      <trkpt lat="45.70266" lon="5.74867">
        <ele>260.020699507</ele>
        <time>2015-12-04T15:26:03Z</time>
      </trkpt>
      <trkpt lat="45.70275" lon="5.74875">
        <ele>258.351839129</ele>
        <time>2015-12-04T15:26:14Z</time>
      </trkpt>
      <trkpt lat="45.70282" lon="5.74883">
        <ele>258.351839129</ele>
        <time>2015-12-04T15:26:19Z</time>
      </trkpt>
      <trkpt lat="45.70286" lon="5.74891">
        <ele>256.655479955</ele>
        <time>2015-12-04T15:26:29Z</time>
      </trkpt>
      <trkpt lat="45.70287" lon="5.74892">
        <ele>256.655479955</ele>
        <time>2015-12-04T15:26:33Z</time>
      </trkpt>
      <trkpt lat="45.70288" lon="5.74892">
        <ele>256.655479955</ele>
        <time>2015-12-04T15:26:38Z</time>
      </trkpt>
      <trkpt lat="45.70287" lon="5.74889">
        <ele>256.655479955</ele>
        <time>2015-12-04T15:26:43Z</time>
      </trkpt>
      <trkpt lat="45.70288" lon="5.74889">
        <ele>256.655479955</ele>
        <time>2015-12-04T15:26:48Z</time>
      </trkpt>
      <trkpt lat="45.70288" lon="5.74889">
        <ele>256.655479955</ele>
        <time>2015-12-04T15:26:53Z</time>
      </trkpt>
      <trkpt lat="45.70288" lon="5.74889">
        <ele>256.655479955</ele>
        <time>2015-12-04T15:26:58Z</time>
      </trkpt>
      <trkpt lat="45.70288" lon="5.7489">
        <ele>256.655479955</ele>
        <time>2015-12-04T15:27:04Z</time>
      </trkpt>
      <trkpt lat="45.70288" lon="5.7489">
        <ele>256.655479955</ele>
        <time>2015-12-04T15:27:08Z</time>
      </trkpt>
      <trkpt lat="45.70288" lon="5.7489">
        <ele>256.655479955</ele>
        <time>2015-12-04T15:27:13Z</time>
      </trkpt>
      <trkpt lat="45.70288" lon="5.7489">
        <ele>256.655479955</ele>
        <time>2015-12-04T15:27:18Z</time>
      </trkpt>
      <trkpt lat="45.70288" lon="5.7489">
        <ele>256.655479955</ele>
        <time>2015-12-04T15:27:23Z</time>
      </trkpt>
      <trkpt lat="45.70288" lon="5.74889">
        <ele>256.655479955</ele>
        <time>2015-12-04T15:27:28Z</time>
      </trkpt>
      <trkpt lat="45.70286" lon="5.7489">
        <ele>256.655479955</ele>
        <time>2015-12-04T15:27:33Z</time>
      </trkpt>
      <trkpt lat="45.70271" lon="5.7489">
        <ele>255.365168765</ele>
        <time>2015-12-04T15:27:44Z</time>
      </trkpt>
      <trkpt lat="45.70263" lon="5.74886">
        <ele>255.365168765</ele>
        <time>2015-12-04T15:27:50Z</time>
      </trkpt>
      <trkpt lat="45.70251" lon="5.74883">
        <ele>254.88147713</ele>
        <time>2015-12-04T15:28:06Z</time>
      </trkpt>
      <trkpt lat="45.70232" lon="5.74877">
        <ele>254.420416834</ele>
        <time>2015-12-04T15:28:19Z</time>
      </trkpt>
      <trkpt lat="45.70218" lon="5.74877">
        <ele>253.976109537</ele>
        <time>2015-12-04T15:28:35Z</time>
      </trkpt>
      <trkpt lat="45.70218" lon="5.74878">
        <ele>253.976109537</ele>
        <time>2015-12-04T15:28:39Z</time>
      </trkpt>
      <trkpt lat="45.70221" lon="5.7489">
        <ele>253.254874755</ele>
        <time>2015-12-04T15:28:49Z</time>
      </trkpt>
      <trkpt lat="45.70227" lon="5.74897">
        <ele>253.254874755</ele>
        <time>2015-12-04T15:28:54Z</time>
      </trkpt>
      <trkpt lat="45.70236" lon="5.74908">
        <ele>252.12953746</ele>
        <time>2015-12-04T15:29:04Z</time>
      </trkpt>
      <trkpt lat="45.70243" lon="5.74912">
        <ele>252.12953746</ele>
        <time>2015-12-04T15:29:09Z</time>
      </trkpt>
      <trkpt lat="45.70251" lon="5.74921">
        <ele>250.483447997</ele>
        <time>2015-12-04T15:29:19Z</time>
      </trkpt>
      <trkpt lat="45.70252" lon="5.74921">
        <ele>250.483447997</ele>
        <time>2015-12-04T15:29:24Z</time>
      </trkpt>
      <trkpt lat="45.7026" lon="5.7493">
        <ele>249.651152297</ele>
        <time>2015-12-04T15:29:35Z</time>
      </trkpt>
      <trkpt lat="45.70261" lon="5.74932">
        <ele>249.651152297</ele>
        <time>2015-12-04T15:29:39Z</time>
      </trkpt>
      <trkpt lat="45.7027" lon="5.74942">
        <ele>248.993490406</ele>
        <time>2015-12-04T15:29:48Z</time>
      </trkpt>
      <trkpt lat="45.70276" lon="5.74945">
        <ele>248.993490406</ele>
        <time>2015-12-04T15:29:54Z</time>
      </trkpt>
      <trkpt lat="45.7029" lon="5.74955">
        <ele>248.206047096</ele>
        <time>2015-12-04T15:30:04Z</time>
      </trkpt>
      <trkpt lat="45.70294" lon="5.74959">
        <ele>248.206047096</ele>
        <time>2015-12-04T15:30:09Z</time>
      </trkpt>
      <trkpt lat="45.70301" lon="5.74972">
        <ele>247.727753251</ele>
        <time>2015-12-04T15:30:20Z</time>
      </trkpt>
      <trkpt lat="45.70305" lon="5.74976">
        <ele>247.727753251</ele>
        <time>2015-12-04T15:30:24Z</time>
      </trkpt>
      <trkpt lat="45.70317" lon="5.74982">
        <ele>246.23516232</ele>
        <time>2015-12-04T15:30:34Z</time>
      </trkpt>
      <trkpt lat="45.70319" lon="5.74987">
        <ele>246.23516232</ele>
        <time>2015-12-04T15:30:39Z</time>
      </trkpt>
      <trkpt lat="45.7034" lon="5.75002">
        <ele>244.954852565</ele>
        <time>2015-12-04T15:30:55Z</time>
      </trkpt>
      <trkpt lat="45.70348" lon="5.75006">
        <ele>244.954852565</ele>
        <time>2015-12-04T15:31:00Z</time>
      </trkpt>
      <trkpt lat="45.70356" lon="5.75014">
        <ele>243.293439118</ele>
        <time>2015-12-04T15:31:09Z</time>
      </trkpt>
      <trkpt lat="45.70361" lon="5.75021">
        <ele>243.293439118</ele>
        <time>2015-12-04T15:31:14Z</time>
      </trkpt>
      <trkpt lat="45.7037" lon="5.75031">
        <ele>241.56693112</ele>
        <time>2015-12-04T15:31:25Z</time>
      </trkpt>
      <trkpt lat="45.70373" lon="5.75039">
        <ele>241.56693112</ele>
        <time>2015-12-04T15:31:29Z</time>
      </trkpt>
      <trkpt lat="45.70381" lon="5.75048">
        <ele>240.068371297</ele>
        <time>2015-12-04T15:31:39Z</time>
      </trkpt>
      <trkpt lat="45.70382" lon="5.75046">
        <ele>240.068371297</ele>
        <time>2015-12-04T15:31:45Z</time>
      </trkpt>
      <trkpt lat="45.70382" lon="5.75046">
        <ele>240.068371297</ele>
        <time>2015-12-04T15:31:54Z</time>
      </trkpt>
      <trkpt lat="45.70382" lon="5.75046">
        <ele>240.068371297</ele>
        <time>2015-12-04T15:31:58Z</time>
      </trkpt>
      <trkpt lat="45.7039" lon="5.75049">
        <ele>238.348141144</ele>
        <time>2015-12-04T15:32:08Z</time>
      </trkpt>
      <trkpt lat="45.70397" lon="5.75054">
        <ele>238.348141144</ele>
        <time>2015-12-04T15:32:15Z</time>
      </trkpt>
      <trkpt lat="45.70403" lon="5.75059">
        <ele>236.566773729</ele>
        <time>2015-12-04T15:32:24Z</time>
      </trkpt>
      <trkpt lat="45.70408" lon="5.75062">
        <ele>236.566773729</ele>
        <time>2015-12-04T15:32:29Z</time>
      </trkpt>
      <trkpt lat="45.70418" lon="5.7507">
        <ele>235.305567239</ele>
        <time>2015-12-04T15:32:39Z</time>
      </trkpt>
      <trkpt lat="45.70422" lon="5.75073">
        <ele>235.305567239</ele>
        <time>2015-12-04T15:32:44Z</time>
      </trkpt>
      <trkpt lat="45.70431" lon="5.75074">
        <ele>233.804707686</ele>
        <time>2015-12-04T15:32:55Z</time>
      </trkpt>
      <trkpt lat="45.70434" lon="5.75078">
        <ele>233.804707686</ele>
        <time>2015-12-04T15:32:59Z</time>
      </trkpt>
      <trkpt lat="45.70439" lon="5.75082">
        <ele>232.65791634</ele>
        <time>2015-12-04T15:33:03Z</time>
      </trkpt>
      <trkpt lat="45.7045" lon="5.75087">
        <ele>231.117351178</ele>
        <time>2015-12-04T15:33:15Z</time>
      </trkpt>
      <trkpt lat="45.70454" lon="5.75089">
        <ele>231.117351178</ele>
        <time>2015-12-04T15:33:19Z</time>
      </trkpt>
      <trkpt lat="45.70466" lon="5.75097">
        <ele>229.355920729</ele>
        <time>2015-12-04T15:33:29Z</time>
      </trkpt>
      <trkpt lat="45.70472" lon="5.75101">
        <ele>229.355920729</ele>
        <time>2015-12-04T15:33:34Z</time>
      </trkpt>
      <trkpt lat="45.70481" lon="5.75109">
        <ele>227.678602822</ele>
        <time>2015-12-04T15:33:45Z</time>
      </trkpt>
      <trkpt lat="45.70487" lon="5.75108">
        <ele>227.678602822</ele>
        <time>2015-12-04T15:33:48Z</time>
      </trkpt>
      <trkpt lat="45.70493" lon="5.75111">
        <ele>226.079550783</ele>
        <time>2015-12-04T15:33:53Z</time>
      </trkpt>
      <trkpt lat="45.70498" lon="5.75114">
        <ele>226.079550783</ele>
        <time>2015-12-04T15:33:58Z</time>
      </trkpt>
      <trkpt lat="45.70505" lon="5.75118">
        <ele>225.129607366</ele>
        <time>2015-12-04T15:34:03Z</time>
      </trkpt>
      <trkpt lat="45.7051" lon="5.75123">
        <ele>225.129607366</ele>
        <time>2015-12-04T15:34:08Z</time>
      </trkpt>
      <trkpt lat="45.70515" lon="5.75128">
        <ele>224.4912275</ele>
        <time>2015-12-04T15:34:13Z</time>
      </trkpt>
      <trkpt lat="45.7052" lon="5.75134">
        <ele>224.4912275</ele>
        <time>2015-12-04T15:34:18Z</time>
      </trkpt>
      <trkpt lat="45.7052" lon="5.75137">
        <ele>224.4912275</ele>
        <time>2015-12-04T15:34:23Z</time>
      </trkpt>
      <trkpt lat="45.7052" lon="5.75138">
        <ele>224.139045724</ele>
        <time>2015-12-04T15:34:28Z</time>
      </trkpt>
      <trkpt lat="45.7052" lon="5.75138">
        <ele>224.139045724</ele>
        <time>2015-12-04T15:34:33Z</time>
      </trkpt>
      <trkpt lat="45.70521" lon="5.75137">
        <ele>224.139045724</ele>
        <time>2015-12-04T15:34:38Z</time>
      </trkpt>
      <trkpt lat="45.70521" lon="5.75137">
        <ele>224.139045724</ele>
        <time>2015-12-04T15:34:43Z</time>
      </trkpt>
      <trkpt lat="45.70521" lon="5.75137">
        <ele>224.139045724</ele>
        <time>2015-12-04T15:34:48Z</time>
      </trkpt>
      <trkpt lat="45.70521" lon="5.75139">
        <ele>224.139045724</ele>
        <time>2015-12-04T15:34:53Z</time>
      </trkpt>
      <trkpt lat="45.7052" lon="5.75147">
        <ele>224.139045724</ele>
        <time>2015-12-04T15:34:58Z</time>
      </trkpt>
      <trkpt lat="45.70517" lon="5.75156">
        <ele>224.192908103</ele>
        <time>2015-12-04T15:35:03Z</time>
      </trkpt>
      <trkpt lat="45.70513" lon="5.75163">
        <ele>224.192908103</ele>
        <time>2015-12-04T15:35:08Z</time>
      </trkpt>
      <trkpt lat="45.70507" lon="5.75168">
        <ele>224.186319572</ele>
        <time>2015-12-04T15:35:13Z</time>
      </trkpt>
    </trkseg>
  </trk>
</gpx>